     2              OBSERVATION DATA    GPS                 RINEX VERSION / TYPE
teqc 2000Jul20 Karen Wendt 20030328 21:40:18UTC             PGM / RUN BY / DATE
                                                            COMMENT
L2: 1 -> 1; 150 -> 5; 250 -> 9                              COMMENT
L2: 1 -> 1; 150 -> 5; 250 -> 9                              COMMENT
L2: 1 -> 1; 150 -> 5; 250 -> 9                              COMMENT
L2: 1 -> 1; 150 -> 5; 250 -> 9                              COMMENT
L2: 1 -> 1; 150 -> 5; 250 -> 9                              COMMENT
L2: 1 -> 1; 150 -> 5; 250 -> 9                              COMMENT
L2: 1 -> 1; 150 -> 5; 250 -> 9                              COMMENT
L2: 1 -> 1; 150 -> 5; 250 -> 9                              COMMENT
L2: 1 -> 1; 150 -> 5; 250 -> 9                              COMMENT
L2: 1 -> 1; 150 -> 5; 250 -> 9                              COMMENT
L2: 1 -> 1; 150 -> 5; 250 -> 9                              COMMENT
L2: 1 -> 1; 150 -> 5; 250 -> 9                              COMMENT
L2: 1 -> 1; 150 -> 5; 250 -> 9                              COMMENT
L2: 1 -> 1; 150 -> 5; 250 -> 9                              COMMENT
Original Marker Name: tess Tessajera_1932_USC&GS            COMMENT
Campaign Name: USGS 2003                                    COMMENT
4-Character Station Name: TESS                              COMMENT
6-Character Antenna Code: DMRCHT                            COMMENT
Vertical Measurement Point: BCR                             COMMENT
Vertical Offset to Rinex Ref. Point: 0.0348                 COMMENT
Radial Measurement Point: ECF                               COMMENT
Radial Offset to Rinex Ref. Point: 0.1897                   COMMENT
Antenna Height from Field Measurement: 0.6520 m             COMMENT
Additional Antenna Identification Info.:                    COMMENT
Turborogue and Ashtech Choke Ring                           COMMENT
Original XYZ: -2657896.6673 -4476882.2966 3673321.1732      COMMENT
New XYZ position is based on association with SCEC monument COMMENT
E1F1A1S7+0011. Position of that monument is believed to be  COMMENT
valid to within 1 m horizontally; vertical accuracy         COMMENT
should be no worse than 3-times this value.                 COMMENT
                                                            COMMENT
Revised Rinex header created by UCSD GPS archive for        COMMENT
GSAC on 11-Jul-2003 (2003:192) 16:13:04 GMT                 COMMENT
For assistance contact dagnew@ucsd.edu                      COMMENT
or anderson@python.ucsd.edu                                 COMMENT
                                                            COMMENT
TESSAJERA 1932                                              MARKER NAME
JMS US GEOLOGICAL SURVEY                                    OBSERVER / AGENCY
ZE120023202 RECEIVER UNKNOWN ZC00                           REC # / TYPE / VERS
CR620022601 DORNE-MARGOL. TYPE T                            ANT # / TYPE
 -2657916.0978 -4476862.3605  3673308.9942                  APPROX POSITION XYZ
        0.5890        0.0000        0.0000                  ANTENNA: DELTA H/E/N
     1     1     0                                          WAVELENGTH FACT L1/2
     5    C1    L1    L2    P1    P2                        # / TYPES OF OBSERV
    30                                                      INTERVAL
  2003     3    25    16    58   30.000000                  TIME OF FIRST OBS
  2003     3    25    23    59   30.000000                  TIME OF LAST OBS
                                                            END OF HEADER
 03  3 25 16 58 30.0000000  0  3G24G 7G 9
  20706018.884      -43024.20554    -28937.78352  20706018.977    20706016.782
  22849660.577       31965.15953     15962.11052  22849659.818    22849658.133
  21056978.162        7179.74354      2569.74852  21056976.065    21056974.659
 03  3 25 16 58 59.9990000  0  4G24G 4G 7G 9
  20431711.362       90904.34244     75422.13842  20431712.095    20431709.889
  20450293.225      207282.11054    159167.95652  20450293.459    20450290.171
  22595905.789      273902.81043    204484.88842  22595906.218    22595904.664
  20796321.864      212852.75944    162834.44542  20796321.885    20796319.325
 03  3 25 16 59 29.9990000  0  5G24G 4G 5G 7G 9
  20423863.962       49668.28144     43290.15042  20423865.091    20423862.847
  20456054.891      237564.47944    182764.58542  20456056.090    20456052.730
  21497029.847        3598.94953     14523.29852  21497031.057    21497028.422
  22608518.118      340183.81643    256132.35742  22608519.060    22608517.465
  20802132.483      243392.14044    186631.32442  20802133.388    20802130.778
 03  3 25 16 59 59.9990000  0  5G24G 4G 5G 7G 9
  20416126.178        9006.88244     11605.95442  20416127.461    20416125.194
  20461934.318      268462.62844    206841.04642  20461935.853    20461932.456
  21483278.398      -68665.21243    -41786.42542  21483279.704    21483277.009
  22621146.158      406545.51643    307842.71042  22621147.253    22621145.648
  20808058.414      274534.43644    210898.00542  20808059.624    20808056.965
 03  3 25 17  0 29.9990000  0  5G24G 4G 5G 7G 9
  20408489.560      -31123.08844    -19664.14542  20408490.959    20408488.670
  20467922.279      299930.58144    231361.51242  20467924.028    20467920.615
  21469561.589     -140746.99843    -97954.06142  21469562.994    21469560.310
  22633781.196      472943.09743    359581.00342  22633782.359    22633780.701
  20814090.537      306234.06944    235598.97342  20814091.928    20814089.215
 03  3 25 17  0 59.9990000  0  5G24G 4G 5G 7G 9
  20400953.748      -70723.56044    -50521.64642  20400955.241    20400952.940
  20474017.853      331963.76744    256322.41842  20474019.762    20474016.309
  21455879.264     -212647.72043   -153980.59342  21455880.733    21455878.088
  22646422.427      539372.98743    411344.47742  22646423.612    22646421.940
  20820227.923      338486.76344    260730.90042  20820229.470    20820226.724
 03  3 25 17  1 29.9990000  0  5G24G 4G 5G 7G 9
  20393515.062     -109813.62044    -80981.42542  20393516.637    20393514.338
  20480217.032      364541.20544    281707.41642  20480219.057    20480215.612
  21442228.077     -284384.95243   -209879.73342  21442229.597    21442226.948
  22659066.005      605815.34043    463117.66942  22659067.232    22659065.562
  20826466.612      371271.58444    286277.47742  20826468.253    20826465.495
 03  3 25 17  1 59.9990000  0  5G24G 4G 5G 7G 9
  20386178.672     -148366.26444   -111022.44042  20386180.278    20386177.995
  20486524.429      397687.04344    307535.32042  20486526.535    20486523.072
  21428613.275     -355931.09743   -265629.97542  21428614.826    21428612.176
  22671716.779      672295.33343    514920.19142  22671718.051    22671716.386
  20832811.248      404612.98844    312257.74642  20832812.953    20832810.168
 03  3 25 17  2 29.9990000  0  5G24G 4G 5G 7G 9
  20378946.138     -186373.09044   -140638.13742  20378947.809    20378945.536
  20492941.084      431406.99144    333810.58642  20492943.252    20492939.790
  21415036.566     -427277.23443   -321224.38642  21415038.123    21415035.444
  22684376.078      738819.77843    566757.35142  22684377.310    22684375.714
  20839262.876      438516.65044    338676.14642  20839264.641    20839261.827
 03  3 25 17  2 59.9990000  0  5G24G 4G 5G 7G 9
  20371816.986     -223836.89744   -169830.71842  20371818.673    20371816.424
  20499465.963      465695.32044    360528.74042  20499468.148    20499464.674
  21401497.543     -498425.39143   -376664.50442  21401499.121    21401496.398
  22697042.939      805384.09143    618625.55642  22697044.141    22697042.600
  20845820.512      472977.10644    365528.40742  20845822.306    20845819.457
 03  3 25 17  3 29.9990000  0  5G24G 4G 5G 7G 9
  20364794.139     -260742.02144   -198587.96442  20364795.856    20364793.599
  20506101.577      500565.80244    387700.53942  20506103.811    20506100.324
  21387999.428     -569358.41643   -431936.99242  21388001.025    21387998.266
  22709720.239      872003.17543    670536.46142  22709721.449    22709719.945
  20852486.771      508008.41244    392825.48742  20852488.615    20852485.715
 03  3 25 17  3 59.9990000  0  5G24G 4G 5G 7G 9
  20357872.552     -297114.89144   -226930.44542  20357874.323    20357872.074
  20512842.438      535989.37444    415303.29542  20512844.735    20512841.239
  21374537.336     -640102.00043   -487061.86742  21374538.977    21374536.230
  22722402.671      938649.15843    722468.32542  22722403.856    22722402.320
  20859256.165      543581.80944    420544.98242  20859258.045    20859255.161
 03  3 25 17  4 29.9990000  0  5G24G 4G 5G 7G 9
  20351061.257     -332908.46544   -254821.54342  20351063.051    20351060.797
  20519697.011      572010.39844    443371.59942  20519699.328    20519695.843
  21361120.425     -710608.28943   -542001.84242  21361122.072    21361119.356
  22735098.833     1005367.66343    774456.69242  22735100.047    22735098.503
  20866137.157      579741.59544    448721.39642  20866139.062    20866136.168
 03  3 25 17  4 59.9990000  0  5G24G 4G 5G 7G 9
  20344350.534     -368173.40944   -282300.72442  20344352.329    20344350.098
  20526655.172      608575.82344    471864.12442  20526657.522    20526654.069
  21347739.318     -780926.39443   -596795.17042  21347741.005    21347738.284
  22747798.906     1072107.04143    826461.33442  22747800.159    22747798.690
  20873119.733      616435.14844    477313.73642  20873121.649    20873118.760
 03  3 25 17  5 29.9990000  0  6G24G30G 4G 5G 7G 9
  20337742.699     -402897.81944   -309358.71042  20337744.495    20337742.286
  23989240.522    -1606054.48553  -1195849.57252  23989242.242    23989242.585
  20533718.718      645695.02144    500788.15442  20533721.060    20533717.658
  21334396.431     -851043.74443   -651432.07042  21334398.104    21334395.412
  22760504.993     1138877.69043    878490.33042  22760506.185    22760504.730
  20880205.646      653671.72944    506329.21142  20880207.556    20880204.674
 03  3 25 17  5 59.9990000  0  6G24G30G 4G 5G 7G 9
  20331239.110     -437074.63344   -335990.00742  20331240.892    20331238.688
  23970691.851    -1703528.10343  -1271802.99642  23970693.873    23970693.784
  20540888.535      683372.52944    530147.23342  20540890.855    20540887.476
  21321093.342     -920952.06343   -705906.08542  21321095.007    21321092.366
  22773218.137     1205685.56443    930548.33142  22773219.280    22773217.950
  20887395.835      691456.33744    535771.72342  20887397.771    20887394.873
 03  3 25 17  6 29.9990000  0  6G24G30G 4G 5G 7G 9
  20324840.299     -470700.71244   -362192.13942  20324842.100    20324839.887
  23952142.272    -1801006.56543  -1347760.22042  23952144.543    23952144.312
  20548164.752      721609.11044    559941.95842  20548167.070    20548163.675
  21307830.778     -990647.36843   -760214.11742  21307832.437    21307829.823
  22785938.717     1272532.72343    982636.96742  22785939.862    22785938.623
  20894690.393      729789.35944    565641.57442  20894692.336    20894689.436
 03  3 25 17  6 59.9990000  0  6G24G30G 4G 5G 7G 9
  20318546.492     -503774.98544   -387964.31042  20318548.319    20318546.070
  23933591.985    -1898488.64243  -1423720.23942  23933594.294    23933594.043
  20555546.916      760402.62144    590170.65042  20555549.247    20555545.856
  21294609.111    -1060127.73043   -814354.65942  21294610.791    21294608.198
  22798666.714     1339418.52443   1034755.69642  22798667.834    22798666.653
  20902089.070      768669.45944    595937.70642  20902091.005    20902088.134
 03  3 25 17  7 29.9990000  0  6G24G30G 4G 5G 7G 9
  20312357.215     -536299.77844   -413308.30742  20312359.070    20312356.814
  23915040.746    -1995975.59743  -1499684.06442  23915043.292    23915042.925
  20563034.319      799749.07344    620830.20542  20563036.670    20563033.264
  21281428.290    -1129393.44643   -868327.93842  21281429.978    21281427.422
  22811401.530     1406340.22843   1086902.40642  22811402.625    22811401.440
  20909591.102      808092.63244    626657.02542  20909593.035    20909590.176
 03  3 25 17  7 59.9990000  0  6G24G30G 4G 5G 7G 9
  20306271.053     -568282.84544   -438230.19342  20306272.899    20306270.613
  23896487.335    -2093474.45743  -1575657.16942  23896489.937    23896489.406
  20570624.951      839638.01644    651912.47442  20570627.309    20570623.932
  21268287.038    -1198451.24543   -922139.20142  21268288.733    21268286.208
  22824141.445     1473288.86343   1139070.09842  22824142.564    22824141.406
  20917194.509      848048.45644    657791.39042  20917196.447    20917193.570
 03  3 25 17  8 29.9990000  0  6G24G30G 4G 5G 7G 9
  20300291.265     -599706.93544   -462716.49542  20300293.109    20300290.822
  23877935.004    -2190967.34543  -1651625.60342  23877937.660    23877937.043
  20578321.659      880084.41144    683429.13342  20578324.009    20578320.655
  21255188.885    -1267282.69943   -975774.09642  21255190.563    21255188.058
  22836889.618     1540280.56643   1191271.35442  22836890.751    22836889.577
  20924902.099      888551.88644    689352.46742  20924904.033    20924901.180
 03  3 25 17  8 59.9990000  0  6G24G30G 4G 5G 7G 9
  20294419.444     -630563.56944   -486760.62742  20294421.316    20294419.008
  23859385.588    -2288445.13043  -1727582.27442  23859388.305    23859387.626
  20586125.511      921093.83944    715384.51442  20586127.840    20586124.527
  21242135.619    -1335878.40843  -1029225.30142  21242137.287    21242134.732
  22849647.407     1607322.78643   1243511.95042  22849648.561    22849647.378
  20932715.048      929609.14244    721345.08442  20932716.985    20932714.175
 03  3 25 17  9 29.9990000  0  6G24G30G 4G 5G 7G 9
  20288651.652     -660873.65844   -510378.88242  20288653.512    20288651.211
  23840835.180    -2385928.06643  -1803542.95142  23840837.912    23840837.133
  20594032.019      962642.81344    747760.31442  20594034.345    20594031.045
  21229123.399    -1404258.13343  -1082508.20942  21229125.055    21229122.497
  22862410.554     1674393.34143   1295774.65542  22862411.757    22862410.515
  20940628.941      971196.82344    753751.02542  20940630.883    20940628.142
 03  3 25 17  9 59.9990000  0  6G24G30G 4G 5G 7G 9
  20282991.862     -690616.17844   -533554.88042  20282993.710    20282991.420
  23822288.017    -2483394.20943  -1879490.54842  23822290.733    23822289.869
  20602044.836     1004750.23044    780571.27342  20602047.146    20602043.826
  21216156.514    -1472399.40843  -1135605.30642  21216158.175    21216155.661
  22875182.925     1741512.44943   1348075.18242  22875184.214    22875182.880
  20948647.373     1013333.65344    786584.86242  20948649.298    20948646.602
 03  3 25 17 10 29.9990000  0  6G24G30G 4G 5G 7G 9
  20277437.901     -719802.35744   -556297.36742  20277439.780    20277437.505
  23803741.976    -2580854.02743  -1955433.19442  23803744.724    23803743.861
  20610161.273     1047402.19644    813806.53842  20610163.565    20610160.231
  21203233.170    -1540312.12843  -1188524.30642  21203234.808    21203232.313
  22887962.221     1808668.01343   1400404.13042  22887963.597    22887962.213
  20956767.707     1056006.10244    819836.07842  20956769.631    20956766.975
 03  3 25 17 10 59.9990000  0  6G24G30G 4G 5G 7G 9
  20271986.904     -748447.54144   -578618.30042  20271988.752    20271986.545
  23785194.392    -2678322.05343  -2031382.23842  23785197.132    23785196.303
  20618377.962     1090581.00844    847452.34742  20618380.259    20618376.903
  21190350.613    -1608010.27443  -1241276.11042  21190352.244    21190349.763
  22900745.369     1875843.72143   1452748.76942  22900746.760    22900745.352
  20964986.577     1099196.36044    853490.76942  20964988.496    20964985.873
 03  3 25 17 11 29.9990000  0  6G24G30G 4G 5G 7G 9
  20266640.007     -776545.74644   -600513.01642  20266641.812    20266639.663
  23766646.489    -2775791.08243  -2107332.07642  23766649.298    23766648.467
  20626695.528     1134290.17544    881511.41942  20626697.862    20626694.472
  21177510.378    -1675486.19943  -1293854.74942  21177512.020    21177509.497
  22913533.371     1943044.85743   1505113.22742  22913534.797    22913533.328
  20973304.746     1142908.49144    887552.11242  20973306.679    20973304.063
 03  3 25 17 11 59.9990000  0  6G24G30G 4G 5G 7G 9
  20261396.514     -804100.62444   -621984.36142  20261398.302    20261396.157
  23748097.912    -2873264.18043  -2183285.06942  23748100.753    23748099.925
  20635112.884     1178523.70144    915979.07142  20635115.217    20635111.854
  21164711.953    -1742742.40643  -1346262.18842  21164713.592    21164711.044
  22926325.388     2010266.81143   1557493.89042  22926326.830    22926325.339
  20981721.126     1187136.57944    922015.51142  20981723.057    20981720.446
 03  3 25 17 12 29.9990000  0  6G24G30G 4G 5G 7G 9
  20256257.965     -831103.93444   -643025.90742  20256259.750    20256257.627
  23729550.328    -2970732.19143  -2259234.11842  23729553.121    23729552.309
  20643631.097     1223287.16944    950859.67142  20643633.396    20643630.092
  21151957.189    -1809769.20943  -1398490.86142  21151958.821    21151956.279
  22939122.696     2077516.92143   1609896.51242  22939124.201    22939122.709
  20990236.793     1231886.41344    956885.45642  20990238.690    20990236.133
 03  3 25 17 12 59.9990000  0  6G24G30G 4G 5G 7G 9
  20251229.694     -857527.65644   -663615.82842  20251231.485    20251229.362
  23711009.178    -3068166.06243  -2335156.55542  23711011.980    23711011.227
  20652254.987     1268606.02544    986173.04042  20652257.295    20652254.026
  21139251.630    -1876537.19443  -1450517.86142  21139253.269    21139250.710
  22951930.614     2144822.43643   1662342.29342  22951932.095    22951930.685
  20998856.573     1277183.50744    992181.83942  20998858.500    20998855.937
 03  3 25 17 13 29.9990000  0  6G24G30G 4G 5G 7G 9
  20246305.820     -883402.92944   -683778.38542  20246307.585    20246305.495
  23692468.779    -3165596.02243  -2411075.95242  23692471.655    23692470.942
  20660978.178     1314446.64444   1021892.96742  20660980.484    20660977.269
  21126589.720    -1943076.02243  -1502366.30042  21126591.341    21126588.748
  22964742.928     2212151.26043   1714806.24242  22964744.439    22964743.070
  21007574.123     1322994.31344   1027878.52842  21007576.053    21007573.508
 03  3 25 17 13 59.9990000  0  6G24G30G 4G 5G 7G 9
  20241488.254     -908719.41644   -703505.52842  20241490.020    20241487.934
  23673931.341    -3263010.68043  -2486983.42142  23673934.189    23673933.509
  20669802.207     1360817.15944   1058025.80942  20669804.524    20669801.347
  21113973.682    -2009373.75943  -1554026.88042  21113975.298    21113972.691
  22977561.550     2279513.05443   1767295.87342  22977563.030    22977561.722
  21016390.996     1369327.03444   1063981.89142  21016392.918    21016390.369
 03  3 25 17 14 29.9990000  0  6G24G30G 4G 5G 7G 9
  20236774.391     -933491.00944   -722808.07942  20236776.168    20236774.057
  23655394.445    -3360422.49343  -2562888.67542  23655397.201    23655396.564
  20678724.029     1407701.46144   1094559.00142  20678726.346    20678723.202
  21101401.167    -2075442.61243  -1605509.10042  21101402.828    21101400.202
  22990383.703     2346893.69843   1819800.19942  22990385.170    22990383.917
  21025304.156     1416165.82544   1100479.60142  21025306.080    21025303.521
 03  3 25 17 14 59.9990000  0  6G24G30G 4G 5G 7G 9
  20232166.808     -957704.09744   -741675.42942  20232168.584    20232166.448
  23636860.865    -3457816.63043  -2638780.16742  23636863.612    23636862.997
  20687745.809     1455110.87544   1131501.36842  20687748.100    20687744.973
  21088875.140    -2141267.19543  -1656800.98742  21088876.799    21088874.197
  23003211.948     2414306.15843   1872329.31342  23003213.404    23003212.156
  21034315.840     1463522.17744   1137380.60042  21034317.750    21034315.174
 03  3 25 17 15 29.9990000  0  6G24G30G 4G 5G 7G 9
  20227665.909     -981356.53344   -760105.90542  20227667.708    20227665.540
  23618331.239    -3555190.25643  -2714655.67042  23618333.936    23618333.418
  20696867.334     1503044.48644   1168852.19642  20696869.606    20696866.453
  21076396.253    -2206844.29043  -1707900.01842  21076397.904    21076395.333
  23016046.432     2481751.33943   1924883.92542  23016047.880    23016046.619
  21043425.798     1511395.19144   1174684.19142  21043427.715    21043425.178
 03  3 25 17 15 59.9990000  0  6G24G30G 4G 5G 7G 9
  20223272.272    -1004445.32344   -778097.17842  20223274.083    20223271.897
  23599806.355    -3652539.16243  -2790511.92342  23599808.954    23599808.494
  20706088.773     1551503.21344   1206612.20942  20706091.054    20706087.851
  21063965.386    -2272169.01943  -1758802.40742  21063967.041    21063964.475
  23028887.624     2549231.83143   1977466.04542  23028889.107    23028887.789
  21052634.267     1559785.86044   1212391.14542  21052636.192    21052633.691
 03  3 25 17 16 29.9990000  0  6G24G30G 4G 5G 7G 9
  20218984.153    -1026979.50444   -795656.28542  20218985.972    20218983.794
  23581284.736    -3749871.10743  -2866354.96242  23581287.280    23581286.730
  20715407.949     1600475.57544   1244772.44842  20715410.236    20715406.980
  21051581.142    -2337248.72443  -1809513.85842  21051582.809    21051580.264
  23041733.749     2616738.11043   2030068.27142  23041735.201    23041733.868
  21061939.099     1608682.86544   1250492.64942  21061941.007    21061938.550
 03  3 25 17 16 59.9990000  0  6G24G30G 4G 5G 7G 9
  20214801.191    -1048961.06044   -812784.77142  20214803.026    20214800.861
  23562766.138    -3847186.86343  -2942185.37942  23562768.662    23562768.111
  20724824.011     1649957.14944   1283329.48242  20724826.308    20724823.036
  21039243.415    -2402083.95043  -1860034.81442  21039245.083    21039242.531
  23054584.296     2684267.56543   2082688.54242  23054585.738    23054584.345
  21071339.457     1658081.83444   1288985.29342  21071341.358    21071338.926
 03  3 25 17 17 29.9990000  0  6G24G30G 4G 5G 7G 9
  20210724.384    -1070384.79544   -829478.59142  20210726.230    20210724.063
  23544251.876    -3944479.71143  -3017997.93442  23544254.462    23544253.810
  20734337.502     1699950.88344   1322285.60342  20734339.831    20734336.553
  21026953.562    -2466667.59143  -1910359.72842  21026955.234    21026952.678
  23067440.122     2751824.93643   2135330.55742  23067441.550    23067440.133
  21080835.922     1707985.99044   1327871.58742  21080837.831    21080835.402
 03  3 25 17 17 59.9990000  0  6G24G30G 4G 5G 7G 9
  20206753.161    -1091253.75344   -845740.11542  20206755.001    20206752.847
  23525741.635    -4041751.56743  -3093794.12742  23525744.251    23525743.533
  20743947.417     1750451.39144   1361636.60942  20743949.743    20743946.534
  21014711.306    -2531001.11843  -1960489.74942  21014712.977    21014710.404
  23080300.532     2819406.65243   2187991.57342  23080302.005    23080300.625
  21090427.528     1758389.96644   1367147.35342  21090429.460    21090427.005
 03  3 25 17 18 29.9990000  0  6G24G30G 4G 5G 7G 9
  20202890.081    -1111554.33644   -861558.75042  20202891.933    20202889.773
  23507238.279    -4138987.28143  -3169562.16142  23507240.889    23507240.128
  20753655.949     1801470.05944   1401391.37442  20753658.267    20753655.118
  21002519.635    -2595068.87943  -2010412.68442  21002521.293    21002518.707
  23093168.133     2887026.09443   2240681.94542  23093169.601    23093168.254
  21100116.421     1809305.24144   1406821.53742  21100118.361    21100115.925
 03  3 25 17 18 59.9990000  0  6G24G30G 4G 5G 7G 9
  20199129.562    -1131316.14344   -876957.56142  20199131.395    20199129.231
  23488736.448    -4236215.00543  -3245323.98142  23488739.094    23488738.224
  20763457.011     1852974.78544   1441524.89042  20763459.315    20763456.207
  20990373.209    -2658898.71943  -2060150.21942  20990374.895    20990372.294
  23106037.211     2954653.12343   2293378.25642  23106038.635    23106037.388
  21109896.598     1860700.12944   1446869.44742  21109898.538    21109896.124
 03  3 25 17 19 29.9990000  0  6G24G30G 4G 5G 7G 9
  20195476.826    -1150511.37344   -891914.88342  20195478.676    20195476.474
  23470241.577    -4333405.93143  -3321057.10442  23470244.200    23470243.370
  20773355.375     1904990.91744   1482056.90542  20773357.687    20773354.591
  20978277.670    -2722461.18243  -2109679.41042  20978279.335    20978276.755
  23118912.909     3022314.94243   2346101.66142  23118914.314    23118913.136
  21119772.814     1912599.74744   1487310.64842  21119774.744    21119772.370
 03  3 25 17 19 59.9990000  0  6G24G30G 4G 5G 7G 9
  20191931.558    -1169141.85644   -906432.14042  20191933.420    20191931.196
  23451753.686    -4430560.10943  -3396761.60942  23451756.305    23451755.493
  20783350.322     1957514.35544   1522984.21842  20783352.618    20783349.540
  20966233.013    -2785756.23443  -2159000.23242  20966234.676    20966232.093
  23131794.769     3090009.38043   2398850.49342  23131796.148    23131795.097
  21129744.271     1965000.03744   1528141.99342  21129746.222    21129743.862
 03  3 25 17 20 29.9990000  0  6G24G30G 4G 5G 7G 9
  20188492.457    -1187214.48744   -920514.70842  20188494.327    20188492.079
  23433271.691    -4527683.05743  -3472441.78442  23433274.433    23433273.565
  20793440.044     2010536.10744   1564299.82742  20793442.374    20793439.280
  20954238.322    -2848788.61443  -2208116.37942  20954239.991    20954237.418
  23144681.552     3157729.47343   2451619.31942  23144682.891    23144681.931
  21139809.339     2017892.10444   1569356.53542  21139811.276    21139808.923
 03  3 25 17 20 59.9990000  0  6G24G30G 4G 5G 7G 9
  20185160.464    -1204724.29144   -934158.71042  20185162.329    20185160.051
  23414797.007    -4624768.24543  -3548092.51742  23414799.760    23414798.845
  20803625.099     2064058.68144   1606005.68442  20803627.420    20803624.305
  20942294.860    -2911551.73043  -2257022.71242  20942296.537    20942294.011
  23157574.022     3225479.72143   2504411.63142  23157575.406    23157574.497
  21149968.538     2071278.70344   1610956.43042  21149970.457    21149968.084
 03  3 25 17 21 29.9990000  0  6G24G30G 4G 5G 7G 9
  20181935.499    -1221671.71444   -947364.49142  20181937.362    20181935.044
  23396329.709    -4721814.44043  -3623712.87442  23396332.450    23396331.525
  20813904.884     2118079.27144   1648099.60842  20813907.212    20813904.096
  20930402.968    -2974043.91743  -2305717.92342  20930404.621    20930402.149
  23170472.130     3293259.38643   2557226.85742  23170473.514    23170472.639
  21160221.333     2125157.20944   1652939.62042  21160223.232    21160220.876
 03  3 25 17 21 59.9990000  0  6G24G30G 4G 5G 7G 9
  20178813.939    -1238075.65344   -960146.78442  20178815.796    20178813.468
  23377866.474    -4818839.40843  -3699316.69142  23377869.212    23377868.244
  20824275.443     2172576.62544   1690565.03342  20824277.749    20824274.618
  20918559.365    -3036282.48043  -2354215.50942  20918561.011    20918558.555
  23183372.171     3361049.26943   2610050.05342  23183373.584    23183372.703
  21170563.673     2179506.25144   1695289.45642  21170565.574    21170563.212
 03  3 25 17 22 29.9990000  0  6G24G30G 4G 5G 7G 9
  20175800.727    -1253910.11644   -972485.32642  20175802.595    20175800.287
  23359412.560    -4915815.28543  -3774882.27642  23359415.362    23359414.299
  20834741.235     2227574.49644   1733420.46842  20834743.505    20834740.371
  20906769.337    -3098239.42743  -2402493.65042  20906770.993    20906768.552
  23196278.995     3428875.10043   2662901.28042  23196280.444    23196279.580
  21181000.077     2234349.49644   1738024.38542  21181001.964    21180999.569
 03  3 25 17 22 59.9990000  0  6G24G30G 4G 5G 7G 9
  20172896.349    -1269172.75744   -984378.29542  20172898.205    20172895.934
  23340968.749    -5012738.08743  -3850406.46742  23340971.517    23340970.461
  20845302.275     2283072.99944   1776666.00542  20845304.568    20845301.411
  20895033.772    -3159910.20343  -2450548.80242  20895035.429    20895033.000
  23209193.146     3496739.06943   2715782.19542  23209194.545    23209193.691
  21191530.611     2289687.37444   1781144.74642  21191532.493    21191530.054
 03  3 25 17 23 29.9990000  0  6G24G30G 4G 5G 7G 9
  20170097.384    -1283881.49844   -995839.65242  20170099.212    20170096.943
  23322531.987    -5109624.11543  -3925902.02742  23322534.797    23322533.582
  20855954.741     2339051.89844   1820285.87442  20855957.040    20855953.853
  20883349.626    -3221310.94743  -2498393.53342  20883351.265    20883348.811
  23222111.124     3564623.08543   2768678.75442  23222112.481    23222111.681
  21202151.403     2345499.74844   1824634.84342  21202153.299    21202150.844
 03  3 25 17 23 59.9990000  0  6G24G30G 4G 5G 7G 9
  20167402.702    -1298042.20944  -1006873.98242  20167404.500    20167402.228
  23304101.499    -5206477.28243  -4001371.97942  23304104.316    23304102.956
  20866697.111     2395503.18044   1864273.83542  20866699.403    20866696.228
  20871716.211    -3282445.06243  -2546030.51242  20871717.846    20871715.379
  23235031.787     3632521.40343   2821586.44742  23235033.134    23235032.426
  21212861.002     2401778.68744   1868488.49942  21212862.891    21212860.459
 03  3 25 17 24 29.9990000  0  6G24G30G 4G 5G 7G 9
  20164814.172    -1311645.08644  -1017473.63042  20164815.975    20164813.691
  23285679.381    -5303286.20843  -4076807.46042  23285682.227    23285680.772
  20877530.808     2452434.37144   1908635.75042  20877533.085    20877529.917
  20860135.758    -3343300.98043  -2593450.71142  20860137.379    20860134.870
  23247956.975     3700443.37343   2874512.57242  23247958.270    23247957.676
  21223660.759     2458531.59344   1912711.48442  21223662.670    21223660.255
 03  3 25 17 24 59.9990000  0  6G24G30G 4G 5G 7G 9
  20162333.666    -1324680.40044  -1027631.02342  20162335.479    20162333.151
  23267267.788    -5400039.50743  -4152199.59142  23267270.661    23267269.182
  20888457.263     2509853.03344   1953377.51342  20888459.536    20888456.367
  20848610.454    -3403866.99543  -2640645.00842  20848612.091    20848609.518
  23260888.578     3768398.74343   2927464.72542  23260889.760    23260889.248
  21234552.170     2515765.96044   1957309.63442  21234554.063    21234551.680
 03  3 25 17 25 29.9990000  0  6G24G30G 4G 5G 7G 9
  20159959.179    -1337158.37644  -1037354.12942  20159961.017    20159958.715
  23248865.286    -5496745.28943  -4227554.69442  23248868.128    23248866.562
  20899474.099     2567746.73044   1998489.43442  20899476.375    20899473.196
  20837138.793    -3464150.99743  -2687619.55542  20837140.450    20837137.833
  23273824.624     3836377.38443   2980434.99942  23273825.723    23273825.264
  21245532.921     2573469.78944   2002273.59442  21245534.792    21245532.426
 03  3 25 17 25 59.9990000  0  6G24G30G 4G 5G 7G 9
  20157688.726    -1349089.57044  -1046651.16942  20157690.582    20157688.306
  23230470.112    -5593412.45143  -4302879.70642  23230472.967    23230471.317
  20910578.887     2626102.61043   2043961.50142  20910581.158    20910577.970
  20825719.167    -3524161.50043  -2734380.98242  20825720.836    20825718.202
  23286763.052     3904368.64143   3033415.09842  23286764.152    23286763.709
  21256600.537     2631630.15844   2047593.29942  21256602.417    21256600.033
 03  3 25 17 26 29.9990000  0  6G24G30G 4G 5G 7G 9
  20155527.480    -1360446.99344  -1055501.11742  20155529.335    20155527.086
  23212087.830    -5690011.95443  -4378152.00842  23212090.674    23212089.006
  20921776.316     2684945.52343   2089813.07142  20921778.596    20921775.420
  20814357.205    -3583869.09743  -2780906.38342  20814358.865    20814356.227
  23299708.944     3972399.56943   3086426.12842  23299710.073    23299709.695
  21267759.764     2690272.12044   2093288.27042  21267761.650    21267759.291
 03  3 25 17 26 59.9990000  0  6G24G30G 4G 5G 7G 9
  20153470.813    -1371254.81044  -1063922.80342  20153472.678    20153470.443
  23193714.139    -5786566.14443  -4453388.98642  23193716.941    23193715.281
  20933061.439     2744249.25743   2136023.72642  20933063.729    20933060.594
  20803048.664    -3643295.89943  -2827212.97842  20803050.310    20803047.679
  23312657.834     4040446.06143   3139449.27442  23312658.920    23312658.621
  21279005.598     2749369.22044   2139337.90142  21279007.491    21279005.164
 03  3 25 17 27 29.9990000  0  6G24G30G 4G 5G 7G 9
  20151516.684    -1381523.83744  -1071924.65242  20151518.531    20151516.327
  23175347.328    -5883084.01243  -4528597.67942  23175350.108    23175348.498
  20944431.793     2804000.64444   2182583.20742  20944434.071    20944430.944
  20791791.912    -3702450.54644  -2873307.51242  20791793.559    20791790.940
  23325607.590     4108497.23943   3192476.06442  23325608.724    23325608.376
  21290335.574     2808908.50644   2185732.08542  21290337.491    21290335.188
 03  3 25 17 27 59.9990000  0  6G24G30G 4G 5G 7G 9
  20149673.193    -1391211.52344  -1079473.50742  20149675.028    20149672.835
  23156995.890    -5979520.94443  -4603743.29542  23156998.738    23156997.116
  20955895.018     2864240.21843   2229523.09142  20955897.316    20955894.200
  20780595.475    -3761288.36443  -2919155.16442  20780597.088    20780594.507
  23338566.374     4176595.76743   3245539.75442  23338567.484    23338567.179
  21301757.425     2868930.47544   2232502.38642  21301759.336    21301757.052
 03  3 25 17 28 29.9990000  0  6G24G30G 4G 5G 7G 9
  20147935.623    -1400342.53144  -1086588.58742  20147937.464    20147935.266
  23138655.550    -6075899.76243  -4678843.62042  23138658.403    23138656.815
  20967446.025     2924940.97643   2276822.33642  20967448.320    20967445.233
  20769455.059    -3819831.62543  -2964773.29542  20769456.694    20769454.125
  23351529.514     4244717.04843   3298621.16642  23351530.621    23351530.305
  21313266.021     2929408.22844   2279627.84042  21313267.914    21313265.645
 03  3 25 17 28 59.9990000  0  6G24G30G 4G 5G 7G 9
  20146304.118    -1408916.21444  -1093269.38442  20146305.964    20146303.751
  23120326.872    -6172217.50143  -4753896.38342  23120329.639    23120328.075
  20979084.537     2986101.66844   2324479.97742  20979086.841    20979083.777
  20758371.300    -3878077.23144  -3010159.48442  20758372.940    20758370.371
  23364497.173     4312862.12143   3351721.11142  23364498.271    23364498.013
  21324861.105     2990340.53743   2327107.48142  21324863.017    21324860.731
 03  3 25 17 29 29.9990000  0  6G24G30G 4G 5G 7G 9
  20144778.389    -1416934.11244  -1099517.10342  20144780.228    20144777.987
  23102009.853    -6268473.99143  -4828901.37642  23102012.610    23102011.053
  20990809.825     3047718.22643   2372492.83542  20990812.116    20990809.097
  20747344.236    -3936024.78043  -3055313.42342  20747345.861    20747343.321
  23377469.032     4381029.40543   3404838.36342  23377470.128    23377469.947
  21336541.928     3051723.40644   2374938.21742  21336543.830    21336541.563
 03  3 25 17 29 59.9990000  0  6G24G30G 4G 5G 7G 9
  20143361.413    -1424380.35444  -1105319.37342  20143363.270    20143361.024
  23083707.909    -6364650.92743  -4903844.40842  23083710.645    23083709.158
  21002624.509     3109804.64743   2420871.82642  21002626.815    21002623.833
  20736377.402    -3993655.92744  -3100220.81442  20736379.008    20736376.452
  23390448.128     4449235.00743   3457985.49842  23390449.286    23390449.171
  21348311.123     3113570.71543   2423130.85342  21348313.019    21348310.769
 03  3 25 17 30 29.9990000  0  6G24G30G 4G 5G 7G 9
  20142048.310    -1431280.71944  -1110696.28542  20142050.180    20142047.932
  23065416.610    -6460772.10943  -4978743.97542  23065419.344    23065417.862
  21014523.343     3172333.23343   2469595.36742  21014525.662    21014522.723
  20725466.363    -4050993.95344  -3144899.80542  20725467.966    20725465.394
  23403429.723     4517453.31443   3511142.52842  23403430.870    23403430.712
  21360163.367     3175854.53044   2471663.62542  21360165.262    21360163.081
 03  3 25 17 30 59.9990000  0  6G24G30G 4G 5G 7G 9
  20140838.220    -1437639.85644  -1115651.46642  20140840.098    20140837.837
  23047135.501    -6556839.78243  -5053601.87142  23047138.251    23047136.755
  21026505.064     3235297.38744   2518658.31242  21026507.378    21026504.473
  20714610.689    -4108040.94944  -3189352.02042  20714612.299    20714609.719
  23416412.902     4585680.41443   3564306.40142  23416414.040    23416413.938
  21372097.511     3238568.59244   2520531.64342  21372099.383    21372097.273
 03  3 25 17 31 29.9990000  0  6G24G30G 4G 5G 7G 9
  20139731.737    -1443454.58744  -1120182.42942  20139733.600    20139731.309
  23028865.550    -6652848.90843  -5128414.12842  23028868.288    23028866.807
  21038569.802     3298697.82943   2568061.22042  21038572.103    21038569.231
  20703811.369    -4164791.74043  -3233573.42342  20703813.009    20703810.424
  23429398.381     4653919.31443   3617479.47342  23429399.553    23429399.398
  21384113.706     3301713.77643   2569735.60442  21384115.568    21384113.486
 03  3 25 17 31 59.9990000  0  6G24G30G 4G 5G 7G 9
  20138733.844    -1448698.58444  -1124268.66842  20138735.703    20138733.420
  23010612.209    -6748770.58143  -5203158.24342  23010614.980    23010613.489
  21050722.254     3362559.17343   2617823.27542  21050724.554    21050721.704
  20693073.922    -4221217.31543  -3277541.40742  20693075.570    20693073.021
  23442391.249     4722196.90043   3670682.70542  23442392.514    23442392.255
  21396216.544     3365314.28944   2619294.36542  21396218.404    21396216.327
 03  3 25 17 32 29.9990000  0  6G24G30G 4G 5G 7G 9
  20137838.848    -1453401.76944  -1127933.49242  20137840.717    20137838.430
  22992370.157    -6844632.93843  -5277856.12942  22992372.937    22992371.415
  21062956.256     3426849.01843   2667919.23342  21062958.544    21062955.707
  20682393.092    -4277345.46144  -3321277.63342  20682394.760    20682392.210
  23455385.807     4790483.26543   3723892.76842  23455387.122    23455386.747
  21408399.946     3429338.14743   2669183.00342  21408401.791    21408399.726
 03  3 25 17 32 59.9990000  0  6G24G30G 4G 5G 7G 9
  20137050.452    -1457544.80544  -1131161.84142  20137052.321    20137050.036
  22974143.661    -6940413.77443  -5352490.51342  22974146.385    22974144.892
  21075275.162     3491585.14843   2718362.94242  21075277.452    21075274.628
  20671773.106    -4333154.02244  -3364764.83542  20671774.772    20671772.184
  23468385.887     4858798.57743   3777125.38742  23468387.244    23468386.700
  21420667.220     3493802.79143   2719415.10242  21420669.061    21420666.998
 03  3 25 17 33 29.9990000  0  6G24G30G 4G 5G 7G 9
  20136367.878    -1461131.84744  -1133956.94842  20136369.731    20136367.438
  22955932.213    -7036115.02443  -5427062.87342  22955934.989    22955933.448
  21087677.803     3556761.45143   2769149.64942  21087680.122    21087677.281
  20661213.607    -4388644.56444  -3408004.22942  20661215.283    20661212.700
  23481390.765     4927139.02743   3830377.59542  23481392.126    23481391.503
  21433017.261     3558702.37743   2769986.11542  21433019.093    21433017.053
 03  3 25 17 33 59.9990000  0  6G24G30G 4G 5G 7G 9
  20135792.803    -1464153.89844  -1136311.80242  20135794.684    20135792.385
  22937738.075    -7131725.51943  -5501564.48042  22937740.869    22937739.371
  21100165.566     3622384.70443   2820284.63242  21100167.852    21100164.940
  20650716.774    -4443805.80044  -3450987.01642  20650718.459    20650715.862
  23494402.142     4995513.83843   3883656.56842  23494403.499    23494402.892
  21445451.322     3624043.54243   2820901.21942  21445453.161    21445451.169
 03  3 25 17 34 29.9990000  0  6G24G30G 4G 5G 7G 9
  20135324.334    -1466615.65044  -1138230.06442  20135326.216    20135323.937
  22919560.684    -7227247.81643  -5575997.40342  22919563.473    22919562.075
  21112737.057     3688448.04543   2871762.53842  21112739.341    21112736.359
  20640282.194    -4498639.94944  -3493714.92542  20640283.857    20640281.257
  23507419.202     5063918.67343   3936958.94242  23507420.592    23507419.983
  21457968.160     3689819.48043   2872155.10642  21457969.991    21457968.025
 03  3 25 17 34 59.9990000  0  6G24G30G 4G 5G 7G 9
  20134959.864    -1468531.02744  -1139722.57942  20134961.731    20134959.487
  22901398.004    -7322692.87543  -5650370.09842  22901400.813    22901399.463
  21125389.320     3754935.84343   2923571.18342  21125391.601    21125388.555
  20629907.792    -4553157.98544  -3536196.52142  20629909.438    20629906.811
  23520439.486     5132340.40043   3990274.48442  23520440.871    23520440.209
  21470564.721     3756014.44743   2923735.51242  21470566.538    21470564.614
 03  3 25 17 35 29.9990000  0  6G24G30G 4G 5G 7G 9
  20134699.329    -1469900.36244  -1140789.61242  20134701.137    20134698.917
  22883250.427    -7418059.07643  -5724681.37042  22883253.234    22883251.865
  21138121.847     3821845.64343   2975708.66642  21138124.138    21138121.079
  20619593.877    -4607358.02444  -3578430.32642  20619595.521    20619592.866
  23533463.054     5200778.84143   4043603.05042  23533464.344    23533463.697
  21483240.511     3822625.86143   2975640.42642  21483242.331    21483240.468
 03  3 25 17 35 59.9990000  0  6G24G30G 4G 5G 7G 9
  20134547.105    -1470700.36544  -1141413.00342  20134548.923    20134546.699
  22865122.785    -7513320.47543  -5798910.98042  22865125.569    22865124.189
  21150938.740     3889198.74643   3028191.58342  21150941.050    21150937.982
  20609345.377    -4661214.30844  -3620396.26842  20609346.991    20609344.349
  23546494.258     5269257.92243   4096963.28042  23546495.504    23546494.937
  21495999.645     3889675.04543   3027886.45242  21496001.451    21495999.615
 03  3 25 17 36 29.9990000  0  6G24G30G 4G 5G 7G 9
  20134498.065    -1470958.14444  -1141613.88642  20134499.862    20134497.670
  22847010.423    -7608501.70043  -5873078.12542  22847013.172    22847011.712
  21163834.481     3956966.22643   3080997.38642  21163836.781    21163833.716
  20599157.626    -4714751.17044  -3662113.30742  20599159.242    20599156.614
  23559528.139     5337751.38343   4150334.70542  23559529.410    23559528.919
  21508836.553     3957133.10443   3080451.09242  21508838.369    21508836.537
 03  3 25 17 36 59.9990000  0  7G24G30G 4G 5G10G 7G 9
  20134550.019    -1470685.08144  -1141401.12142  20134551.832    20134549.649
  22828911.593    -7703611.47343  -5947189.59642  22828914.356    22828912.855
  21176806.557     4025134.97443   3134115.87142  21176808.859    21176805.853
  20589029.026    -4767977.23444  -3703588.16342  20589030.636    20589028.066
  24185622.950     -981306.32453   -708297.99852  24185623.859    24185627.455
  23572562.734     5406248.19243   4203708.73042  23572564.015    23572563.519
  21521748.712     4024986.71143   3133323.95742  21521750.542    21521748.737
 03  3 25 17 37 29.9990000  0  7G24G30G 4G 5G10G 7G 9
  20134703.730    -1469877.46344  -1140771.82442  20134705.536    20134703.326
  22810827.558    -7798643.46743  -6021240.44342  22810830.363    22810828.824
  21189855.354     4093706.72743   3187548.38642  21189857.665    21189854.663
  20578960.829    -4820886.03244  -3744815.79942  20578962.444    20578959.892
  24166868.682    -1079860.30943   -785093.13242  24166869.765    24166872.846
  23585598.782     5474752.68543   4257088.75842  23585600.167    23585599.544
  21534736.473     4093237.74643   3186506.50842  21534738.348    21534736.528
 03  3 25 17 37 59.9990000  0  7G24G30G 4G 5G10G 7G 9
  20134960.803    -1468526.69244  -1139719.28842  20134962.622    20134960.365
  22792760.453    -7893586.83943  -6095222.24442  22792763.194    22792761.686
  21202982.045     4162687.88643   3241299.91542  21202984.369    21202981.394
  20568955.075    -4873466.82744  -3785787.84842  20568956.674    20568954.120
  24148102.893    -1178473.21143   -861934.19342  24148104.186    24148107.421
  23598638.023     5543274.04843   4310481.92742  23598639.429    23598638.951
  21547801.015     4161892.25743   3240003.45842  21547802.914    21547801.099
 03  3 25 17 38 29.9990000  0  7G24G30G 4G 5G10G 7G 9
  20135320.267    -1466637.85244  -1138247.48342  20135322.096    20135319.824
  22774709.818    -7988443.71043  -6169136.64642  22774712.524    22774711.010
  21216185.387     4232071.83043   3295365.30542  21216187.716    21216184.777
  20559011.370    -4925721.38344  -3826505.68842  20559012.989    20559010.422
  24129325.873    -1277145.90243   -938821.85542  24129327.313    24129330.746
  23611679.737     5611808.10943   4363884.99442  23611681.073    23611680.698
  21560941.141     4230943.88443   3293809.84442  21560943.028    21560941.205
 03  3 25 17 38 59.9990000  0  7G24G30G 4G 5G10G 7G 9
  20135786.520    -1464187.74344  -1136338.32142  20135788.369    20135786.090
  22756680.525    -8083188.12943  -6242963.42742  22756683.254    22756681.714
  21229469.434     4301879.94643   3349761.21842  21229471.779    21229468.854
  20549134.660    -4977623.91444  -3866949.21642  20549136.302    20549133.718
  24110542.691    -1375851.26143  -1015734.95342  24110544.267    24110547.702
  23624728.396     5680378.71743   4417316.54242  23624729.760    23624729.343
  21574160.915     4300414.00843   3347942.33642  21574162.793    21574160.983
 03  3 25 17 39 29.9990000  0  7G24G30G 4G 5G10G 7G 9
  20136358.996    -1461179.31544  -1133994.10842  20136360.870    20136358.615
  22738672.496    -8177820.55243  -6316702.92542  22738675.263    22738673.699
  21242833.240     4372107.23343   3404483.75542  21242835.605    21242832.733
  20539324.849    -5029174.85244  -3907118.77842  20539326.508    20539323.890
  24091753.370    -1474588.66143  -1092673.01242  24091755.026    24091758.477
  23637783.585     5748983.45443   4470774.67742  23637784.857    23637784.556
  21587459.335     4370297.30543   3402396.77642  21587461.208    21587459.427
 03  3 25 17 39 59.9990000  0  7G24G30G 4G 5G10G 7G 9
  20137032.488    -1457640.13144  -1131236.31542  20137034.371    20137032.126
  22720681.073    -8272365.71643  -6390374.41742  22720683.839    22720682.239
  21256271.268     4442724.49743   3459510.17142  21256273.634    21256270.792
  20529577.225    -5080398.78844  -3947033.52842  20529578.876    20529576.306
  24072953.467    -1573381.79243  -1169654.47042  24072955.360    24072958.586
  23650840.079     5817595.75343   4524238.70242  23650841.420    23650841.210
  21600830.789     4440564.52543   3457150.39042  21600832.676    21600830.927
 03  3 25 17 40 29.9990000  0  7G24G30G 4G 5G10G 7G 9
  20137812.399    -1453541.71444  -1128042.76042  20137814.266    20137812.044
  22702712.255    -8366792.41543  -6463953.62042  22702715.008    22702713.376
  21269788.571     4513758.34543   3514861.18842  21269790.935    21269788.100
  20519897.767    -5131264.47644  -3986669.12842  20519899.417    20519896.904
  24054149.165    -1672198.29143  -1246654.12442  24054150.970    24054154.317
  23663903.736     5886244.90543   4577731.44042  23663905.008    23663904.949
  21614280.422     4511242.39143   3512223.97942  21614282.290    21614280.566
 03  3 25 17 40 59.9990000  0  7G24G30G 4G 5G10G 7G 9
  20138695.322    -1448901.93744  -1124427.36542  20138697.206    20138694.963
  22684763.185    -8461115.72143  -6537452.27142  22684765.862    22684764.164
  21283381.478     4585189.34143   3570521.66842  21283383.830    21283380.968
  20510283.664    -5181786.86844  -4026037.22442  20510285.288    20510282.820
  24035337.684    -1771052.10443  -1323682.81942  24035339.583    24035342.760
  23676971.123     5954913.78043   4631239.54442  23676972.333    23676972.202
  21627804.476     4582311.20143   3567602.20042  21627806.325    21627804.576
 03  3 25 17 41 29.9990000  0  8G24G30G 4G 5G10G 7G 6G 9
  20139679.789    -1443728.53844  -1120396.16142  20139681.669    20139679.431
  22666832.778    -8555340.27143  -6610873.95142  22666835.496    22666833.750
  21297048.158     4657007.99443   3626484.22742  21297050.486    21297047.629
  20500733.948    -5231970.90844  -4065141.67042  20500735.567    20500733.132
  24016518.438    -1869947.20443  -1400743.66842  24016520.328    24016523.457
  23690040.989     6023595.72743   4684757.83842  23690042.127    23690042.014
  24518982.710    -2700992.86253  -1756125.79252  24518985.261    24518987.059
  21641401.086     4653761.48443   3623277.67042  21641402.933    21641401.193
 03  3 25 17 41 59.9990000  0  8G24G30G 4G 5G10G 7G 6G 9
  20140768.643    -1438006.67444  -1115937.58342  20140770.513    20140768.272
  22648924.462    -8649448.79343  -6684205.22242  22648927.208    22648925.438
  21310791.051     4729227.11143   3682758.81942  21310793.371    21310790.479
  20491251.927    -5281799.23744  -4103968.94042  20491253.547    20491251.126
  23997694.672    -1968865.30243  -1477822.42342  23997696.691    23997699.610
  23703116.212     6092305.88143   4738298.10342  23703117.332    23703117.231
  24505061.709    -2774148.10743  -1813129.80042  24505064.165    24505066.045
  21655072.693     4725605.88343   3679260.24242  21655074.550    21655072.756
 03  3 25 17 42 29.9990000  0  8G24G30G 4G 5G10G 7G 6G 9
  20141960.566    -1431743.13444  -1111056.92242  20141962.428    20141960.195
  22631037.478    -8743445.34143  -6757449.25942  22631040.220    22631038.459
  21324608.453     4801837.89943   3739338.61142  21324610.776    21324607.877
  20481836.815    -5331275.92344  -4142522.20342  20481838.406    20481836.018
  23978866.096    -2067809.30443  -1554921.37542  23978868.194    23978870.831
  23716195.662     6161038.42343   4791855.82042  23716196.823    23716196.634
  24491152.859    -2847239.51943  -1870084.05942  24491155.372    24491157.167
  21668817.660     4797835.72843   3735543.15942  21668819.498    21668817.684
 03  3 25 17 42 59.9990000  0  8G24G30G 4G 5G10G 7G 6G 9
  20143253.561    -1424948.49944  -1105762.41742  20143255.411    20143253.181
  22613170.383    -8837337.35243  -6830611.81942  22613173.101    22613171.331
  21338498.128     4874828.49243   3796214.35342  21338500.446    21338497.550
  20472487.220    -5380408.40144  -4180807.24842  20472488.797    20472486.427
  23960031.375    -2166785.44943  -1632045.36542  23960033.503    23960036.094
  23729277.599     6229783.78943   4845423.53942  23729278.697    23729278.504
  24477254.369    -2920276.76943  -1926996.14142  24477256.807    24477258.416
  21682633.579     4870438.63943   3792116.78442  21682635.419    21682633.644
 03  3 25 17 43 29.9990000  0  8G24G30G 4G 5G10G 7G 6G 9
  20144648.559    -1417617.79644  -1100050.19842  20144650.393    20144648.182
  22595324.666    -8931116.87543  -6903686.73142  22595327.371    22595325.664
  21352460.686     4948201.99343   3853388.46642  21352463.013    21352460.123
  20463204.619    -5429188.64944  -4218817.82942  20463206.207    20463203.882
  23941192.156    -2265784.94843  -1709187.57642  23941194.312    23941196.933
  23742363.085     6298547.94643   4899005.88242  23742364.128    23742363.954
  24463367.284    -2993253.92543  -1983861.38542  24463369.753    24463371.268
  21696521.071     4943417.86243   3848983.63842  21696522.948    21696521.243
 03  3 25 17 43 59.9990000  0  8G24G30G 4G 5G10G 7G 6G 9
  20146145.877    -1409749.42244  -1093919.01442  20146147.709    20146145.506
  22577501.226    -9024779.48343  -6976670.54042  22577503.901    22577502.211
  21366496.100     5021958.34743   3910860.89942  21366498.390    21366495.557
  20453989.889    -5477612.36744  -4256550.59642  20453991.487    20453989.180
  23922349.653    -2364802.23743  -1786343.65742  23922351.745    23922354.334
  23755452.549     6367333.38743   4952604.80942  23755453.661    23755453.530
  24449492.070    -3066168.63443  -2040677.98942  24449494.528    24449495.903
  21710480.137     5016773.09643   3906143.48342  21710482.008    21710480.395
 03  3 25 17 44 29.9990000  0  8G24G30G 4G 5G10G 7G 6G 9
  20147746.542    -1401337.87644  -1087364.58342  20147748.383    20147746.193
  22559701.663    -9118316.56643  -7049556.52942  22559704.308    22559702.611
  21380605.129     5096101.56043   3968634.78142  21380607.439    21380604.612
  20444844.691    -5525670.94944  -4293998.84142  20444846.287    20444843.954
  23903505.586    -2463827.60843  -1863506.06542  23903507.684    23903510.153
  23768547.376     6436146.82543   5006225.55842  23768548.447    23768548.496
  24435630.070    -3139014.29143  -2097440.77542  24435632.343    24435633.728
  21724511.510     5090508.34643   3963599.44842  21724513.383    21724511.852
 03  3 25 17 44 59.9990000  0  8G24G30G 4G 5G10G 7G 6G 9
  20149449.313    -1392389.94044  -1080392.18242  20149451.139    20149448.941
  22541925.240    -9211732.17743  -7122347.87242  22541927.869    22541926.154
  21394786.077     5170622.79943   4026703.23242  21394788.395    21394785.583
  20435768.132    -5573368.71144  -4331165.92642  20435769.733    20435767.372
  23884659.373    -2562864.24143  -1940677.27242  23884661.405    23884663.956
  23781646.229     6504981.93043   5059863.18942  23781647.411    23781647.478
  24421779.842    -3211797.35043  -2154154.77342  24421782.155    24421783.515
  21738613.527     5164614.71643   4021344.60142  21738615.400    21738613.905
 03  3 25 17 45 29.9990000  0  8G24G30G 4G 5G10G 7G 6G 9
  20151254.275    -1382904.99144  -1073001.33642  20151256.090    20151253.898
  22524172.725    -9305022.18743  -7195041.34942  22524175.333    22524173.606
  21409038.837     5245521.47443   4085065.78042  21409041.144    21409038.356
  20426760.981    -5620701.62544  -4368048.72042  20426762.616    20426760.212
  23865812.068    -2661906.77743  -2017853.10542  23865814.127    23865816.586
  23794749.729     6573840.99543   5113519.49942  23794750.909    23794751.012
  24407941.989    -3284515.63943  -2210818.29242  24407944.312    24407945.590
  21752786.012     5239091.32643   4079378.25342  21752787.899    21752786.419
 03  3 25 17 45 59.9990000  0  8G24G30G 4G 5G10G 7G 6G 9
  20153159.795    -1372891.41344  -1065198.56342  20153161.625    20153159.424
  22506442.996    -9398192.08843  -7267641.23842  22506445.607    22506443.915
  21423361.486     5320787.47843   4143714.56842  21423363.787    21423361.035
  20417822.224    -5667675.20944  -4404651.51542  20417823.838    20417821.431
  23846962.905    -2760959.94843  -2095037.25642  23846964.869    23846967.245
  23807856.442     6642716.37743   5167188.51642  23807857.548    23807857.653
  24394114.894    -3357177.05143  -2267437.48742  24394117.207    24394118.565
  21767027.005     5313927.94443   4137692.43042  21767028.899    21767027.426
 03  3 25 17 46 29.9990000  0  8G24G30G 4G 5G10G 7G 6G 9
  20155166.695    -1362345.14444  -1056980.71042  20155168.538    20155166.345
  22488737.518    -9491234.72043  -7340141.94942  22488740.128    22488738.459
  21437754.494     5396423.24943   4202651.48442  21437756.773    21437754.092
  20408953.162    -5714282.39244  -4440968.80142  20408954.796    20408952.353
  23828113.254    -2860015.03543  -2172222.92842  23828115.131    23828117.497
  23820967.221     6711613.21943   5220874.25442  23820968.355    23820968.518
  24380299.609    -3429776.54943  -2324008.43842  24380301.922    24380303.284
  21781336.984     5389127.01743   4196289.03742  21781338.881    21781337.444
 03  3 25 17 46 59.9990000  0  8G24G30G 4G 5G10G 7G 6G 9
  20157274.079    -1351270.85944  -1048351.41542  20157275.898    20157273.724
  22471056.023    -9584151.57043  -7412544.65942  22471058.567    22471056.939
  21452216.681     5472422.44543   4261871.58842  21452218.954    21452216.309
  20400153.532    -5760524.71944  -4477001.78842  20400155.148    20400152.707
  23809263.088    -2959072.66743  -2249410.60542  23809264.950    23809267.311
  23834081.339     6780528.10243   5274574.04742  23834082.518    23834082.735
  24366495.405    -3502317.57143  -2380533.83942  24366497.666    24366499.099
  21795714.697     5464682.08543   4255163.05042  21795716.615    21795715.175
 03  3 25 17 47 29.9990000  0  8G24G30G 4G 5G10G 7G 6G 9
  20159483.207    -1339661.71144  -1039305.34542  20159485.053    20159482.873
  22453400.370    -9676932.49443  -7484841.44842  22453402.925    22453401.234
  21466749.088     5548790.61343   4321379.20842  21466751.353    21466748.759
  20391425.218    -5806392.31544  -4512742.77942  20391426.834    20391424.386
  23790414.566    -3058121.84043  -2326591.70642  23790416.421    23790418.783
  23847200.515     6849469.06743   5328294.16042  23847201.649    23847201.987
  24352703.799    -3574792.14243  -2437007.43942  24352706.077    24352707.567
  21810161.134     5540598.24843   4314318.43642  21810163.063    21810161.604
 03  3 25 17 47 59.9990000  0  8G24G30G 4G 5G10G 7G 6G 9
  20161792.811    -1327524.80844  -1029848.03842  20161794.645    20161792.453
  22435769.716    -9769581.94843  -7557035.78342  22435772.281    22435770.558
  21481349.939     5625518.55143   4381167.15642  21481352.201    21481349.667
  20382767.337    -5851889.70444  -4548195.29042  20382768.945    20382766.515
  23771567.131    -3157165.98643  -2403768.90942  23771568.854    23771571.158
  23860323.373     6918429.69843   5382029.59742  23860324.478    23860324.823
  24338923.585    -3647206.90143  -2493434.44942  24338925.894    24338927.491
  21824674.569     5616866.49743   4373748.17842  21824676.484    21824675.014
 03  3 25 17 48 29.9990000  0  8G24G30G 4G 5G10G 7G 6G 9
  20164203.572    -1314856.23444  -1019976.44142  20164205.408    20164203.197
  22418165.496    -9862092.33543  -7629121.76142  22418168.056    22418166.335
  21496019.800     5702608.97043   4441237.56342  21496022.058    21496019.548
  20374181.392    -5897009.28844  -4583353.40642  20374182.982    20374180.550
  23752722.358    -3256196.28143  -2480935.32742  23752723.988    23752726.184
  23873450.972     6987415.42643   5435784.59242  23873452.105    23873452.424
  24325155.822    -3719556.51443  -2549810.68442  24325158.033    24325159.662
  21839255.381     5693488.92843   4433453.90042  21839257.308    21839255.825
 03  3 25 17 48 59.9990000  0  8G24G30G 4G 5G10G 7G 6G 9
  20166713.737    -1301665.28944  -1009697.80342  20166715.574    20166713.345
  22400586.592    -9954470.02843  -7701104.34842  22400589.140    22400587.350
  21510756.550     5780050.89543   4501581.87742  21510758.805    21510756.311
  20365666.038    -5941757.64344  -4618222.25442  20365667.646    20365665.223
  23733879.086    -3355217.99543  -2558095.06742  23733880.712    23733882.871
  23886581.675     7056417.97943   5489552.69842  23886582.882    23886583.294
  24311398.825    -3791849.56043  -2606142.83642  24311401.043    24311402.659
  21853901.529     5770454.74243   4493427.19042  21853903.466    21853902.002
 03  3 25 17 49 29.9990000  0  8G24G30G 4G 5G10G 7G 6G 9
  20169324.953    -1287943.49444   -999005.51542  20169326.769    20169324.524
  22383035.170   -10046703.19043  -7772974.30842  22383037.780    22383035.933
  21525561.565     5857851.47943   4562205.64942  21525563.798    21525561.276
  20357223.549    -5986123.25044  -4652792.85742  20357225.131    20357222.741
  23715040.020    -3454218.22443  -2635238.05142  23715041.602    23715043.682
  23899717.575     7125447.16843   5543341.56442  23899718.797    23899719.289
  24297654.473    -3864076.22143  -2662423.27542  24297656.730    24297658.275
  21868614.395     5847771.01643   4553673.56842  21868616.314    21868614.857
 03  3 25 17 49 59.9990000  0  8G24G30G 4G 5G10G 7G 6G 9
  20172036.456    -1273694.55644   -987902.46442  20172038.275    20172036.023
  22365511.190   -10138792.19843  -7844731.94042  22365513.794    22365511.932
  21540433.829     5936005.41443   4623104.77142  21540436.021    21540433.497
  20348853.761    -6030106.73144  -4687065.69542  20348855.357    20348852.972
  23696205.129    -3553196.34543  -2712363.80942  23696206.749    23696208.722
  23912858.049     7194500.46843   5597149.20942  23912859.269    23912859.807
  24283922.257    -3936239.14943  -2718654.03942  24283924.544    24283926.113
  21883392.870     5925432.05543   4614188.59542  21883394.787    21883393.362
 03  3 25 17 50 29.9990000  0  8G24G30G 4G 5G10G 7G 6G 9
  20174845.612    -1258932.38944   -976399.49642  20174847.440    20174845.204
  22348012.520   -10230747.71943  -7916385.54342  22348015.172    22348013.362
  21555370.334     6014497.02943   4684267.01942  21555372.534    21555369.951
  20340554.568    -6073719.14744  -4721049.39442  20340556.165    20340553.800
  23677372.635    -3652162.04243  -2789479.87542  23677374.237    23677376.101
  23926000.663     7263565.05243   5650965.65642  23926001.916    23926002.397
  24270199.722    -4008351.27943  -2774845.22742  24270202.133    24270203.535
  21898233.922     6003422.16443   4674960.03642  21898235.857    21898234.484
 03  3 25 17 50 59.9990000  0  8G24G30G 4G 5G10G 7G 6G 9
  20177754.893    -1243643.94344   -964486.43742  20177756.748    20177754.550
  22330542.406   -10322553.63343  -7987922.55942  22330545.045    22330543.294
  21570373.334     6093338.02743   4745701.51742  21570375.565    21570372.905
  20332329.087    -6116944.27244  -4754731.31342  20332330.691    20332328.327
  23658545.716    -3751098.06843  -2866572.82742  23658547.310    23658549.167
  23939148.158     7332655.09243   5704801.93942  23939149.419    23939150.031
  24256489.543    -4080398.69843  -2830986.00142  24256491.890    24256493.224
  21913139.750     6081752.64343   4735996.69442  21913141.673    21913140.377
 03  3 25 17 51 29.9990000  0  8G24G30G 4G 5G10G 7G 6G 9
  20180762.578    -1227838.46444   -952170.49342  20180764.441    20180762.270
  22313099.800   -10414215.19843  -8059347.12442  22313102.441    22313100.708
  21585440.907     6172518.27443   4807400.36142  21585443.137    21585440.456
  20324176.262    -6159787.86144  -4788115.92742  20324177.856    20324175.441
  23639723.484    -3850008.78143  -2943646.04442  23639725.088    23639726.961
  23952299.104     7401763.31843   5758652.39242  23952300.381    23952300.951
  24242790.228    -4152389.02443  -2887082.28542  24242792.541    24242793.920
  21928108.389     6160413.26743   4797290.61742  21928110.318    21928109.082
 03  3 25 17 51 59.9990000  0  8G24G30G 4G 5G10G 7G 6G 9
  20183869.448    -1211511.88744   -939448.50042  20183871.307    20183869.135
  22295685.971   -10505725.37043  -8130653.70242  22295688.638    22295686.916
  21600573.431     6252039.92243   4869365.22642  21600575.675    21600572.972
  20316097.324    -6202242.96344  -4821197.82742  20316098.927    20316096.493
  23620907.698    -3948885.92243  -3020693.08342  23620909.266    23620911.161
  23965454.393     7470894.67243   5812520.87642  23965455.663    23965456.172
  24229102.728    -4224317.43743  -2943130.32142  24229104.994    24229106.306
  21943140.282     6239405.94143   4858843.26942  21943142.161    21943140.971
 03  3 25 17 52 29.9990000  0  8G24G30G 4G 5G10G 7G 6G 9
  20187074.541    -1194669.05944   -926324.23442  20187076.405    20187074.235
  22278300.674   -10597085.71443  -8201843.54442  22278303.341    22278301.629
  21615769.693     6331896.61943   4931591.18242  21615771.942    21615769.268
  20308091.984    -6244311.33044  -4853978.37442  20308093.611    20308091.146
  23602098.227    -4047730.19743  -3097714.49842  23602099.663    23602101.657
  23978613.493     7540045.61043   5866404.62542  23978614.679    23978615.277
  24215426.269    -4296187.51343  -2999132.91242  24215428.539    24215429.828
  21958234.146     6318724.47843   4920649.83742  21958236.031    21958234.842
 03  3 25 17 52 59.9990000  0  8G24G30G 4G 5G10G 7G 6G 9
  20190378.999    -1177303.91844   -912792.96942  20190380.865    20190378.762
  22260945.757   -10688286.23143  -8272908.84042  22260948.446    22260946.774
  21631030.728     6412093.55543   4994082.24342  21631032.939    21631030.281
  20300162.104    -6285983.32344  -4886450.05642  20300163.712    20300161.247
  23583296.998    -4146530.66643  -3174701.77642  23583298.485    23583300.440
  23991777.781     7609223.85843   5920309.65942  23991779.050    23991779.612
  24201762.366    -4367991.73243  -3055084.17742  24201764.568    24201765.887
  21973390.886     6398373.43543   4982713.87942  21973392.746    21973391.618
 03  3 25 17 53 29.9990000  0  8G24G30G 4G 5G10G 7G 6G 9
  20193780.302    -1159430.07244   -898865.31442  20193782.139    20193780.079
  22243619.328   -10779337.25943  -8343857.65742  22243622.014    22243620.349
  21646353.574     6492615.49343   5056826.55742  21646355.793    21646353.182
  20292305.671    -6327269.39044  -4918621.02442  20292307.270    20292304.764
  23564502.436    -4245296.29843  -3251661.90242  23564504.008    23564505.953
  24004944.854     7678417.11143   5974226.37142  24004946.250    24004946.797
  24188108.595    -4439742.51343  -3110993.79242  24188110.762    24188112.047
  21988607.575     6478337.47043   5045023.43242  21988609.445    21988608.322
 03  3 25 17 53 59.9990000  0  8G24G30G 4G 5G10G 7G 6G 9
  20197280.029    -1141038.98744   -884534.61742  20197281.875    20197279.809
  22226323.589   -10870226.85243  -8414680.66242  22226326.329    22226324.673
  21661739.635     6573469.57543   5119829.69142  21661741.860    21661739.272
  20284524.815    -6368158.14944  -4950482.39742  20284526.427    20284523.899
  23545716.983    -4344014.30343  -3328584.92042  23545718.480    23545720.441
  24018116.739     7747635.25943   6028162.49342  24018118.093    24018118.620
  24174466.796    -4511430.35143  -3166854.37642  24174469.002    24174470.333
  22003885.494     6558623.22143   5107583.68242  22003887.374    22003886.255
 03  3 25 17 54 29.9990000  0  8G24G30G 4G 5G10G 7G 6G 9
  20200878.583    -1122128.52044   -869799.21042  20200880.432    20200878.387
  22209059.701   -10960949.09643  -8485373.28442  22209062.387    22209060.816
  21677189.079     6654656.61243   5183092.26542  21677191.314    21677188.705
  20276820.653    -6408643.91144  -4982029.75342  20276822.262    20276819.731
  23526941.880    -4442677.58243  -3405465.28642  23526943.442    23526945.338
  24031294.014     7816882.12543   6082120.98042  24031295.424    24031295.871
  24160837.696    -4583051.59943  -3222663.06842  24160839.951    24160841.288
  22019224.844     6639231.67243   5170395.37242  22019226.719    22019225.597
 03  3 25 17 54 59.9990000  0  8G24G30G 4G 5G10G 7G 6G 9
  20204575.099    -1102703.23844   -854662.64742  20204576.951    20204574.905
  22191827.446   -11051505.16743  -8555936.41042  22191830.129    22191828.520
  21692700.822     6736171.05243   5246609.95642  21692703.058    21692700.434
  20269192.846    -6448728.37044  -5013264.40442  20269194.438    20269191.911
  23508177.210    -4541286.27543  -3482303.12142  23508178.831    23508180.673
  24044476.197     7886154.33643   6136099.22342  24044477.494    24044478.069
  24147220.547    -4654609.54443  -3278422.43542  24147222.904    24147224.291
  22034624.454     6720156.80543   5233453.82342  22034626.345    22034625.225
 03  3 25 17 55 29.9990000  0  8G24G30G 4G 5G10G 7G 6G 9
  20208367.233    -1082775.46344   -839134.53242  20208369.113    20208367.067
  22174625.078   -11141903.98943  -8626377.00442  22174627.763    22174626.159
  21708272.125     6817998.62943   5310371.65342  21708274.363    21708271.789
  20261639.665    -6488420.51944  -5044193.35142  20261641.251    20261638.782
  23489421.392    -4639848.26043  -3559104.55942  23489422.991    23489424.884
  24057661.167     7955440.91843   6190088.65942  24057662.338    24057663.050
  24133613.338    -4726115.37043  -3334141.19842  24133615.720    24133617.160
  22050081.713     6801384.71943   5296748.21842  22050083.596    22050082.453
 03  3 25 17 55 59.9990000  0  8G24G30G 4G 5G10G 7G 6G 9
  20212254.999    -1062345.27944   -823214.93142  20212256.872    20212254.808
  22157453.315   -11232142.16043  -8696692.42142  22157456.020    22157454.387
  21723902.737     6900137.99643   5374376.29242  21723904.998    21723902.452
  20254161.744    -6527717.34244  -5074814.25742  20254163.320    20254160.866
  23470675.230    -4738359.44843  -3635866.40842  23470676.828    23470678.689
  24070849.049     8024743.10643   6244090.25642  24070850.114    24070850.967
  24120016.287    -4797568.05643  -3389818.54942  24120018.721    24120020.111
  22065596.129     6882913.10443   5360276.73942  22065598.016    22065596.882
 03  3 25 17 56 29.9990000  0  8G24G30G 4G 5G10G 7G 6G 9
  20216240.543    -1041401.19744   -806894.89042  20216242.419    20216240.357
  22140315.059   -11322204.31643  -8766870.67142  22140317.714    22140316.134
  21739594.739     6982599.82243   5438632.20242  21739596.997    21739594.483
  20246761.872    -6566603.80944  -5105115.39642  20246763.502    20246761.059
  23451941.898    -4836802.92943  -3712575.51342  23451943.457    23451945.489
  24084042.388     8094074.33643   6298114.47842  24084043.477    24084044.195
  24106431.890    -4868954.45843  -3445444.26242  24106434.305    24106435.635
  22081169.765     6964752.60343   5424047.68742  22081171.651    22081170.524
 03  3 25 17 56 59.9990000  0  8G24G30G 4G 5G10G 7G 6G 9
  20220323.278    -1019946.50344   -790176.96842  20220325.139    20220323.060
  22123210.346   -11412090.05943  -8836911.46642  22123212.969    22123211.405
  21755347.212     7065379.37343   5503135.68742  21755349.428    21755346.975
  20239440.073    -6605080.07344  -5135096.90342  20239441.723    20239439.272
  23433221.663    -4935177.59943  -3789230.97442  23433223.250    23433225.331
  24097240.920     8163432.75043   6352159.87542  24097241.993    24097242.547
  24092859.770    -4940276.64843  -3501019.93242  24092862.051    24092863.447
  22096801.667     7046898.42943   5488057.33442  22096803.562    22096802.445
 03  3 25 17 57 29.9990000  0  8G24G30G 4G 5G10G 7G 6G 9
  20224500.687     -997994.09744   -773071.21942  20224502.572    20224500.468
  22106137.393   -11501808.77143  -8906822.10842  22106139.995    22106138.435
  21771157.444     7148462.51543   5567875.73542  21771159.649    21771157.214
  20232194.519    -6643155.80844  -5164766.31242  20232196.152    20232193.711
  23414512.932    -5033491.91343  -3865839.43342  23414514.520    23414516.653
  24110442.464     8232807.06343   6406217.67542  24110443.490    24110444.097
  24079297.540    -5011546.29443  -3556554.65442  24079299.858    24079301.217
  22112489.125     7129336.08343   5552294.37542  22112490.986    22112489.918
 03  3 25 17 57 59.9990000  0  8G24G30G 4G 5G10G 7G 6G 9
  20228773.802     -975538.82544   -755573.62342  20228775.687    20228773.587
  22089097.964   -11591351.68943  -8976595.76742  22089100.485    22089098.935
  21787026.189     7231853.00243   5632855.27542  21787028.374    21787025.962
  20225026.708    -6680822.81544  -5194117.22642  20225028.358    20225025.917
  23395817.633    -5131736.08443  -3942393.22242  23395819.189    23395821.317
  24123648.361     8302203.70243   6460292.85842  24123649.420    24123649.979
  24065746.535    -5082756.89743  -3612043.36842  24065748.897    24065750.239
  22128232.709     7212068.95643   5616761.46942  22128234.573    22128233.548
 03  3 25 17 58 29.9990000  0  8G24G30G 4G 5G10G 7G 6G 9
  20233143.215     -952577.58844   -737681.77142  20233145.114    20233142.960
  22072093.270   -11680711.82643  -9046226.99442  22072095.797    22072094.205
  21802953.817     7315552.92443   5698075.93142  21802956.013    21802953.581
  20217937.963    -6718074.36844  -5223144.40942  20217939.595    20217937.196
  23377137.291    -5229901.87743  -4018885.95842  23377138.790    23377140.834
  24136859.431     8371627.64343   6514389.31742  24136860.536    24136861.198
  24052207.674    -5153903.81343  -3667482.46542  24052210.005    24052211.366
  22144032.876     7295099.04743   5681460.16242  22144034.729    22144033.715
 03  3 25 17 58 59.9990000  0  8G24G30G 4G 5G10G 7G 6G 9
  20237607.446     -929117.99344   -719401.58642  20237609.344    20237607.150
  22055122.594   -11769893.11743  -9115718.85942  22055125.136    22055123.520
  21818938.647     7399553.43943   5763530.81742  21818940.871    21818938.402
  20210927.459    -6754914.93444  -5251851.34142  20210929.078    20210926.683
  23358471.299    -5327992.17543  -4095319.87242  23358472.826    23358474.782
  24150074.618     8441072.66943   6568502.19342  24150075.720    24150076.139
  24038679.709    -5224993.32743  -3722876.80742  24038682.032    24038683.403
  22159887.813     7378416.98743   5746383.15342  22159889.674    22159888.673
 03  3 25 17 59 29.9990000  0  8G24G30G 4G 5G10G 7G 6G 9
  20242165.906     -905163.15844   -700735.49542  20242167.791    20242165.606
  22038186.081   -11858894.80343  -9185070.77342  22038188.655    22038186.988
  21834979.876     7483850.50943   5829216.77942  21834982.146    21834979.671
  20203995.220    -6791344.08144  -5280237.69442  20203996.853    20203994.430
  23339819.927    -5426005.52343  -4171693.80742  23339821.507    23339823.357
  24163293.482     8510537.54143   6622630.53442  24163294.515    24163294.872
  24025162.344    -5296027.04243  -3778227.68142  24025164.641    24025166.039
  22175796.772     7462018.68543   5811527.25242  22175798.618    22175797.642
 03  3 25 17 59 59.9990000  0  8G24G30G 4G 5G10G 7G 6G 9
  20246817.960     -880716.46044   -681686.13842  20246819.856    20246817.696
  22021283.777   -11947716.78243  -9254282.65542  22021286.379    22021284.639
  21851076.639     7568439.23843   5895130.01742  21851078.922    21851076.420
  20197141.177    -6827362.32744  -5308303.85642  20197142.823    20197140.364
  23321183.432    -5523940.53543  -4248006.73542  23321185.039    23321186.914
  24176515.703     8580020.35743   6676772.87042  24176516.795    24176517.179
  24011655.196    -5367007.13343  -3833536.77042  24011657.480    24011658.925
  22191758.703     7545898.99943   5876888.45542  22191760.563    22191759.607
 03  3 25 18  0 29.9990000  0  8G24G30G 4G 5G10G 7G 6G 9
  20251565.726     -855766.82744   -662244.87942  20251567.609    20251565.478
  22004418.592   -12036343.86943  -9323342.67342  22004421.200    22004419.407
  21867230.870     7653329.90743   5961278.53342  21867233.101    21867230.650
  20190368.109    -6862955.15544  -5336038.52842  20190369.752    20190367.270
  23302564.921    -5621780.93043  -4324245.93242  23302566.573    23302568.416
  24189743.840     8649534.00643   6730939.22142  24189744.799    24189745.405
  23998160.623    -5437920.98943  -3888794.24342  23998162.901    23998164.421
  22207775.553     7630067.74543   5942474.40842  22207777.410    22207776.441
 03  3 25 18  0 59.9990000  0  8G24G30G 4G 5G10G 7G 6G 9
  20256408.647     -830317.04744   -642413.89642  20256410.538    20256408.446
  21987590.596   -12124775.49943  -9392250.39642  21987593.237    21987591.378
  21883441.720     7738518.17443   6027658.93642  21883443.930    21883441.536
  20183676.064    -6898122.17044  -5363441.40142  20183677.711    20183675.209
  23283964.848    -5719524.93843  -4400410.03042  23283966.403    23283968.193
  24202977.547     8719077.08543   6785128.51342  24202978.526    24202978.992
  23984678.337    -5508770.17243  -3944001.32842  23984680.658    23984682.205
  22223846.466     7714520.51843   6008281.69242  22223848.291    22223847.322
 03  3 25 18  1 29.9990000  0  8G24G30G 4G 5G10G 7G 6G 9
  20261344.063     -804381.42244   -622204.32842  20261345.932    20261343.858
  21970797.943   -12213021.43143  -9461013.41342  21970800.607    21970798.649
  21899706.358     7823989.11143   6094259.60842  21899708.559    21899706.194
  20177063.038    -6932873.86344  -5390520.64542  20177064.699    20177062.157
  23265381.377    -5817181.69243  -4476506.14042  23265382.984    23265384.634
  24216214.517     8788637.49543   6839331.31142  24216215.497    24216216.187
  23971206.039    -5579566.91443  -3999167.52542  23971208.383    23971210.056
  22239968.459     7799241.89643   6074298.26642  22239970.264    22239969.307
 03  3 25 18  1 59.9990000  0  8G24G30G 4G 5G10G 7G 6G 9
  20266372.880     -777954.94044   -601612.27842  20266374.756    20266372.665
  21954042.234   -12301073.15043  -9529625.09342  21954044.942    21954042.873
  21916025.464     7909746.42743   6161083.42242  21916027.690    21916025.333
  20170530.620    -6967202.12244  -5417269.94242  20170532.252    20170529.705
  23246816.366    -5914741.44343  -4552526.67442  23246817.933    23246819.567
  24229456.116     8858221.76143   6893552.67942  24229457.182    24229457.720
  23957744.991    -5650304.97443  -4054288.01342  23957747.276    23957748.950
  22256142.227     7884235.49643   6140526.97442  22256144.063    22256143.101
 03  3 25 18  2 29.9990000  0  8G24G30G 4G 5G10G 7G 6G 9
  20271495.781     -751033.99744   -580634.93242  20271497.665    20271495.583
  21937324.908   -12388923.21643  -9598079.64842  21937327.630    21937325.473
  21932399.561     7995792.60043   6228132.32542  21932401.760    21932399.483
  20164080.103    -7001099.96344  -5443683.84942  20164081.711    20164079.178
  23228271.346    -6012195.82743  -4628465.10542  23228273.009    23228274.578
  24242703.288     8927835.17043   6947796.76642  24242704.280    24242704.963
  23944296.090    -5720979.24743  -4109358.79542  23944298.354    23944299.995
  22272368.232     7969503.50543   6206969.50842  22272370.088    22272369.128
 03  3 25 18  2 59.9990000  0  8G24G30G 4G 5G10G 7G 6G 9
  20276709.171     -723637.52344   -559287.03942  20276711.059    20276708.962
  21920643.149   -12476586.34643  -9666388.53842  21920645.891    21920643.616
  21948824.880     8082108.00043   6295391.01742  21948827.082    21948824.821
  20157708.574    -7034582.65744  -5469774.26542  20157710.187    20157707.645
  23209743.784    -6109558.50443  -4704332.07442  23209745.413    23209747.031
  24255952.836     8997460.87843   7002050.43142  24255953.769    24255954.349
  23930855.945    -5791606.95743  -4164393.28342  23930858.240    23930860.002
  22288642.657     8055025.80443   6273610.18642  22288644.518    22288643.579
 03  3 25 18  3 29.9990000  0  8G24G30G 4G 5G10G 7G 6G 9
  20282014.408     -695758.35744   -537563.02642  20282016.290    20282014.215
  21903998.968   -12564051.83543  -9734543.41942  21904001.735    21903999.373
  21965302.526     8168698.36243   6362863.95742  21965304.716    21965302.456
  20151417.932    -7067640.22044  -5495533.41042  20151419.547    20151417.001
  23191235.912    -6206818.02443  -4780118.65142  23191237.512    23191239.086
  24269206.324     9067107.30943   7056320.23142  24269207.254    24269207.848
  23917426.373    -5862179.81743  -4219385.03542  23917428.607    23917430.371
  22304966.488     8140807.85143   6340453.26442  22304968.365    22304967.456
 03  3 25 18  3 59.9990000  0  8G24G30G 4G 5G10G 7G 6G 9
  20287413.318     -667386.98544   -515455.47542  20287415.196    20287413.110
  21887395.007   -12651306.16843  -9802533.76942  21887397.719    21887395.280
  21981834.138     8255572.38643   6430557.93842  21981836.316    21981834.064
  20145210.648    -7100259.62744  -5520951.13342  20145212.289    20145209.741
  23172750.512    -6303959.62243  -4855813.37442  23172752.043    23172753.562
  24282465.750     9136785.81243   7110615.03042  24282466.643    24282467.509
  23904009.289    -5932686.70143  -4274325.39342  23904011.546    23904013.278
  22321341.372     8226857.95843   6407505.22742  22321343.225    22321342.311
 03  3 25 18  4 29.9990000  0  8G24G30G 4G 5G10G 7G 6G 9
  20292905.025     -638527.96244   -492967.93842  20292906.915    20292904.795
  21870831.089   -12738350.09343  -9870360.17542  21870833.756    21870831.261
  21998418.592     8342724.11343   6498468.31442  21998420.780    21998418.522
  20139086.517    -7132442.24944  -5546028.50642  20139088.140    20139085.587
  23154287.544    -6400983.06543  -4931415.99542  23154289.050    23154290.547
  24295730.859     9206493.69343   7164932.70942  24295731.887    24295732.678
  23890604.146    -6003130.63543  -4329216.66442  23890606.411    23890608.120
  22337766.033     8313169.94843   6474761.25042  22337767.912    22337767.033
 03  3 25 18  4 59.9990000  0  8G24G30G 4G 5G10G 7G 6G 9
  20298488.875     -609184.85044   -470103.19142  20298490.743    20298488.617
  21854307.248   -12825183.10743  -9938022.21742  21854309.938    21854307.443
  22015055.024     8430149.05843   6566591.58442  22015057.219    22015054.978
  20133045.469    -7164188.30844  -5570765.70442  20133047.097    20133044.513
  23135847.347    -6497886.90143  -5006925.41842  23135848.859    23135850.289
  24309001.157     9276229.09143   7219271.84142  24309002.126    24309003.078
  23877210.646    -6073513.63043  -4384060.46742  23877212.945    23877214.527
  22354239.652     8399738.97943   6542217.56542  22354241.513    22354240.642
 03  3 25 18  5 29.9990000  0  8G24G30G 4G 5G10G 7G 6G 9
  20304161.171     -579376.67544   -446876.05442  20304163.053    20304160.930
  21837820.812   -12911819.88743 -10005531.36242  21837823.465    21837820.978
  22031739.787     8517827.79043   6634912.61342  22031741.972    22031739.727
  20127084.570    -7195513.07544  -5595174.62242  20127086.202    20127083.611
  23117427.362    -6594684.52343  -5082352.06842  23117428.904    23117430.328
  24322273.728     9345975.22943   7273619.33842  24322274.398    24322275.555
  23863825.503    -6143852.69843  -4438870.04442  23863827.802    23863829.352
  22370758.407     8486545.21043   6609858.71142  22370760.258    22370759.416
 03  3 25 18  5 59.9990000  0  7G24G30G 4G 5G10G 6G 9
  20309927.128     -549076.39144   -423265.45942  20309929.006    20309926.886
  21821377.583   -12998229.48143 -10072863.47542  21821380.260    21821377.764
  22048477.765     8605786.25543   6703451.62042  22048479.996    22048477.688
  20121209.654    -7226386.02544  -5619231.47942  20121211.283    20121208.678
  23099033.615    -6691344.16243  -5157671.20942  23099035.181    23099036.509
  23850454.157    -6214119.30543  -4493623.12642  23850456.493    23850458.013
  22387327.159     8573614.20243   6677704.60142  22387329.009    22387328.203
 03  3 25 18  6 29.9990000  0  7G24G30G 4G 5G10G 6G 9
  20315783.018     -518303.61144   -399286.68742  20315784.875    20315782.762
  21804974.596   -13084427.63243 -10140030.83142  21804977.275    21804974.797
  22065265.044     8694003.68543   6772192.41742  22065267.266    22065264.948
  20115417.575    -7256823.76044  -5642949.20742  20115419.160    20115416.594
  23080663.348    -6787880.52543  -5232894.30242  23080664.898    23080666.131
  23837093.194    -6284331.53743  -4548333.85842  23837095.477    23837096.983
  22403941.892     8660924.90443   6745738.82942  22403943.754    22403942.986
 03  3 25 18  6 59.9990000  0  7G24G30G 4G 5G10G 6G 9
  20321728.421     -487060.35744   -374941.31542  20321730.279    20321728.174
  21788612.237   -13170412.26343 -10207031.81542  21788614.947    21788612.475
  22082101.015     8782477.14743   6841132.72342  22082103.266    22082100.930
  20109708.609    -7286824.72644  -5666326.59842  20109710.182    20109707.605
  23062317.123    -6884290.57343  -5308018.96642  23062318.657    23062319.773
  23823742.473    -6354489.79143  -4603002.52942  23823744.806    23823746.159
  22420602.037     8748474.11143   6813958.91242  22420603.891    22420603.140
 03  3 25 18  7 29.9990000  0  7G24G30G 4G 5G10G 6G 9
  20327764.659     -455339.76444   -350223.98942  20327766.520    20327764.422
  21772292.686   -13256172.25743 -10273857.75342  21772295.370    21772292.874
  22098986.887     8871212.91643   6910277.41742  22098989.194    22098986.812
  20104084.707    -7316378.59544  -5689355.59742  20104086.300    20104083.695
  23043997.249    -6980562.10643  -5383035.69042  23043998.848    23043999.788
  23810403.631    -6424585.43743  -4657622.38542  23810405.978    23810407.290
  22437308.646     8836267.62643   6882369.36342  22437310.525    22437309.771
 03  3 25 18  7 59.9990000  0  7G24G30G 4G 5G10G 6G 9
  20333889.838     -423151.83744   -325142.50942  20333891.682    20333889.635
  21756014.672   -13341713.51343 -10340513.24442  21756017.413    21756014.944
  22115920.578     8960199.84643   6979617.83142  22115922.848    22115920.468
  20098544.596    -7345492.16944  -5712041.51342  20098546.216    20098543.572
  23025702.696    -7076700.15543  -5457948.41342  23025704.339    23025705.201
  23797075.098    -6494626.88843  -4712200.05242  23797077.483    23797078.697
  22454059.577     8924293.88743   6950961.17042  22454061.452    22454060.675
 03  3 25 18  8 29.9990000  0  7G24G30G 4G 5G10G 6G 9
  20340103.901     -390496.79244   -299697.04042  20340105.743    20340103.718
  21739778.992   -13427032.46643 -10406995.50942  21739781.763    21739779.313
  22132901.791     9049436.72643   7049153.00742  22132904.062    22132901.722
  20093088.844    -7374162.43144  -5734381.99042  20093090.463    20093087.817
  23007434.451    -7172700.06343  -5532753.48342  23007436.087    23007436.940
  23783757.182    -6564612.79343  -4766734.42442  23783759.468    23783760.715
  22470854.514     9012551.49843   7019733.26042  22470856.401    22470855.621
 03  3 25 18  8 59.9990000  0  7G24G30G 4G 5G10G 6G 9
  20346405.575     -357381.38144   -273892.84442  20346407.433    20346405.401
  21723585.138   -13512131.66643 -10473306.54542  21723587.914    21723585.475
  22149929.159     9138915.93143   7118877.00842  22149931.397    22149929.081
  20087716.799    -7402392.76244  -5756379.66042  20087718.430    20087715.810
  22989192.232    -7268563.56543  -5607452.27142  22989193.777    22989194.726
  23770448.783    -6634548.22743  -4821229.49842  23770451.039    23770452.273
  22487691.980     9101032.55643   7088679.46342  22487693.864    22487693.116
 03  3 25 18  9 29.9990000  0  7G24G30G 4G 5G10G 6G 9
  20352797.033     -323794.19844   -247721.03442  20352798.897    20352796.845
  21707436.146   -13596995.30443 -10539434.02842  21707438.920    21707436.475
  22167004.700     9228648.30643   7188798.28942  22167006.972    22167004.613
  20082431.331    -7430168.08244  -5778022.77642  20082432.955    20082430.381
  22970979.133    -7364273.68143  -5682031.51342  22970980.700    22970981.688
  23757152.630    -6704419.73743  -4875674.74342  23757154.876    23757155.965
  22504573.841     9189747.37943   7157807.81942  22504575.770    22504575.078
 03  3 25 18  9 59.9990000  0  7G24G30G 4G 5G10G 6G 9
  20359279.055     -289731.09944   -221178.38242  20359280.909    20359278.851
  21691333.519   -13681615.36843 -10605371.70942  21691336.258    21691333.821
  22184129.030     9318637.04943   7258919.33642  22184131.300    22184128.954
  20077233.840    -7457481.06144  -5799305.62242  20077235.464    20077232.905
  22952796.954    -7459821.51343  -5756484.30142  22952798.512    22952799.463
  23743869.690    -6774221.74343  -4930065.82042  23743871.841    23743872.954
  22521500.661     9278698.40143   7227120.22442  22521502.577    22521502.007
 03  3 25 18 10 29.9990000  0  7G24G30G 4G 5G10G 6G 9
  20365849.576     -255202.93044   -194273.33642  20365851.434    20365849.353
  21675275.981   -13765998.30843 -10671124.62442  21675278.708    21675276.279
  22201299.933     9408870.51043   7329231.07842  22201302.163    22201299.851
  20072122.962    -7484338.89944  -5820233.81642  20072124.575    20072122.035
  22934644.638    -7555212.38043  -5830814.79442  22934646.165    22934647.123
  23730598.246    -6843963.17943  -4984409.68642  23730600.520    23730601.389
  22538470.220     9367873.84943   7296607.49942  22538472.108    22538471.609
 03  3 25 18 10 59.9990000  0  7G24G30G 4G 5G10G 6G 9
  20372504.621     -220230.57444   -167022.17142  20372506.456    20372504.383
  21659260.348   -13850160.97943 -10736705.89542  21659263.045    21659260.646
  22218513.256     9499326.98943   7399716.59842  22218515.453    22218513.216
  20067095.310    -7510759.36544  -5840821.19842  20067096.925    20067094.412
  22916519.154    -7650462.03043  -5905035.21842  22916520.723    22916521.678
  23717334.657    -6913663.51443  -5038721.55442  23717336.972    23717337.766
  22555478.280     9457251.55643   7366252.37242  22555480.174    22555479.689
 03  3 25 18 11 29.9990000  0  7G24G30G 4G 5G10G 6G 9
  20379248.893     -184789.25044   -139405.57842  20379250.724    20379248.650
  21643292.169   -13934074.27243 -10802092.85742  21643294.872    21643292.473
  22235773.555     9590030.52143   7470394.63942  22235775.779    22235773.600
  20062156.314    -7536713.93544  -5861045.54542  20062157.925    20062155.438
  22898426.284    -7745540.37543  -5979122.16142  22898427.855    22898428.830
  23704083.933    -6983295.82643  -5092980.39442  23704086.217    23704087.153
  22572529.417     9546855.50843   7436073.54042  22572531.254    22572530.782
 03  3 25 18 11 59.9990000  0  7G24G30G 4G 5G10G 6G 9
  20386078.398     -148900.00244   -111439.94842  20386080.245    20386078.184
  21627368.231   -14017754.98343 -10867298.57142  21627370.930    21627368.544
  22253076.763     9680959.29543   7541248.17742  22253078.957    22253076.826
  20057302.613    -7562220.39744  -5880920.71842  20057304.215    20057301.716
  22880362.886    -7840463.69643  -6053088.28842  22880364.440    22880365.560
  23690842.468    -7052879.44943  -5147201.30942  23690844.799    23690845.686
  22589619.277     9636663.42343   7506053.65942  22589621.197    22589620.675
 03  3 25 18 12 29.9990000  0  7G24G30G 4G 5G10G 6G 9
  20392994.654     -112554.85244    -83119.07242  20392996.501    20392994.458
  21611490.924   -14101190.76743 -10932313.43742  21611493.600    21611491.246
  22270424.280     9772120.79743   7612283.06542  22270426.422    22270424.373
  20052536.375    -7587267.20644  -5900437.71542  20052537.996    20052535.476
  22862331.622    -7935218.23343  -6126922.89842  22862333.190    22862334.349
  23677612.233    -7122404.52243  -5201376.60142  23677614.540    23677615.534
  22606749.379     9726682.33543   7576198.17442  22606751.293    22606750.700
 03  3 25 18 12 59.9990000  0  7G24G30G 4G 5G10G 6G 9
  20399997.155      -75756.34744    -54444.93042  20399999.035    20399997.019
  21595660.555   -14184379.92143 -10997136.12642  21595663.197    21595660.861
  22287815.428     9863511.64443   7683496.67242  22287817.560    22287815.556
  20047857.765    -7611853.51344  -5919595.87942  20047859.400    20047856.873
  22844332.948    -8029801.51743  -6200624.06142  22844334.524    22844335.671
  23664392.993    -7191871.65543  -5255506.73742  23664395.320    23664396.262
  22623918.912     9816908.44043   7646504.14742  22623920.816    22623920.216
 03  3 25 18 13 29.9990000  0  7G24G30G 4G 5G10G 6G 9
  20407083.636      -38516.74544    -25427.07542  20407085.498    20407083.513
  21579875.504   -14267330.59043 -11061772.98542  21579878.199    21579875.819
  22305247.704     9955118.88043   7754878.89342  22305249.913    22305247.902
  20043265.026    -7635988.56544  -5938402.41842  20043266.652    20043264.118
  22826365.523    -8124220.62643  -6274197.29642  22826367.068    22826368.201
  23651182.695    -7261291.73343  -5309600.22042  23651184.925    23651185.952
  22641125.298     9907328.08643   7716960.92742  22641127.196    22641126.579
 03  3 25 18 13 59.9990000  0  7G24G30G 4G 5G10G 6G 9
  20414254.782        -832.23644      3937.45942  20414256.621    20414254.657
  21564137.361   -14350034.87343 -11126217.85842  21564140.059    21564137.623
  22322721.728    10046945.29943   7826431.88842  22322723.939    22322721.943
  20038759.522    -7659665.19244  -5956851.74142  20038761.156    20038758.584
  22808431.064    -8218466.59243  -6347635.62042  22808432.534    22808433.724
  23637982.487    -7330658.97843  -5363652.54342  23637984.580    23637985.841
  22658369.054     9997944.01143   7787570.64842  22658370.951    22658370.364
 03  3 25 18 14 29.9990000  0  7G24G30G 4G 5G10G 6G 9
  20421512.149       37305.36044     33655.04642  20421513.991    20421512.025
  21548448.546   -14432479.87243 -11190460.68742  21548451.243    21548448.799
  22340238.972    10138998.75043   7898161.80742  22340241.182    22340239.180
  20034343.492    -7682871.56244  -5974934.63042  20034345.121    20034342.551
  22790532.136    -8312525.61543  -6420928.25242  22790533.628    22790534.793
  23624794.266    -7399963.22243  -5417655.75742  23624796.301    23624797.641
  22675651.593    10088763.64943   7858339.10942  22675653.473    22675652.906
 03  3 25 18 14 59.9990000  0  7G24G30G 4G 5G10G 6G 9
  20428856.647       75900.77244     63729.37842  20428858.498    20428856.482
  21532810.812   -14514656.49143 -11254494.38442  21532813.512    21532811.035
  22357800.216    10231283.46743   7970071.92542  22357802.435    22357800.433
  20030018.522    -7705599.39544  -5992644.62842  20030020.154    20030017.612
  22772670.707    -8406387.65443  -6494067.40242  22772672.269    22772673.303
  23611619.261    -7469197.66543  -5471604.58942  23611621.283    23611622.670
  22692973.548    10179790.54143   7929269.05142  22692975.462    22692974.861
 03  3 25 18 15 29.9990000  0  7G24G30G 4G 5G10G 6G 9
  20436285.406      114939.06144     94148.80642  20436287.251    20436285.229
  21517222.023   -14596575.80843 -11318327.59242  21517224.743    21517222.255
  22375402.375    10323783.23243   8042149.61942  22375404.629    22375402.667
  20025782.319    -7727860.82944  -6009991.20542  20025783.958    20025781.409
  22754844.832    -8500062.83143  -6567060.94142  22754846.414    22754847.350
  23598455.044    -7538375.99043  -5525509.69142  23598457.066    23598458.332
  22710331.736    10271008.05743   8000347.54342  22710333.669    22710333.104
 03  3 25 18 15 59.9990000  0  7G24G30G 4G 5G10G 6G 9
  20443796.967      154412.53444    124907.33842  20443798.830    20443796.802
  21501681.625   -14678240.96143 -11381962.75242  21501684.325    21501681.846
  22393043.984    10416490.21443   8114388.77842  22393046.263    22393044.257
  20021634.104    -7749659.71844  -6026977.35242  20021635.761    20021633.202
  22737054.146    -8593553.16443  -6639910.45042  22737055.736    22737056.606
  23585300.560    -7607503.54443  -5579375.23342  23585302.557    23585303.828
  22727724.617    10362407.95743   8071568.14442  22727726.580    22727726.062
 03  3 25 18 16 29.9990000  0  7G24G30G 4G 5G10G 6G 9
  20451389.686      194312.34544    155998.07942  20451391.528    20451389.512
  21486188.760   -14759656.26543 -11445403.22042  21486191.484    21486188.995
  22410723.220    10509394.80343   8186781.91542  22410725.515    22410723.445
  20017572.855    -7771001.59344  -6043607.38542  20017574.533    20017572.002
  22719298.017    -8686862.14343  -6712618.64442  22719299.565    22719300.367
  23572154.287    -7676587.27743  -5633206.63042  23572156.466    23572157.593
  22745150.309    10453980.44843   8142923.24042  22745152.307    22745151.827
 03  3 25 18 16 59.9990000  0  7G24G30G 4G 5G10G 6G 9
  20459067.700      234660.50944    187438.18842  20459069.536    20459067.543
  21470748.463   -14840795.39743 -11508628.49542  21470751.170    21470748.722
  22428444.133    10602518.49743   8259345.78142  22428446.436    22428444.364
  20013603.446    -7791860.96144  -6059861.43742  20013605.126    20013602.609
  22701581.548    -8779962.49443  -6785164.27942  22701583.073    22701583.885
  23559020.941    -7745603.25543  -5686985.23042  23559023.188    23559024.165
  22762612.868    10545746.40243   8214429.08242  22762614.810    22762614.394
 03  3 25 18 17 29.9990000  0  7G24G30G 4G 5G10G 6G 9
  20466829.101      275446.87444    219219.75142  20466830.922    20466828.942
  21455359.575   -14921664.31943 -11571643.20842  21455362.282    21455359.855
  22446204.674    10695850.42743   8332071.90142  22446206.945    22446204.870
  20009724.589    -7812244.65844  -6075744.83542  20009726.236    20009723.716
  22683903.857    -8872859.10643  -6857551.15342  22683905.337    22683906.129
  23545898.868    -7814560.05443  -5740717.69442  23545901.107    23545902.045
  22780110.060    10637694.43643   8286076.81042  22780112.004    22780111.616
 03  3 25 18 17 59.9990000  0  7G24G30G 4G 5G10G 6G 9
  20474673.434      316669.04744    251340.90442  20474675.236    20474673.296
  21440022.532   -15002260.69143 -11634445.54342  21440025.204    21440022.883
  22464004.334    10789388.02843   8404958.28842  22464006.605    22464004.493
  20005936.437    -7832151.47444  -6091256.63942  20005938.118    20005935.591
  22666265.517    -8965548.75843  -6929776.76242  22666267.002    22666267.781
  23532788.125    -7883457.69443  -5794404.09642  23532790.397    23532791.144
  22797641.334    10729821.40643   8357863.96242  22797643.264    22797642.883
 03  3 25 18 18 29.9990000  0  7G24G30G 4G 5G10G 6G 9
  20482596.848      358306.93544    283785.99642  20482598.664    20482596.754
  21424734.276   -15082600.63843 -11697048.07542  21424736.911    21424734.685
  22481839.127    10883110.17443   8477988.47242  22481841.396    22481839.310
  20002235.806    -7851598.43444  -6106410.11442  20002237.470    20002234.972
  22648663.724    -9058046.30943  -7001852.69042  22648665.231    22648666.000
  23519685.108    -7952314.73843  -5848058.85142  23519687.411    23519687.965
  22815202.590    10822105.99643   8429773.92642  22815204.526    22815204.123
 03  3 25 18 18 59.9990000  0  7G24G30G 4G 5G10G 6G 9
  20490600.968      400368.76644    316561.42842  20490602.792    20490600.892
  21409497.260   -15162671.28543 -11759440.76642  21409499.836    21409497.675
  22499710.495    10977024.65243   8551168.53942  22499712.792    22499710.701
  19998624.887    -7870573.99144  -6121196.26542  19998626.547    19998624.059
  22631101.065    -9150338.40243  -7073768.53042  22631102.563    22631103.321
  23506591.603    -8021120.97843  -5901674.00642  23506594.015    23506594.528
  22832795.146    10914555.24443   8501812.20742  22832797.051    22832796.748
 03  3 25 18 19 29.9990000  0  7G24G30G 4G 5G10G 6G 9
  20498685.962      442855.54044    349667.99142  20498687.775    20498685.873
  21394312.613   -15242466.99743 -11821619.21142  21394315.147    21394313.004
  22517618.687    11071132.30843   8624499.13242  22517620.955    22517618.847
  19995104.570    -7889073.35244  -6135611.35542  19995106.228    19995103.761
  22613578.783    -9242418.26943  -7145518.99042  22613580.292    22613581.027
  23493508.489    -8089872.92943  -5955246.88042  23493510.781    23493511.288
  22850419.060    11007169.45743   8573979.03242  22850420.960    22850420.747
 03  3 25 18 19 59.9990000  0  7G24G30G 4G 5G10G 6G 9
  20506854.826      485783.21544    383118.11242  20506856.669    20506854.724
  21379184.213   -15321967.36143 -11883567.52442  21379186.704    21379184.552
  22535566.511    11165448.42743   8697992.15642  22535568.774    22535566.663
  19991678.523    -7907077.39644  -6149640.48342  19991680.162    19991677.732
  22596100.983    -9334264.49043  -7217087.40442  22596102.492    22596103.186
  23480438.940    -8158552.83143  -6008763.59942  23480441.195    23480441.805
  22868077.167    11099963.54843   8646286.00942  22868079.100    22868078.986
 03  3 25 18 20 29.9990000  0  7G24G30G 4G 5G10G 6G 9
  20515104.869      529137.38244    416900.56642  20515106.706    20515104.764
  21364110.071   -15401182.36243 -11945293.47542  21364112.589    21364110.435
  22553551.176    11259958.07943   8771635.98942  22553553.423    22553551.294
  19988344.633    -7924597.11044  -6163292.21242  19988346.264    19988343.853
  22578665.855    -9425886.34643  -7288480.98242  22578667.393    22578668.008
  23467380.752    -8227173.04543  -6062233.78142  23467382.988    23467383.765
  22885766.638    11192922.18943   8718721.22242  22885768.542    22885768.561
 03  3 25 18 20 59.9990000  0  7G24G30G 4G 5G10G 6G 9
  20523433.969      572906.97844    451006.73142  20523435.825    20523433.832
  21349089.010   -15480118.52043 -12006802.14842  21349091.544    21349089.352
  22571570.508    11354649.94843   8845421.81542  22571572.779    22571570.588
  19985101.448    -7941640.16744  -6176572.52142  19985103.077    19985100.677
  22561272.419    -9517289.28843  -7359703.98442  22561273.946    22561274.519
  23454332.323    -8295742.58943  -6115664.50342  23454334.463    23454335.339
  22903485.217    11286033.65743   8791275.51342  22903487.138    22903487.172
 03  3 25 18 21 29.9990000  0  7G24G30G 4G 5G10G 6G 9
  20531841.142      617086.88944    485432.62342  20531842.999    20531840.996
  21334120.873   -15558776.60943 -12068094.14342  21334123.425    21334121.199
  22589623.322    11449518.03943   8919344.95842  22589625.635    22589623.440
  19981948.575    -7958208.53944  -6189482.94542  19981950.184    19981947.816
  22543920.708    -9608473.01743  -7430756.18542  22543922.230    22543922.703
  23441292.963    -8364264.75743  -6169058.33942  23441295.061    23441296.029
  22921231.722    11379291.62443   8863943.96642  22921233.641    22921233.651
 03  3 25 18 21 59.9990000  0  7G24G30G 4G 5G10G 6G 9
  20540325.630      661673.14744    520175.14542  20540327.506    20540325.492
  21319205.683   -15637156.44843 -12129169.31742  21319208.273    21319205.996
  22607708.853    11544557.99643   8993402.02442  22607711.216    22607708.971
  19978885.866    -7974303.21044  -6202024.25142  19978887.472    19978885.095
  22526610.885    -9699436.44943  -7501636.72242  22526612.455    22526612.833
  23428262.224    -8432741.78343  -6222416.96242  23428264.354    23428265.096
  22939005.085    11472690.80543   8936722.44242  22939007.007    22939006.974
 03  3 25 18 22 29.9990000  0  7G24G30G 4G 5G10G 6G 9
  20548892.084      706690.12544    555253.29442  20548893.957    20548891.958
  21304348.959   -15715229.10043 -12190005.12342  21304351.574    21304349.239
  22625831.636    11639793.78043   9067611.68242  22625834.029    22625831.772
  19975918.575    -7989896.43544  -6214174.81942  19975920.174    19975917.797
  22509348.669    -9790149.74743  -7572322.35942  22509350.224    22509350.625
  23415245.130    -8501146.96943  -6275719.60442  23415247.208    23415247.919
  22956809.779    11566254.66343   9009629.23142  22956811.683    22956811.670
 03  3 25 18 22 59.9990000  0  7G24G30G 4G 5G10G 6G 9
  20557534.399      752105.77344    590642.09642  20557536.282    20557534.287
  21289545.480   -15793022.05043 -12250622.97742  21289548.129    21289545.727
  22643985.482    11735192.75943   9141948.51142  22643987.879    22643985.667
  19973041.269    -8005016.89544  -6225956.99742  19973042.877    19973040.457
  22492129.004    -9880639.53243  -7642833.84542  22492130.590    22492130.935
  23402235.946    -8569510.54443  -6328989.84142  23402238.014    23402238.668
  22974639.534    11659950.19243   9082638.61842  22974641.376    22974641.446
 03  3 25 18 23 29.9990000  0  7G24G30G 4G 5G10G 6G 9
  20566254.269      797929.01044    626348.49942  20566256.132    20566254.168
  21274797.836   -15870521.48043 -12311012.11842  21274800.532    21274798.059
  22662172.097    11830763.94843   9216419.51742  22662174.472    22662172.337
  19970256.322    -8019651.90344  -6237360.90242  19970257.946    19970255.486
  22474954.679    -9970891.03143  -7713159.65542  22474956.202    22474956.619
  23389236.779    -8637821.04743  -6382218.68842  23389238.899    23389239.473
  22992495.922    11753785.80943   9155757.18042  22992497.747    22992497.884
 03  3 25 18 23 59.9990000  0  7G24G30G 4G 5G10G 6G 9
  20575052.732      844165.17844    662376.66342  20575054.590    20575052.626
  21260107.960   -15947717.64143 -12371164.95542  21260110.648    21260108.086
  22680392.391    11926512.31343   9291028.59142  22680394.786    22680392.709
  19967565.404    -8033792.82744  -6248379.80142  19967567.036    19967564.563
  22457827.717   -10060893.46243  -7783291.38642  22457829.256    22457829.739
  23376249.197    -8706071.23743  -6435400.57942  23376251.407    23376251.767
  23010379.833    11847765.78743   9228988.21842  23010381.608    23010381.815
 03  3 25 18 24 29.9990000  0  7G24G30G 4G 5G10G 6G 9
  20583928.752      890808.93844    698722.43142  20583930.612    20583928.665
  21245475.611   -16024611.41243 -12431082.14742  21245478.258    21245475.634
  22698645.296    12022431.85843   9365771.04842  22698647.663    22698645.675
  19964968.140    -8047441.72944  -6259015.31342  19964969.753    19964967.276
  22440748.223   -10150646.60543  -7853228.88242  22440749.712    22440750.280
  23363272.392    -8774264.26543  -6488537.90742  23363274.627    23363274.990
  23028290.091    11941884.12843   9302327.05042  23028291.827    23028292.022
 03  3 25 18 24 59.9990000  0  7G24G30G 4G 5G10G 6G 9
  20592880.695      937851.61744    735379.04142  20592882.544    20592880.633
  21230900.026   -16101206.55343 -12490766.65142  21230902.715    21230900.023
  22716929.175    12118514.03443   9440640.22142  22716931.493    22716929.589
  19962463.492    -8060603.79544  -6269271.47142  19962465.105    19962462.642
  22423715.541   -10240153.71543  -7922974.64542  22423717.030    22423717.635
  23350305.292    -8842406.61043  -6541635.75742  23350307.524    23350307.873
  23046224.898    12036131.43243   9375766.38242  23046226.623    23046226.797
 03  3 25 18 25 29.9990000  0  7G24G30G 4G 5G10G 6G 9
  20601905.847      985278.92244    772335.35942  20601907.688    20601905.787
  21216379.340   -16177513.30143 -12550226.43242  21216382.013    21216379.306
  22735241.102    12214743.75743   9515624.36842  22735243.412    22735241.576
  19960049.286    -8073290.49344  -6279157.21242  19960050.895    19960048.469
  22406728.048   -10329423.54943  -7992535.54942  22406729.493    22406730.166
  23337345.352    -8910510.89843  -6594703.92842  23337347.602    23337348.051
  23064181.300    12130492.07043   9449294.02942  23064182.960    23064183.106
 03  3 25 18 25 59.9990000  0  7G24G30G 4G 5G10G 6G 9
  20611007.428     1033107.91844    809604.68142  20611009.274    20611007.358
  21201917.581   -16253510.11543 -12609444.69942  21201920.258    21201917.600
  22753584.230    12311137.37743   9590736.22242  22753586.519    22753584.751
  19957729.402    -8085481.65844  -6288656.81842  19957730.986    19957728.612
  22389789.938   -10418434.00143  -8061894.32142  22389791.361    22389792.034
  23324396.383    -8978558.06043  -6647727.60642  23324398.686    23324398.991
  23082162.301    12224982.21643   9522922.58442  23082163.979    23082164.080
 03  3 25 18 26 29.9990000  0  7G24G30G 4G 5G10G 6G 9
  20620188.030     1081352.09444    847197.52542  20620189.850    20620187.933
  21187518.294   -16329178.56443 -12668407.10142  21187520.957    21187518.367
  22771961.205    12407708.80243   9665986.62242  22771963.476    22771961.763
  19955507.004    -8097160.27144  -6297757.04142  19955508.587    19955506.272
  22372904.825   -10507165.79843  -8131035.95642  22372906.291    22372906.919
  23311461.240    -9046532.07043  -6700694.30142  23311463.670    23311463.926
  23100170.368    12319614.83843   9596662.16842  23100172.080    23100172.132
 03  3 25 18 26 59.9990000  0  7G24G30G 4G 5G10G 6G 9
  20629439.907     1129971.07344    885082.42142  20629441.759    20629439.814
  21173174.674   -16404554.63143 -12727141.67242  21173177.298    21173174.755
  22790364.212    12504416.90143   9741343.51042  22790366.497    22790364.758
  19953375.100    -8108363.34844  -6306486.71142  19953376.699    19953374.406
  22356066.069   -10595653.98943  -8199987.77042  22356067.552    22356068.155
  23298532.831    -9114471.33843  -6753633.92542  23298535.125    23298535.395
  23118197.641    12414348.47943   9670480.46142  23118199.394    23118199.444
 03  3 25 18 27 29.9990000  0  7G24G30G 4G 5G10G 6G 9
  20638769.237     1178996.77344    923284.24342  20638771.047    20638769.096
  21158893.637   -16479601.81943 -12785619.97342  21158896.256    21158893.743
  22808799.276    12601293.64743   9816831.80442  22808801.568    22808799.849
  19951340.460    -8119055.50344  -6314818.26542  19951342.049    19951339.758
  22339280.840   -10683860.85943  -8268720.37442  22339282.314    22339282.938
  23285617.485    -9182341.67543  -6806519.82242  23285619.740    23285619.922
  23136250.078    12509214.40143   9744401.81842  23136251.858    23136251.889
 03  3 25 18 27 59.9990000  0  7G24G30G 4G 5G10G 6G 9
  20648169.077     1228393.16544    961774.91842  20648170.880    20648168.919
  21144669.181   -16554351.72543 -12843866.62442  21144671.784    21144669.283
  22827259.489    12698302.44643   9892423.01842  22827261.764    22827260.089
  19949396.722    -8129269.99244  -6322777.60942  19949398.298    19949396.007
  22322543.288   -10771817.25543  -8337257.79142  22322544.747    22322545.367
  23272708.783    -9250177.37243  -6859378.72142  23272711.002    23272711.163
  23154320.632    12604175.40043   9818397.27042  23154322.369    23154322.447
 03  3 25 18 28 29.9990000  0  7G24G30G 4G 5G10G 6G 9
  20657640.872     1278167.81744   1000560.34042  20657642.696    20657640.709
  21130503.649   -16628791.86243 -12901871.89742  21130506.248    21130503.794
  22845746.271    12795450.78543   9968122.95442  22845748.552    22845746.886
  19947546.001    -8138995.61544  -6330356.02242  19947547.599    19947545.259
  22305855.914   -10859509.85843  -8405589.65042  22305857.348    22305857.935
  23259808.706    -9317968.18743  -6912202.67642  23259810.926    23259810.925
  23172410.643    12699238.72743   9892472.45742  23172412.411    23172412.489
 03  3 25 18 28 59.9990000  0  7G24G30G 4G 5G10G 6G 9
  20667190.263     1328350.06944   1039663.37542  20667192.070    20667190.086
  21116403.469   -16702888.63443 -12959609.61242  21116406.077    21116403.668
  22864265.116    12892767.53143  10043954.11242  22864267.392    22864265.724
  19945794.457    -8148200.17744  -6337528.41742  19945796.041    19945793.658
  22289225.279   -10946904.24943  -8473689.13042  22289226.710    22289227.294
  23246922.965    -9385683.01243  -6964967.38742  23246925.160    23246925.183
  23190525.481    12794432.25043   9966649.09642  23190527.225    23190527.306
 03  3 25 18 29 29.9990000  0  7G24G30G 4G 5G10G 6G 9
  20676810.257     1378903.30444   1079055.49042  20676812.040    20676810.059
  21102362.607   -16776673.94343 -13017104.62942  21102365.213    21102362.795
  22882808.981    12990215.87343  10119887.79642  22882811.274    22882809.538
  19944135.717    -8156916.96944  -6344320.72742  19944137.338    19944134.889
  22272645.501   -11034031.36343  -8541580.33342  22272646.913    22272647.504
  23234044.975    -9453356.25143  -7017699.68842  23234047.235    23234047.390
  23208658.010    12889718.74543  10040898.19342  23208659.743    23208659.881
 03  3 25 18 29 59.9990000  0  7G24G30G 4G 5G10G 6G 9
  20686501.137     1429829.07644   1118737.89042  20686502.919    20686500.945
  21088382.216   -16850141.53343 -13074352.08542  21088384.817    21088382.356
  22901378.129    13087797.29443  10195925.20442  22901380.458    22901378.733
  19942570.714    -8165141.05244  -6350729.11442  19942572.353    19942569.922
  22256117.967   -11120883.90543  -8609257.58842  22256119.375    22256120.038
  23221175.775    -9520984.06343  -7070396.60942  23221177.996    23221178.152
  23226808.348    12985099.04443  10115220.36742  23226810.124    23226810.310
 03  3 25 18 30 29.9990000  0  7G24G30G 4G 5G10G 6G 9
  20696264.263     1481134.62144   1158716.22442  20696266.072    20696264.088
  21074464.481   -16923279.58543 -13131342.74942  21074467.106    21074464.635
  22919973.945    13185518.77543  10272071.72142  22919976.225    22919974.483
  19941101.489    -8172862.03344  -6356745.46642  19941103.114    19941100.665
  22239645.103   -11207449.08543  -8676710.91442  22239646.532    22239647.218
  23208317.155    -9588556.93443  -7123050.71242  23208319.168    23208319.439
  23244977.928    13080579.99343  10189620.97442  23244979.722    23244979.872
 03  3 25 18 30 59.9990000  0  7G24G30G 4G 5G10G 6G 9
  20706097.018     1532806.01644   1198979.63642  20706098.858    20706096.857
  21060607.721   -16996097.13443 -13188083.66942  21060610.383    21060607.884
  22938593.840    13283366.43643  10348316.56242  22938596.087    22938594.329
  19939725.967    -8180090.53644  -6362378.07342  19939727.589    19939725.144
  22223225.355   -11293735.28043  -8743946.85042  22223226.800    22223227.483
  23195466.709    -9656086.36843  -7175670.95842  23195468.713    23195468.925
  23263163.831    13176146.79643  10264088.49342  23263165.694    23263165.840
 03  3 25 18 31 29.9990000  0  7G24G30G 4G 5G10G 6G 9
  20715998.961     1584840.93844   1239526.31742  20716000.788    20715998.794
  21046812.361   -17068592.20943 -13244573.31442  21046814.993    21046812.499
  22957237.184    13381337.56543  10424657.63442  22957239.438    22957237.646
  19938444.251    -8186826.06644  -6367626.54842  19938445.883    19938443.414
  22206859.287   -11379739.53143  -8810963.08642  22206860.782    22206861.398
  23182624.403    -9723572.86343  -7228257.75642  23182626.522    23182626.552
  23281365.400    13271796.11843  10338620.30142  23281367.305    23281367.490
 03  3 25 18 31 59.9990000  0  7G24G30G 4G 5G10G 6G 9
  20725973.234     1637255.99944   1280369.20742  20725975.068    20725973.068
  21033082.394   -17140743.55843 -13300795.12142  21033084.998    21033082.522
  22975907.178    13479448.62343  10501107.70942  22975909.409    22975907.631
  19937260.122    -8193048.85944  -6372475.48842  19937261.726    19937259.275
  22190551.081   -11465439.60543  -8877742.29542  22190552.602    22190553.134
  23169793.848    -9790997.60643  -7280796.40942  23169796.012    23169796.069
  23299585.716    13367543.89243  10413228.81042  23299587.589    23299587.904
 03  3 25 18 32 29.9990000  0  7G24G30G 4G 5G10G 6G 9
  20736018.489     1690044.24644   1321502.90042  20736020.342    20736018.365
  21019417.373   -17212553.52943 -13356750.91942  21019419.983    21019417.489
  22994602.392    13577692.34643  10577661.17442  22994604.621    22994602.853
  19936172.828    -8198762.62944  -6376927.78742  19936174.428    19936171.999
  22174300.401   -11550837.28743  -8944285.86042  22174301.946    22174302.441
  23156974.125    -9858365.30443  -7333290.62942  23156976.361    23156976.377
  23317823.273    13463382.18843  10487907.87842  23317825.085    23317825.514
 03  3 25 18 32 59.9990000  0  7G24G30G 4G 5G10G 6G 9
  20746131.408     1743187.90544   1362913.53442  20746133.261    20746131.286
  21005814.833   -17284035.28143 -13412450.96142  21005817.435    21005814.926
  23013319.522    13676050.95943  10654304.15042  23013321.709    23013319.971
  19935179.642    -8203982.00044  -6380994.84542  19935181.212    19935178.786
  22158104.949   -11635944.49343  -9010603.09042  22158106.550    22158107.000
  23144162.176    -9925691.46043  -7385752.49442  23144164.629    23144164.605
  23336074.598    13559292.69543  10562643.20842  23336076.375    23336076.833
 03  3 25 18 33 29.9990000  0  7G24G30G 4G 5G10G 6G 9
  20756312.022     1796687.34044   1404601.39642  20756313.868    20756311.924
  20992275.694   -17355183.75643 -13467891.30842  20992278.314    20992275.776
  23032058.494    13774524.65543  10731036.80842  23032060.800    23032059.010
  19934281.150    -8208703.57944  -6384674.01242  19934282.729    19934280.301
  22141965.881   -11720755.55843  -9076689.57342  22141967.462    22141967.884
  23131358.798    -9992973.58043  -7438180.03842  23131361.185    23131361.185
  23354339.591    13655275.01743  10637434.47642  23354341.326    23354341.835
 03  3 25 18 33 59.9990000  0  7G24G30G 4G 5G10G 6G 9
  20766563.335     1850558.40544   1446578.83642  20766565.194    20766563.268
  20978803.962   -17425978.24443 -13523055.82042  20978806.571    20978803.998
  23050822.422    13873129.39243  10807871.58142  23050824.713    23050822.932
  19933481.050    -8212908.13344  -6387950.30642  19933482.615    19933480.206
  22125887.333   -11805248.88143  -9142528.45142  22125888.853    22125889.329
  23118567.373   -10060193.05743  -7490558.75642  23118569.723    23118569.627
  23372621.184    13751344.56543  10712293.72942  23372622.903    23372623.433
 03  3 25 18 34 29.9990000  0  7G24G30G 4G 5G10G 6G 9
  20776880.846     1904777.24344   1488827.26642  20776882.699    20776880.782
  20965395.890   -17496437.99443 -13577959.49342  20965398.516    20965395.898
  23069606.733    13971841.17843  10884789.76342  23069608.977    23069607.249
  19932775.346    -8216616.55544  -6390840.00542  19932776.937    19932774.507
  22109865.694   -11889442.83843  -9208134.05842  22109867.215    22109867.687
  23105783.754   -10127371.58543  -7542905.60542  23105785.976    23105785.829
  23390914.640    13847476.69843  10787201.74942  23390916.348    23390916.938
 03  3 25 18 34 59.9990000  0  7G24G30G 4G 5G10G 6G 9
  20787267.819     1959361.01744   1531360.06742  20787269.629    20787267.743
  20952055.626   -17566541.35443 -13632585.46442  20952058.293    20952055.611
  23088414.588    14070676.77943  10961804.43442  23088416.839    23088415.123
  19932167.897    -8219808.82744  -6393327.50842  19932169.480    19932167.057
  22093905.421   -11973314.72743  -9273488.72342  22093906.926    22093907.331
  23093011.467   -10194489.96743  -7595205.59142  23093013.670    23093013.422
  23409223.114    13943687.69943  10862171.22342  23409224.786    23409225.382
 03  3 25 18 35 29.9990000  0  7G24G30G 4G 5G10G 6G 9
  20797723.165     2014304.17344   1574172.90242  20797724.978    20797723.097
  20938783.013   -17636289.41143 -13686934.58442  20938785.667    20938782.931
  23107244.995    14169630.77143  11038911.33642  23107247.195    23107245.443
  19931658.197    -8222487.46744  -6395414.77942  19931659.767    19931657.342
  22078006.327   -12056864.82143  -9338592.63442  22078007.830    22078008.240
  23080250.025   -10261551.53043  -7647461.28942  23080252.188    23080251.929
  23427545.295    14039971.05443  10937197.07842  23427547.025    23427547.557
 03  3 25 18 35 59.9990000  0  7G24G30G 4G 5G10G 6G 9
  20808245.295     2069598.43744   1617259.32242  20808247.132    20808245.249
  20925577.361   -17705685.70843 -13741009.59642  20925580.008    20925577.225
  23126096.283    14268694.58043  11116103.82442  23126098.394    23126096.674
  19931245.274    -8224657.55944  -6397105.77642  19931246.836    19931244.396
  22062167.999   -12140095.76743  -9403447.86342  22062169.483    22062169.821
  23067498.174   -10328562.36143  -7699677.44242  23067500.376    23067500.025
  23445879.545    14136317.74143  11012272.26542  23445881.264    23445881.779
 03  3 25 18 36 29.9990000  0  7G24G30G 4G 5G10G 6G 9
  20818833.587     2125240.30844   1660616.61042  20818835.425    20818833.575
  20912438.910   -17774728.78944 -13794809.37842  20912441.567    20912438.775
  23144967.906    14367865.13843  11193379.48442  23144970.046    23144968.240
  19930929.061    -8226319.40544  -6398400.73842  19930930.623    19930928.178
  22046390.783   -12223005.44743  -9468052.76642  22046392.247    22046392.527
  23054755.839   -10395523.36243  -7751854.78942  23054758.026    23054757.737
  23464225.104    14232723.88143  11087393.78242  23464226.755    23464227.410
 03  3 25 18 36 59.9990000  0  7G24G30G 4G 5G10G 6G 9
  20829487.893     2181229.11244   1704244.22942  20829489.728    20829487.912
  20899368.310   -17843415.28444 -13848331.30342  20899370.977    20899368.158
  23163859.621    14467141.35243  11270737.48442  23163861.801    23163859.949
  19930709.932    -8227470.94044  -6399298.05242  19930711.508    19930709.075
  22030675.535   -12305589.31043  -9532403.78542  22030676.990    22030677.228
  23042023.228   -10462433.24243  -7803992.28442  23042025.529    23042025.205
  23482581.584    14329188.02443  11162560.50542  23482583.306    23482584.011
 03  3 25 18 37 29.9990000  0  7G24G30G 4G 5G10G 6G 9
  20840209.706     2237572.55444   1748148.19142  20840211.535    20840209.721
  20886367.968   -17911732.41144 -13901565.40842  20886370.651    20886367.828
  23182772.884    14566530.81143  11348183.72842  23182775.117    23182773.165
  19930590.030    -8228101.18244  -6399789.16542  19930591.586    19930589.145
  22015024.790   -12387834.15343  -9596490.63842  22015026.228    22015026.491
  23029302.309   -10529281.78743  -7856082.00642  23029304.668    23029304.286
  23500950.588    14425717.35143  11237778.00242  23500952.214    23500953.042
 03  3 25 18 37 59.9990000  0  7G24G30G 4G 5G10G 6G 9
  20850997.987     2294265.16844   1792324.22742  20850999.788    20850997.999
  20873437.849   -17979680.76444 -13954512.15042  20873440.502    20873437.661
  23201706.737    14666028.44043  11425714.24742  23201708.980    23201707.033
  19930568.858    -8228212.53344  -6399875.95042  19930570.428    19930567.955
  21999438.617   -12469739.53543  -9660312.97042  21999440.021    21999440.354
  23016592.449   -10596071.96343  -7908126.24342  23016594.763    23016594.470
  23519330.933    14522306.02343  11313041.74542  23519332.520    23519333.333
 03  3 25 18 38 29.9990000  0  7G24G30G 4G 5G10G 6G 9
  20861850.399     2351294.84844   1836762.91742  20861852.196    20861850.383
  20860576.466   -18047267.80044 -14007177.35642  20860579.100    20860576.253
  23220658.883    14765622.17943  11503319.67042  23220661.192    23220659.081
  19930644.668    -8227814.15644  -6399565.54242  19930646.259    19930643.783
  21983915.833   -12551312.07843  -9723875.95042  21983917.213    21983917.593
  23003891.856   -10662813.60643  -7960132.64542  23003894.186    23003893.871
  23537720.084    14618941.11443  11388341.66942  23537721.712    23537722.553
 03  3 25 18 38 59.9990000  0  7G24G30G 4G 5G10G 6G 9
  20872767.783     2408665.83244   1881467.54942  20872769.542    20872767.709
  20847785.439   -18114485.13644 -14059554.48442  20847788.064    20847785.219
  23239629.994    14865315.78143  11581002.92442  23239632.340    23239630.116
  19930818.810    -8226899.19844  -6398852.60542  19930820.379    19930817.899
  21968458.140   -12632542.46243  -9787172.32842  21968459.504    21968459.953
  22991201.689   -10729500.63343  -8012096.49242  22991203.920    22991203.636
  23556118.607    14715625.77443  11463680.22142  23556120.286    23556121.190
 03  3 25 18 39 29.9990000  0  7G24G30G 4G 5G10G 6G 9
  20883749.525     2466375.19744   1926435.86242  20883751.309    20883749.440
  20835065.101   -18181330.92544 -14111642.09042  20835067.710    20835064.875
  23258619.616    14965106.33643  11658761.69042  23258621.886    23258619.728
  19931091.281    -8225467.42644  -6397736.95942  19931092.854    19931090.368
  21953066.059   -12713428.15943  -9850200.11542  21953067.436    21953067.881
  22978521.862   -10796133.23243  -8064017.94042  22978524.101    22978523.791
  23574525.976    14812356.59143  11539054.72342  23574527.606    23574528.647
 03  3 25 18 39 59.9990000  0  7G24G30G 4G 5G10G 6G 9
  20894795.008     2524419.35444   1971665.04642  20894796.770    20894794.883
  20822415.744   -18247803.86244 -14163439.16642  20822418.294    20822415.490
  23277626.975    15064990.74543  11736593.61742  23277629.312    23277627.058
  19931462.034    -8223519.38644  -6396219.02342  19931463.586    19931461.083
  21937739.987   -12793966.96543  -9912957.59642  21937741.367    21937741.841
  22965852.181   -10862712.54043  -8115897.86042  22965854.419    22965854.097
  23592941.372    14909129.60443  11614462.11442  23592943.060    23592944.060
 03  3 25 18 40 29.9990000  0  7G24G30G 4G 5G10G 6G 9
  20905904.740     2582801.34844   2017157.48442  20905906.538    20905904.623
  20809838.778   -18313896.30544 -14214939.75642  20809841.336    20809838.531
  23296652.772    15164971.78043  11814500.82642  23296655.159    23296652.881
  19931932.141    -8221049.06344  -6394294.11142  19931933.687    19931931.192
  21922481.613   -12874150.12943  -9975437.95242  21922482.990    21922483.474
  22953193.633   -10929233.17443  -8167732.05742  22953195.879    22953195.569
  23611365.199    15005947.19643  11689904.24942  23611366.921    23611367.977
 03  3 25 18 40 59.9990000  0  7G24G30G 4G 5G10G 6G 9
  20917076.114     2641507.20044   2062902.27842  20917077.918    20917076.022
  20797332.381   -18379617.66944 -14266151.18542  20797334.956    20797332.152
  23315694.442    15265035.76843  11892472.70142  23315696.704    23315694.540
  19932499.498    -8218067.69744  -6391970.98542  19932501.042    19932498.555
  21907289.264   -12953986.43743 -10037648.03342  21907290.647    21907291.097
  22940544.055   -10995706.76143  -8219529.59242  22940546.312    22940545.949
  23629794.702    15102794.68843  11765369.66142  23629796.397    23629797.541
 03  3 25 18 41 29.9990000  0  7G24G30G 4G 5G10G 6G 9
  20928312.765     2700556.13844   2108914.40842  20928314.566    20928312.708
  20784901.171   -18444944.02344 -14317054.82142  20784903.748    20784900.959
  23334755.467    15365201.78343  11970524.03742  23334757.733    23334755.576
  19933168.240    -8214553.43844  -6389232.61942  19933169.779    19933167.357
  21892167.658   -13033451.18543 -10099568.60042  21892169.019    21892169.417
  22927907.574   -11062111.93143  -8271273.82342  22927909.846    22927909.389
  23648233.570    15199690.72743  11840872.90642  23648235.175    23648236.492
 03  3 25 18 41 59.9990000  0  7G24G30G 4G 5G10G 6G 9
  20939614.349     2759946.25244   2155192.39542  20939616.139    20939614.332
  20772545.595   -18509872.87044 -14367648.70942  20772548.193    20772545.380
  23353835.495    15465467.89943  12048653.41242  23353837.768    23353835.710
  19933938.570    -8210505.35644  -6386078.28942  19933940.116    19933937.695
  21877117.386   -13112540.80343 -10161196.84142  21877118.769    21877119.143
  22915284.164   -11128448.24343  -8322964.39342  22915286.425    22915285.975
  23666681.141    15296632.80343  11916412.04242  23666682.801    23666684.146
 03  3 25 18 42 29.9990000  0  7G24G30G 4G 5G10G 6G 9
  20950975.599     2819650.02644   2201714.79442  20950977.376    20950975.644
  20760261.351   -18574426.94444 -14417950.56542  20760263.931    20760261.088
  23372929.402    15565806.87343  12126839.53042  23372931.682    23372929.670
  19934805.825    -8205947.90844  -6382527.04742  19934807.374    19934804.926
  21862134.262   -13191277.27543 -10222549.91542  21862135.656    21862136.014
  22902669.058   -11194740.77443  -8374620.84642  22902671.287    22902670.885
  23685132.140    15393592.83043  11991965.15742  23685133.786    23685135.217
 03  3 25 18 42 59.9990000  0  7G24G30G 4G 5G10G 6G 9
  20962397.451     2879672.34944   2248485.41042  20962399.241    20962397.561
  20748050.253   -18638596.48044 -14467952.78742  20748052.828    20748049.988
  23392038.211    15666223.86443  12205086.44042  23392040.512    23392038.478
  19935771.490    -8200873.29744  -6378572.82142  19935773.049    19935770.578
  21847220.348   -13269650.10943 -10283619.62942  21847221.772    21847222.101
  22890063.661   -11260982.01443  -8426237.32742  22890065.939    22890065.561
  23703587.486    15490575.22543  12067535.69442  23703589.119    23703590.544
 03  3 25 18 43 29.9990000  0  7G24G30G 4G 5G10G 6G 9
  20973880.105     2940014.05844   2295504.90342  20973881.876    20973880.238
  20735913.304   -18702376.45944 -14517651.45942  20735915.861    20735913.003
  23411161.933    15766719.39143  12283394.53942  23411164.172    23411162.201
  19936836.203    -8195278.19944  -6374213.01542  19936837.744    19936835.298
  21832376.757   -13347653.60243 -10344401.54642  21832378.173    21832378.467
  22877468.574   -11327169.13043  -8477811.64842  22877470.836    22877470.462
  23722047.049    15587580.12743  12143123.77142  23722048.763    23722050.077
 03  3 25 18 43 59.9990000  0  7G24G30G 4G 5G10G 6G 9
  20985424.402     3000679.70543   2342776.81942  20985426.148    20985424.564
  20723852.253   -18765757.69844 -14567039.41442  20723854.809    20723851.930
  23430301.448    15867298.11343  12361767.46942  23430303.670    23430301.857
  19938001.370    -8189155.22644  -6369441.88342  19938002.926    19938000.463
  21817605.356   -13425277.74443 -10404887.86242  21817606.775    21817607.041
  22864885.218   -11393295.14543  -8529338.37342  22864887.378    22864887.022
  23740511.702    15684611.30543  12218732.29842  23740513.342    23740514.645
 03  3 25 18 44 29.9990000  0  7G24G30G 4G 5G10G 6G 9
  20997031.011     3061672.84443   2390303.91842  20997032.748    20997031.198
  20711868.683   -18828731.61444 -14616109.98142  20711871.269    20711868.374
  23449457.647    15967964.12843  12440208.42342  23449459.899    23449458.143
  19939268.326    -8182497.59944  -6364254.13842  19939269.853    19939267.406
  21802907.953   -13502513.11943 -10465071.24642  21802909.377    21802909.606
  22852314.609   -11459353.90643  -8580812.67942  22852316.744    22852316.401
  23758981.832    15781671.86943  12294363.74942  23758983.531    23758984.807
 03  3 25 18 44 59.9990000  0  7G24G30G 4G 5G10G 6G 9
  21008698.636     3122986.51243   2438080.78242  21008700.336    21008698.802
  20699962.229   -18891300.41944 -14664864.87342  20699964.814    20699961.927
  23468629.159    16068710.64943  12518712.10642  23468631.335    23468629.646
  19940636.212    -8175309.39144  -6358652.95842  19940637.741    19940635.316
  21788284.218   -13579361.27143 -10524952.87542  21788285.649    21788285.900
  22839756.047   -11525349.59243  -8632237.85142  22839758.059    22839757.791
  23777456.150    15878754.62843  12370012.48942  23777457.932    23777459.171
 03  3 25 18 45 29.9990000  0  7G24G30G 4G 5G10G 6G 9
  21020423.841     3184602.91043   2486093.53642  21020425.532    21020424.014
  20688130.217   -18953477.85644 -14713314.80542  20688132.810    20688129.946
  23487812.517    16169519.48343  12597264.34942  23487814.665    23487813.111
  19942102.075    -8167606.29744  -6352650.56942  19942103.608    19942101.197
  21773731.821   -13655834.75343 -10584542.56742  21773733.256    21773733.414
  22827206.413   -11591298.24243  -8683626.35442  22827208.381    22827208.143
  23795931.172    15975840.87143  12445663.94842  23795932.916    23795934.274
 03  3 25 18 45 59.9990000  0  7G24G30G 4G 5G10G 6G 9
  21032205.581     3246516.25443   2534337.68242  21032207.270    21032205.726
  20676372.506   -19015265.05944 -14761460.66142  20676375.088    20676372.225
  23507006.756    16270385.25243  12675860.96142  23507008.829    23507007.360
  19943665.304    -8159391.48044  -6346249.43342  19943666.847    19943664.456
  21759250.591   -13731934.15043 -10643840.74642  21759252.067    21759252.109
  22814665.043   -11657203.25843  -8734980.85942  22814667.074    22814666.845
  23814405.595    16072924.10943  12521313.05442  23814407.354    23814408.758
 03  3 25 18 46 29.9990000  0  7G24G30G 4G 5G10G 6G 9
  21044047.627     3308746.47143   2582828.74342  21044049.322    21044047.748
  20664693.724   -19076637.30344 -14809283.17342  20664696.318    20664693.462
  23526215.595    16371328.06443  12754517.59542  23526217.603    23526216.231
  19945330.333    -8150641.80244  -6339431.52542  19945331.854    19945329.484
  21744845.400   -13807633.95343 -10702827.54142  21744846.913    21744846.866
  22802136.318   -11723042.07143  -8786283.77942  22802138.374    22802138.083
  23832883.152    16170023.98743  12596975.13642  23832884.961    23832886.376
 03  3 25 18 46 59.9990000  0  7G24G30G 4G 5G10G 6G 9
  21055946.402     3371274.76144   2631552.06242  21055948.127    21055946.491
  20653091.202   -19137608.84644 -14856793.45242  20653093.786    20653090.965
  23545435.539    16472329.42443  12833219.85542  23545437.554    23545436.279
  19947094.045    -8141373.44144  -6332209.44842  19947095.589    19947093.210
  21730513.653   -13882947.70643 -10761513.52242  21730515.166    21730515.109
  22789616.983   -11788831.02743  -8837547.84642  22789619.162    22789618.811
  23851360.287    16267120.91243  12672634.89842  23851361.986    23851363.439
 03  3 25 18 47 29.9990000  0  7G24G30G 4G 5G10G 6G 9
  21067904.096     3434112.81943   2680516.77142  21067905.866    21067904.205
  20641568.000   -19198163.46344 -14903978.84642  20641570.582    20641567.779
  23564668.898    16573401.02343  12911976.84042  23564670.946    23564669.648
  19948959.174    -8131572.17744  -6324572.12342  19948960.722    19948958.354
  21716258.564   -13957858.36043 -10819885.38242  21716260.079    21716260.056
  22777109.869   -11854556.15943  -8888762.17042  22777112.022    22777111.637
  23869838.946    16364226.10043  12748301.10842  23869840.676    23869842.069
 03  3 25 18 47 59.9990000  0  7G24G30G 4G 5G10G 6G 9
  21079920.331     3497258.56643   2729721.23442  21079922.133    21079920.445
  20630124.620   -19258298.53044 -14950837.32142  20630127.203    20630124.427
  23583915.272    16674541.01943  12990787.12542  23583917.361    23583916.119
  19950925.819    -8121237.44444  -6316519.10742  19950927.372    19950924.989
  21702080.846   -14032362.41343 -10877940.41442  21702082.329    21702082.376
  22764615.024   -11920216.95443  -8939926.37742  22764617.124    22764616.711
  23888318.718    16461337.35443  12823972.04042  23888320.502    23888321.864
 03  3 25 18 48 29.9990000  0  7G24G30G 4G 5G10G 6G 9
  21091991.893     3560694.87943   2779152.11142  21091993.676    21091991.986
  20618758.779   -19318026.24044 -14997378.37042  20618761.374    20618758.604
  23603171.466    16775732.74443  13069637.71242  23603173.608    23603172.334
  19952991.251    -8110383.59044  -6308061.57942  19952992.815    19952990.410
  21687978.309   -14106471.43443 -10935687.62342  21687979.781    21687979.847
  22752129.686   -11985827.88743  -8991051.72642  22752131.797    22752131.286
  23906796.417    16558437.10743  12899634.00742  23906798.135    23906799.526
 03  3 25 18 48 59.9990000  0  7G24G30G 4G 5G10G 6G 9
  21104120.093     3624428.89443   2828814.96042  21104121.860    21104120.160
  20607472.591   -19377335.58944 -15043593.42342  20607475.159    20607472.430
  23622438.879    16876983.25143  13148534.10442  23622440.938    23622439.883
  19955157.266    -8099001.29544  -6299192.28242  19955158.814    19955156.408
  21673953.188   -14180173.50643 -10993117.72842  21673954.703    21673954.730
  22739655.579   -12051379.88843  -9042131.17742  22739657.648    22739657.078
  23925273.030    16655531.61543  12975291.89742  23925274.746    23925276.170
 03  3 25 18 49 29.9990000  0  7G24G30G 4G 5G10G 6G 9
  21116303.469     3688452.88343   2878703.77042  21116305.241    21116303.517
  20596265.430   -19436229.53144 -15089484.77942  20596268.034    20596265.290
  23641716.083    16978285.03243  13227470.45842  23641718.105    23641717.136
  19957422.887    -8087095.54844  -6289915.10042  19957424.445    19957422.015
  21660005.065   -14253470.80643 -11050232.41642  21660006.614    21660006.660
  22727191.622   -12116878.12643  -9093168.71842  22727193.739    22727193.116
  23943746.985    16752612.24243  13050938.96642  23943748.744    23943750.196
 03  3 25 18 49 59.9990000  0  7G24G30G 4G 5G10G 6G 9
  21128544.067     3752777.51343   2928826.84542  21128545.827    21128544.089
  20585140.336   -19494692.42244 -15135040.25842  20585142.933    20585140.184
  23661005.164    17079649.19743  13306455.40342  23661007.211    23661006.279
  19959790.691    -8074652.77544  -6280219.45642  19959792.234    19959789.837
  21646137.105   -14326347.14943 -11107019.09042  21646138.668    21646138.698
  22714740.513   -12182308.94043  -9144153.72442  22714742.647    22714742.061
  23962220.446    16849690.10243  13126583.87842  23962222.165    23962223.695
 03  3 25 18 50 29.9990000  0  7G24G30G 4G 5G10G 6G 9
  21140839.850     3817392.32343   2979176.03442  21140841.649    21140839.876
  20574095.979   -19552730.85844 -15180264.98842  20574098.593    20574095.845
  23680304.120    17181065.18243  13385480.74542  23680306.158    23680305.241
  19962259.032    -8061681.61944  -6270112.08442  19962260.579    19962258.210
  21632348.159   -14398808.16643 -11163482.12642  21632349.739    21632349.760
  22702300.526   -12247681.23543  -9195093.12642  22702302.694    22702302.113
  23980691.133    16946753.42843  13202217.46042  23980692.776    23980694.454
 03  3 25 18 50 59.9990000  0  7G24G30G 4G 5G10G 6G 9
  21153190.435     3882294.92344   3029749.47042  21153192.229    21153190.422
  20563132.829   -19610342.51344 -15225157.16542  20563135.475    20563132.678
  23699612.534    17282531.06243  13464544.95942  23699614.495    23699613.684
  19964828.012    -8048181.65844  -6259592.65742  19964829.552    19964827.205
  21618638.845   -14470850.59743 -11219618.98742  21618640.465    21618640.435
  22689871.783   -12312994.65643  -9245986.67342  22689873.943    22689873.404
  23999158.551    17043799.48843  13277837.57142  23999160.217    23999161.918
 03  3 25 18 51 29.9990000  0  7G24G30G 4G 5G10G 6G 9
  21165595.937     3947486.26243   3080547.90142  21165597.735    21165595.927
  20552252.039   -19667521.48644 -15269712.18542  20552254.689    20552251.858
  23718930.693    17384048.27543  13543649.17942  23718932.686    23718931.874
  19967498.341    -8034149.10944  -6248658.23142  19967499.885    19967497.542
  21605010.384   -14542468.18843 -11275424.80242  21605011.996    21605011.944
  22677454.966   -12378245.41243  -9296831.35542  22677457.099    22677456.554
  24017622.813    17140829.11143  13353444.88242  24017624.500    24017626.244
 03  3 25 18 51 59.9990000  0  7G24G30G 4G 5G10G 6G 9
  21178054.498     4012956.44643   3131563.60942  21178056.308    21178054.494
  20541452.505   -19724273.51544 -15313934.52242  20541455.153    20541452.250
  23738256.769    17485607.00643  13622785.73442  23738258.766    23738258.060
  19970268.533    -8019591.72744  -6237314.84242  19970270.084    19970267.724
  21591461.857   -14613665.78743 -11330903.35242  21591463.452    21591463.386
  22665048.633   -12443441.13643  -9347633.17942  22665050.761    22665050.191
  24036081.912    17237831.67143  13429031.10642  24036083.588    24036085.403
 03  3 25 18 52 29.9990000  0  7G24G30G 4G 5G10G 6G 9
  21190565.406     4078701.50643   3182793.50942  21190567.189    21190565.387
  20530734.307   -19780598.03144 -15357823.73342  20530736.962    20530734.000
  23757590.034    17587203.56643  13701951.78842  23757591.917    23757591.405
  19973138.354    -8004510.90144  -6225563.57842  19973139.894    19973137.518
  21577993.591   -14684441.85843 -11386053.44242  21577995.178    21577995.043
  22652652.469   -12508583.26043  -9398393.24642  22652654.631    22652654.034
  24054535.020    17334802.75443  13504592.80142  24054536.664    24054538.616
 03  3 25 18 52 59.9990000  0  7G24G30G 4G 5G10G 6G 9
  21203128.099     4144718.64543   3234235.42242  21203129.852    21203128.076
  20520097.843   -19836493.05844 -15401378.28042  20520100.483    20520097.487
  23776930.004    17688835.47343  13781145.38542  23776931.917    23776931.302
  19976107.737    -7988906.82244  -6213404.58742  19976109.281    19976106.893
  21564605.990   -14754793.92443 -11440873.13742  21564607.573    21564607.422
  22640266.466   -12573671.95543  -9449111.66342  22640268.631    22640268.033
  24072981.547    17431739.41943  13580127.67442  24072983.252    24072985.204
 03  3 25 18 53 29.9990000  0  7G24G30G 4G 5G10G 6G 9
  21215743.334     4211012.02543   3285892.57742  21215745.075    21215743.347
  20509544.701   -19891950.16044 -15444591.58942  20509547.336    20509544.333
  23796277.556    17790507.11943  13860369.94342  23796279.574    23796278.880
  19979177.929    -7972773.07944  -6200832.86842  19979179.445    19979177.082
  21551300.756   -14824712.91743 -11495355.37142  21551302.362    21551302.189
  22627891.860   -12638700.78043  -9499783.42942  22627894.025    22627893.396
  24091422.196    17528644.97443  13655638.31342  24091423.844    24091425.996
 03  3 25 18 53 59.9990000  0  7G24G30G 4G 5G10G 6G 9
  21228412.637     4277589.50243   3337771.10542  21228414.369    21228412.659
  20499077.201   -19946957.20344 -15487454.20242  20499079.828    20499076.820
  23815634.177    17892226.40843  13939631.61542  23815636.338    23815635.413
  19982350.823    -7956099.64444  -6187840.61342  19982352.345    19982349.970
  21538080.399   -14894185.90143 -11549490.07542  21538082.016    21538081.848
  22615530.615   -12703659.60043  -9550400.65142  22615532.732    22615532.076
  24109858.361    17625526.78643  13731130.43242  24109859.964    24109862.192
 03  3 25 18 54 29.9990000  0  7G24G30G 4G 5G10G 6G 9
  21241132.967     4344435.10743   3389858.56342  21241134.690    21241133.028
  20488693.226   -20001525.21844 -15529974.71342  20488695.846    20488692.846
  23834997.012    17993978.25843  14018918.66042  23834999.292    23834998.234
  19985623.900    -7938899.61344  -6174438.02642  19985625.441    19985623.045
  21524942.972   -14963223.23643 -11603285.30342  21524944.554    21524944.385
  22603180.216   -12768561.50943  -9600973.54342  22603182.322    22603181.585
  24128286.914    17722368.70443  13806591.47542  24128288.511    24128290.829
 03  3 25 18 54 59.9990000  0  7G24G30G 4G 5G10G 6G 9
  21253903.278     4411543.37443   3442150.68742  21253905.008    21253903.332
  20478392.570   -20055655.35244 -15572154.02742  20478395.174    20478392.180
  23854365.099    18095757.47543  14098227.04342  23854367.343    23854366.211
  19988996.599    -7921176.01444  -6160627.46242  19988998.152    19988995.746
  21511888.396   -15031825.27543 -11656741.35142  21511889.956    21511889.764
  22590840.049   -12833409.28343  -9651504.23742  22590842.225    22590841.409
  24146706.733    17819164.86743  13882016.86442  24146708.353    24146710.760
 03  3 25 18 55 29.9990000  0  7G24G30G 4G 5G10G 6G 9
  21266726.121     4478927.83243   3494658.02542  21266727.886    21266726.203
  20468178.622   -20109329.83644 -15613978.28742  20468181.210    20468178.263
  23873740.946    18197577.41243  14177567.13342  23873743.150    23873742.044
  19992471.848    -7902913.42544  -6146396.90142  19992473.410    19992471.034
  21498920.143   -15099973.67143 -11709843.91342  21498921.697    21498921.480
  22578513.098   -12898187.45143  -9701980.68842  22578515.320    22578514.438
  24165120.307    17915928.18243  13957416.65542  24165121.914    24165124.460
 03  3 25 18 55 59.9990000  0  7G24G30G 4G 5G10G 6G 9
  21279599.753     4546579.12443   3547373.28642  21279601.539    21279599.825
  20458050.439   -20162553.66444 -15655451.38942  20458053.025    20458050.090
  23893122.810    18299429.22943  14256932.08642  23893124.912    23893124.006
  19996048.343    -7884118.92244  -6131751.86442  19996049.888    19996047.535
  21486037.461   -15167672.37143 -11762596.06242  21486038.992    21486038.780
  22566198.176   -12962902.78843  -9752408.19342  22566200.379    22566199.432
  24183525.790    18012648.99043  14032783.31442  24183527.404    24183530.000
 03  3 25 18 56 29.9990000  0  7G24G30G 4G 5G10G 6G 9
  21292521.475     4614483.07043   3600285.41342  21292523.228    21292521.526
  20448006.213   -20215336.41544 -15696580.79442  20448008.794    20448005.862
  23912508.168    18401299.20843  14336311.17042  23912510.338    23912509.223
  19999723.842    -7864804.23244  -6116701.48842  19999725.355    19999723.023
  21473238.687   -15234930.19543 -11815004.67842  21473240.206    21473239.953
  22553892.992   -13027566.83243  -9802795.71742  22553895.168    22553894.206
  24201920.366    18109312.53443  14108105.35942  24201921.975    24201924.648
 03  3 25 18 56 59.9990000  0  7G24G30G 4G 5G10G 6G 9
  21305492.890     4682648.23543   3653401.08642  21305494.621    21305492.962
  20438048.360   -20267665.26044 -15737356.50642  20438050.953    20438048.003
  23931898.513    18503196.07943  14415711.22342  23931900.659    23931899.542
  20003500.353    -7844958.66544  -6101237.44242  20003501.858    20003499.540
  21460526.312   -15301733.85043 -11867059.39842  21460527.827    21460527.554
  22541599.607   -13092168.68443  -9853134.76842  22541601.826    22541600.829
  24220305.628    18205926.74343  14183388.95842  24220307.208    24220309.855
 03  3 25 18 57 29.9990000  0  7G24G30G 4G 5G10G 6G 9
  21318514.230     4751075.72643   3706721.17642  21318515.915    21318514.300
  20428177.891   -20319534.78644 -15777774.30542  20428180.497    20428177.554
  23951294.277    18605121.33443  14495133.37842  23951296.381    23951295.383
  20007378.499    -7824578.97944  -6085357.19442  20007380.006    20007377.678
  21447901.474   -15368077.17843 -11918755.41942  21447903.040    21447902.731
  22529318.821   -13156704.83843  -9903422.63942  22529320.998    22529319.971
  24238681.566    18302492.19743  14258634.57842  24238683.133    24238685.845
 03  3 25 18 57 59.9990000  0  7G24G30G 4G 5G10G 6G 9
  21331585.279     4819764.56243   3760244.90142  21331586.971    21331585.356
  20418395.520   -20370941.60144 -15817831.55442  20418398.088    20418395.152
  23970695.314    18707074.08043  14574576.95142  23970697.335    23970696.403
  20011358.521    -7803663.91544  -6069059.77242  20011360.013    20011357.691
  21435365.077   -15433956.13343 -11970089.60942  21435366.616    21435366.267
  22517050.745   -13221173.73143  -9953658.09542  22517052.954    22517051.942
  24257048.025    18399007.39543  14333841.00542  24257049.552    24257052.269
 03  3 25 18 58 29.9990000  0  7G24G30G 4G 5G10G 6G 9
  21344701.571     4888691.09643   3813953.86242  21344703.269    21344701.638
  20408697.581   -20421904.53444 -15857542.92042  20408700.164    20408697.197
  23990097.298    18809031.79343  14654024.41842  23990099.260    23990098.396
  20015436.416    -7782234.58944  -6052361.62642  20015437.896    20015435.588
  21422913.639   -15499388.74843 -12021076.00142  21422915.149    21422914.784
  22504791.600   -13285595.82943 -10003857.08842  22504793.784    22504792.849
  24275400.399    18495449.05843  14408990.14742  24275401.975    24275404.660
 03  3 25 18 58 59.9990000  0  7G24G30G 4G 5G10G 6G 9
  21357865.911     4957869.81543   3867859.32442  21357867.598    21357865.903
  20399087.636   -20472404.99344 -15896893.91742  20399090.210    20399087.272
  24009502.943    18911008.95243  14733487.00442  24009504.970    24009504.135
  20019615.213    -7760274.87644  -6035250.19242  20019616.722    20019614.419
  21410550.753   -15564355.90043 -12071699.69642  21410552.263    21410551.854
  22492544.485   -13349954.70043 -10054006.80742  22492546.687    22492545.757
  24293741.392    18591830.85743  14484092.64442  24293742.924    24293745.681
 03  3 25 18 59 29.9990000  0  7G24G30G 4G 5G10G 6G 9
  21371077.504     5027296.87443   3921958.29542  21371079.179    21371077.431
  20389565.852   -20522442.27744 -15935884.00542  20389568.412    20389565.481
  24028911.632    19013002.34943  14812962.26942  24028913.623    24028912.928
  20023894.688    -7737786.27244  -6017726.63942  20023896.178    20023893.876
  21398276.738   -15628856.18043 -12121959.60742  21398278.228    21398277.708
  22480309.126   -13414251.54043 -10104108.18542  22480311.373    22480310.468
  24312070.198    18688148.73143  14559145.33942  24312071.817    24312074.595
 03  3 25 18 59 59.9990000  0  7G24G30G 4G 5G10G 6G 9
  21384335.001     5096965.39743   3976245.43242  21384336.733    21384334.929
  20380131.638   -20572019.24544 -15974515.39242  20380134.211    20380131.294
  24048322.158    19115005.12743  14892444.83042  24048324.153    24048323.461
  20028273.844    -7714773.66644  -5999794.76242  20028275.354    20028273.062
  21386091.093   -15692891.70543 -12171857.34542  21386092.589    21386092.039
  22468084.845   -13478490.66543 -10154164.62442  22468087.060    22468086.117
  24330385.359    18784395.14943  14634142.35942  24330387.009    24330389.875
 03  3 25 19  0 29.9990000  0  7G24G30G 4G 5G10G 6G 9
  21397639.429     5166880.48243   4030724.69542  21397641.168    21397639.375
  20370786.889   -20621126.06444 -16012780.43242  20370789.487    20370786.588
  24067735.514    19217023.13743  14971939.26542  24067737.603    24067736.971
  20032754.176    -7691229.49144  -5981448.68142  20032755.678    20032753.405
  21373995.950   -15756452.09443 -12221384.86542  21373997.410    21373996.804
  22455872.997   -13542664.25043 -10204169.97442  22455875.238    22455874.266
  24348687.915    18880575.21143  14709087.67542  24348689.577    24348692.587
 03  3 25 19  0 59.9990000  0  7G24G30G 4G 5G10G 6G 9
  21410991.665     5237046.97243   4085399.85042  21410993.422    21410991.680
  20361533.316   -20669753.82344 -16050672.17842  20361535.906    20361533.027
  24087152.855    19319061.47243  15051449.54342  24087154.840    24087154.246
  20037336.924    -7667147.01844  -5962683.14642  20037338.428    20037336.173
  21361992.969   -15819527.97743 -12270534.84942  21361994.421    21361993.807
  22443675.012   -13606765.15043 -10254118.69642  22443677.253    22443676.227
  24366978.655    18976693.11643  14783984.52942  24366980.309    24366983.501
 03  3 25 19  1 29.9990000  0  7G24G30G 4G 5G10G 6G 9
  21424389.183     5307451.45543   4140260.45942  21424390.944    21424389.287
  20352369.113   -20717911.89744 -16088197.94242  20352371.676    20352368.853
  24106571.500    19421106.79543  15130965.23742  24106573.273    24106573.047
  20042019.906    -7642538.01244  -5943507.32542  20042021.384    20042019.160
  21350080.543   -15882127.82443 -12319313.89742  21350081.987    21350081.423
  22431488.672   -13670804.64543 -10304019.57142  22431490.918    22431489.850
  24385254.965    19072734.76443  14858822.01142  24385256.615    24385259.874
 03  3 25 19  1 59.9990000  0  8G24G30G17G 4G 5G10G 6G 9
  21437832.610     5378096.95543   4195308.87242  21437834.362    21437832.777
  20343295.706   -20765592.88544 -16125351.95042  20343298.253    20343295.443
  24733021.006    -4460624.20953  -3460849.75852  24733022.823    24733027.472
  24125992.277    19523163.06243  15210489.48742  24125993.945    24125993.831
  20046804.046    -7617397.31744  -5923917.20042  20046805.505    20046803.307
  21338260.346   -15944243.25143 -12367715.48142  21338261.751    21338261.197
  22419315.200   -13734776.76343 -10353867.94942  22419317.400    22419316.315
  24403517.350    19168703.25243  14933602.48042  24403519.020    24403522.221
 03  3 25 19  2 29.9990000  0  8G24G30G17G 4G 5G10G 6G 9
  21451319.403     5448970.34643   4250534.86642  21451321.143    21451319.608
  20334311.436   -20812805.56744 -16162141.04142  20334313.988    20334311.162
  24715227.308    -4554130.62243  -3533711.76142  24715229.070    24715233.802
  24145412.615    19625217.24043  15290012.10442  24145414.396    24145414.217
  20051687.276    -7591735.89844  -5903921.32042  20051688.726    20051686.548
  21326530.704   -16005882.76543 -12415746.22842  21326532.099    21326531.537
  22407152.460   -13798692.17343 -10403672.13942  22407154.655    22407153.553
  24421763.246    19264584.76843  15008315.14042  24421764.843    24421767.979
 03  3 25 19  2 59.9990000  0  8G24G30G17G 4G 5G10G 6G 9
  21464850.936     5520078.89943   4305944.10542  21464852.683    21464851.163
  20325418.503   -20859538.20344 -16198556.06942  20325421.061    20325418.249
  24697457.030    -4647513.76543  -3606477.70942  24697458.798    24697463.573
  24164834.129    19727277.32943  15369539.33942  24164836.066    24164835.517
  20056671.404    -7565544.16744  -5883512.20342  20056672.869    20056670.681
  21314893.969   -16067034.00943 -12463396.50842  21314895.373    21314894.792
  22395002.435   -13862540.97943 -10453424.42742  22395004.627    22395003.491
  24439993.910    19360386.40943  15082965.59042  24439995.502    24439998.622
 03  3 25 19  3 29.9990000  0  8G24G30G17G 4G 5G10G 6G 9
  21478425.679     5591414.41143   4361530.19042  21478427.399    21478425.868
  20316616.125   -20905795.00544 -16234600.31642  20316618.693    20316615.890
  24679709.202    -4740778.93343  -3679151.71342  24679710.917    24679715.651
  24184255.271    19829335.46943  15449065.01142  24184257.286    24184256.582
  20061755.225    -7538828.60144  -5862694.90542  20061756.685    20061754.512
  21303349.487   -16127700.45643 -12510669.02442  21303350.887    21303350.320
  22382864.032   -13926328.75243 -10503129.16142  22382866.211    22382865.034
  24458207.697    19456099.51643  15157547.04342  24458209.262    24458212.399
 03  3 25 19  3 59.9990000  0  8G24G30G17G 4G 5G10G 6G 9
  21492045.038     5662984.50343   4417299.07342  21492046.791    21492045.257
  20307906.541   -20951564.18744 -16270264.59942  20307909.110    20307906.293
  24661985.989    -4833914.54043  -3751724.76342  24661987.685    24661992.307
  24203677.623    19931399.51343  15528595.33842  24203679.600    24203678.670
  20066940.532    -7511579.73944  -5841462.04842  20066942.008    20066939.829
  21291899.645   -16187869.61443 -12557554.04142  21291901.038    21291900.469
  22370739.141   -13990045.54043 -10552778.58742  22370741.320    22370740.100
  24476406.029    19551731.31343  15232065.13942  24476407.552    24476410.617
 03  3 25 19  4 29.9990000  0  8G24G30G17G 4G 5G10G 6G 9
  21505707.112     5734779.07443   4473242.87142  21505708.882    21505707.322
  20299288.616   -20996851.61644 -16305553.49042  20299291.223    20299288.400
  24644286.065    -4926927.71243  -3824202.39042  24644287.769    24644292.299
  24223099.171    20033459.93243  15608122.83342  24223101.287    24223100.202
  20072225.776    -7483805.89544  -5819820.11942  20072227.250    20072225.064
  21280543.449   -16247546.68943 -12604055.61742  21280544.835    21280544.261
  22358626.261   -14053698.88643 -10602378.56642  22358628.509    22358627.294
  24494586.862    19647271.27643  15306511.67642  24494588.316    24494591.297
 03  3 25 19  4 59.9990000  0  8G24G30G17G 4G 5G10G 6G 9
  21519412.845     5806803.23743   4529365.57242  21519414.641    21519413.072
  20290764.170   -21041647.86144 -16340459.64142  20290766.782    20290763.946
  24626611.127    -5019809.64543  -3896577.76442  24626612.841    24626617.396
  24242521.179    20135522.45843  15687651.97142  24242523.240    24242522.050
  20077612.281    -7455499.78944  -5797763.44042  20077613.769    20077611.588
  21269282.774   -16306721.71143 -12650165.98142  21269284.162    21269283.579
  22346527.010   -14117281.00143 -10651923.05142  22346529.240    22346528.021
  24512751.141    19742724.32243  15380890.47742  24512752.580    24512755.485
 03  3 25 19  5 29.9990000  0  8G24G30G17G 4G 5G10G 6G 9
  21533158.650     5879037.82943   4585652.24342  21533160.437    21533158.905
  20282330.388   -21085967.72344 -16374994.58942  20282332.988    20282330.124
  24608958.153    -5112575.75043  -3968862.85442  24608960.014    24608964.483
  24261940.004    20237568.52243  15767168.27142  24261942.066    24261940.747
  20083096.794    -7426678.51644  -5775305.32942  20083098.308    20083096.145
  21258114.998   -16365408.65443 -12695896.01642  21258116.400    21258115.766
  22334438.214   -14180808.17543 -10701424.72242  22334440.399    22334439.222
  24530895.115    19838071.09443  15455186.49742  24530896.678    24530899.579
 03  3 25 19  5 59.9990000  0  8G24G30G17G 4G 5G10G 6G 9
  21546947.429     5951498.25043   4642114.88942  21546949.188    21546947.679
  20273990.831   -21129792.38444 -16409143.66242  20273993.449    20273990.539
  24591330.687    -5205208.18043  -4041043.79042  24591332.541    24591336.966
  24281358.571    20339613.34343  15846683.58342  24281360.801    24281359.507
  20088682.495    -7397325.62144  -5752432.97242  20088683.997    20088681.858
  21247043.777   -16423588.36343 -12741230.79942  21247045.169    21247044.462
  22322363.125   -14244263.16643 -10750870.13742  22322365.297    22322364.132
  24549021.634    19933325.98843  15529410.88742  24549023.185    24549026.200
 03  3 25 19  6 29.9990000  0  8G24G30G17G 4G 5G10G 6G 9
  21560776.806     6024171.96943   4698743.73642  21560778.539    21560777.074
  20265744.021   -21173129.67944 -16442912.96842  20265746.644    20265743.680
  24573726.971    -5297715.77943  -4113127.44542  24573728.813    24573733.281
  24300774.767    20441645.45343  15926189.01342  24300776.874    24300775.807
  20094367.418    -7367451.32644  -5729154.33942  20094368.905    20094366.773
  21236067.733   -16481267.86443 -12786175.82142  21236069.109    21236068.377
  22310299.945   -14307655.44543 -10800266.68742  22310302.101    22310300.962
  24567128.304    20028476.51143  15603553.95042  24567129.870    24567132.978
 03  3 25 19  6 59.9990000  0  8G24G30G17G 4G 5G10G 6G 9
  21574648.916     6097070.38443   4755547.66842  21574650.629    21574649.192
  20257592.883   -21215964.22944 -16476290.53042  20257595.513    20257592.490
  24556149.876    -5390083.41343  -4185102.04942  24556151.666    24556156.208
  24320190.832    20543676.74843  16005693.80242  24320192.887    24320191.922
  20100154.021    -7337042.62144  -5705459.27742  20100155.525    20100153.385
  21225189.887   -16538431.08343 -12830718.53842  21225191.271    21225190.551
  22298251.344   -14370971.24943 -10849603.65042  22298253.521    22298252.314
  24585217.315    20123533.90643  15677624.46742  24585218.809    24585221.940
 03  3 25 19  7 29.9990000  0  8G24G30G17G 4G 5G10G 6G 9
  21588561.191     6170179.72843   4812515.96242  21588562.830    21588561.445
  20249535.596   -21258305.62544 -16509283.81342  20249538.214    20249535.184
  24538597.406    -5482321.31743  -4256975.57542  24538599.244    24538603.729
  24339604.164    20645693.82843  16085187.52242  24339606.403    24339605.251
  20106040.095    -7306111.28944  -5681356.96942  20106041.602    20106039.442
  21214408.565   -16595087.17743 -12874866.09642  21214409.924    21214409.249
  22286215.188   -14434221.65043 -10898889.64342  22286217.332    22286216.121
  24603285.922    20218484.20843  15751611.53442  24603287.474    24603290.569
 03  3 25 19  7 59.9990000  0  8G24G30G17G 4G 5G10G 6G 9
  21602511.185     6243487.34043   4869638.75042  21602512.800    21602511.432
  20241570.490   -21300162.59744 -16541899.62742  20241573.105    20241570.088
  24521067.737    -5574439.36343  -4328755.69042  24521069.612    24521074.067
  24359012.475    20747684.61743  16164660.74342  24359014.633    24359013.415
  20112023.480    -7274668.54944  -5656856.17042  20112024.990    20112022.830
  21203722.152   -16651244.24943 -12918624.80342  21203723.543    21203722.912
  22274189.480   -14497416.94943 -10948132.69942  22274191.647    22274190.429
  24621331.650    20313314.12043  15825504.76642  24621333.100    24621336.341
 03  3 25 19  8 29.9990000  0  8G24G30G17G 4G 5G10G 6G 9
  21616499.199     6316994.78043   4926917.24042  21616500.810    21616499.451
  20233698.584   -21341529.72144 -16574133.73942  20233701.214    20233698.197
  24503561.951    -5666432.51943  -4400438.50142  24503563.791    24503568.064
  24378416.084    20849650.78543  16244114.80142  24378418.206    24378417.146
  20118104.780    -7242711.22644  -5631954.39442  20118106.272    20118104.116
  21193131.887   -16706896.08843 -12961989.81742  21193133.320    21193132.703
  22262174.989   -14560553.11143 -10997329.67542  22262177.160    22262175.976
  24639354.521    20408024.55243  15899304.92042  24639355.984    24639359.456
 03  3 25 19  8 59.9990000  0  8G24G30G17G 4G 5G10G 6G 9
  21630526.402     6390708.22143   4984356.25242  21630528.016    21630526.714
  20225921.865   -21382396.53944 -16605978.00342  20225924.506    20225921.481
  24486081.695    -5758291.31943  -4472016.63842  24486083.604    24486087.777
  24397816.383    20951599.30443  16323555.09142  24397818.534    24397817.614
  20124285.532    -7210231.33244  -5606645.41642  20124287.019    20124284.821
  21182639.853   -16762031.88043 -13004952.71342  21182641.283    21182640.666
  22250173.411   -14623621.43243 -11046473.79342  22250175.579    22250174.420
  24657355.802    20502621.40543  15973016.58342  24657357.277    24657360.769
 03  3 25 19  9 29.9990000  0  8G24G30G17G 4G 5G10G 6G 9
  21644596.048     6464644.46543   5041968.87642  21644597.667    21644596.354
  20218244.278   -21422742.38244 -16637416.31842  20218246.894    20218243.917
  24468630.837    -5849995.77143  -4543474.48742  24468632.640    24468636.841
  24417216.658    21053547.38843  16402995.01742  24417218.618    24417217.714
  20130569.239    -7177210.41444  -5580914.86042  20130570.724    20130568.507
  21172250.068   -16816630.51343 -13047497.05042  21172251.503    21172250.834
  22238188.483   -14686602.45643 -11095549.87942  22238190.624    22238189.501
  24675338.641    20597121.37143  16046652.71942  24675340.166    24675343.875
 03  3 25 19  9 59.9990000  0  8G24G30G17G 4G 5G10G 6G 9
  21658704.533     6538784.87243   5099740.57942  21658706.180    21658704.880
  20210663.054   -21462581.82944 -16668460.03742  20210665.671    20210662.697
  24451206.514    -5941560.78843  -4614823.71642  24451208.308    24451212.471
  24436613.374    21155476.99743  16482420.59042  24436615.276    24436614.617
  20136952.629    -7143665.47344  -5554775.98142  20136954.122    20136951.944
  21161959.832   -16870705.99443 -13089633.73742  21161961.267    21161960.577
  22226217.152   -14749512.18843 -11144570.42742  22226219.287    22226218.125
  24693299.436    20691505.44543  16120198.56442  24693301.095    24693304.710
 03  3 25 19 10 29.9990000  0  8G24G30G17G 4G 5G10G 6G 9
  21672851.457     6613127.20443   5157669.63142  21672853.102    21672851.816
  20203178.624   -21501912.79744 -16699107.53842  20203181.226    20203178.256
  24433808.916    -6032985.39543  -4686063.53442  24433810.777    24433814.798
  24456006.251    21257386.70243  16561830.61242  24456008.313    24456007.650
  20143435.662    -7109596.85744  -5528229.03842  20143437.158    20143435.019
  21151769.666   -16924255.44943 -13131360.52842  21151771.127    21151770.443
  22214259.485   -14812350.05643 -11193534.96842  22214261.639    22214260.471
  24711237.783    20785771.37743  16193652.35142  24711239.325    24711243.104
 03  3 25 19 10 59.9990000  0  8G24G30G17G 4G 5G10G 6G 9
  21687036.814     6687671.69343   5215756.21242  21687038.463    21687037.195
  20195791.677   -21540731.49244 -16729355.87042  20195794.255    20195791.297
  24416438.708    -6124265.98543  -4757191.16342  24416440.551    24416444.515
  24475395.362    21359276.91443  16641225.47742  24475397.513    24475397.201
  20150018.668    -7075003.14144  -5501272.92742  20150020.142    20150018.025
  21141680.445   -16977274.67143 -13172674.15942  21141681.864    21141681.194
  22202315.997   -14875113.51943 -11242441.54242  22202318.107    22202316.972
  24729153.651    20879919.05343  16267013.98242  24729155.179    24729159.003
 03  3 25 19 11 29.9990000  0  7G24G30G17G 5G10G 6G 9
  21701258.643     6762407.87443   5273992.16242  21701260.279    21701259.060
  20188501.004   -21579044.19844 -16759209.92242  20188503.589    20188500.632
  24399094.482    -6215410.15143  -4828212.48542  24399096.274    24399100.176
  20156699.950    -7039892.98044  -5473914.39242  20156701.410    20156699.312
  21131691.011   -17029769.45643 -13213579.12542  21131692.424    21131691.729
  22190385.148   -14937810.25243 -11291296.11242  22190387.264    22190386.192
  24747044.913    20973937.48343  16340274.87642  24747046.484    24747050.220
 03  3 25 19 11 59.9990000  0  7G24G30G17G 5G10G 6G 9
  21715517.098     6837336.56643   5332378.11942  21715518.750    21715517.562
  20181307.487   -21616846.36644 -16788666.15742  20181310.074    20181307.132
  24381777.062    -6306413.57943  -4899124.16042  24381778.810    24381782.666
  20163479.905    -7004264.06244  -5446151.62742  20163481.380    20163479.324
  21121802.394   -17081734.46343 -13254071.28142  21121803.814    21121803.075
  22178467.629   -15000437.05743 -11340096.20142  22178469.734    22178468.689
  24764911.697    21067827.08543  16413435.39742  24764913.390    24764916.795
 03  3 25 19 12 29.9990000  0  7G24G30G17G 5G10G 6G 9
  21729809.904     6912445.50143   5390904.52342  21729811.550    21729810.331
  20174209.479   -21654146.68244 -16817731.33742  20174212.067    20174209.107
  24364484.592    -6397285.56443  -4969933.42442  24364486.317    24364490.182
  20170356.433    -6968127.62444  -5417993.39042  20170357.925    20170355.909
  21112013.002   -17133177.80543 -13294156.96042  21112014.444    21112013.672
  22166561.517   -15063003.90043 -11388849.56742  22166563.615    22166562.585
  24782751.552    21161575.08243  16486485.58342  24782753.221    24782756.790
 03  3 25 19 12 59.9990000  0  6G24G30G17G 5G10G 6
  21744139.692     6987748.78143   5449582.36142  21744141.317    21744140.090
  20167210.426   -21690926.90144 -16846391.24642  20167213.015    20167210.019
  24347220.528    -6488008.28543  -5040626.37042  24347222.272    24347225.995
  20177332.610    -6931467.77544  -5389427.30942  20177334.091    20177332.085
  21102326.475   -17184080.65643 -13333821.48042  21102327.903    21102327.118
  22154670.008   -15125493.80143 -11437542.95842  22154672.116    22154671.099
 03  3 25 19 13 29.9990000  0  6G24G30G17G 5G10G 6
  21758504.157     7063234.47843   5508402.34542  21758505.810    21758504.576
  20160308.916   -21727194.69344 -16874651.86242  20160311.497    20160308.450
  24329983.163    -6578590.67243  -5111209.96342  24329984.929    24329988.607
  20184406.448    -6894294.68144  -5360461.30142  20184407.938    20184405.916
  21092741.393   -17234450.42543 -13373070.61242  21092742.813    21092741.981
  22142791.483   -15187915.85743 -11486183.49642  22142793.534    22142792.557
 03  3 25 19 13 59.9990000  0  6G24G30G17G 5G10G 6
  21772905.177     7138912.38043   5567372.09942  21772906.870    21772905.634
  20153507.443   -21762936.72144 -16902502.79242  20153510.021    20153506.934
  24312775.043    -6669019.55843  -5181673.93842  24312776.886    24312780.438
  20191580.021    -6856597.54544  -5331086.94742  20191581.495    20191579.478
  21083260.416   -17284273.07143 -13411893.40242  21083261.856    21083260.983
  22130928.152   -15250257.83543 -11534761.61142  22130930.202    22130929.229
 03  3 25 19 14 29.9990000  0  6G24G30G17G 5G10G 6
  21787341.215     7214774.07743   5626485.07042  21787342.906    21787341.684
  20146805.096   -21798157.83044 -16929947.80842  20146807.678    20146804.599
  24295594.988    -6759300.82943  -5252022.88642  24295596.728    24295600.296
  20198851.988    -6818383.42244  -5301309.74642  20198853.451    20198851.409
  21073882.741   -17333552.77843 -13450293.13142  21073884.195    21073883.279
  22119078.905   -15312525.73543 -11583282.03142  22119080.948    22119079.997
 03  3 25 19 14 59.9990000  0  6G24G30G17G 5G10G 6
  21801810.263     7290809.08243   5685733.08242  21801811.934    21801810.708
  20140200.611   -21832864.69944 -16956992.12342  20140203.177    20140200.109
  24278441.697    -6849441.35743  -5322262.14542  24278443.469    24278447.066
  20206220.566    -6779661.36444  -5271136.74942  20206222.049    20206219.985
  21064607.226   -17382295.65743 -13488274.55142  21064608.694    21064607.755
  22107242.302   -15374727.51843 -11631750.92742  22107244.303    22107243.347
 03  3 25 19 15 29.9990000  0  6G24G30G17G 5G10G 6
  21816315.182     7367032.68543   5745128.05242  21816316.865    21816315.627
  20133697.609   -21867038.28544 -16983620.89142  20133700.177    20133697.102
  24261318.684    -6939422.79543  -5392377.41942  24261320.437    24261324.014
  20213688.956    -6740414.80544  -5240555.05342  20213690.441    20213688.387
  21055437.556   -17430482.50843 -13525822.70042  21055438.997    21055438.082
  22095421.655   -15436845.47143 -11680154.49842  22095423.630    22095422.671
 03  3 25 19 15 59.9990000  0  6G24G30G17G 5G10G 6
  21830853.864     7443433.85043   5804661.37842  21830855.567    21830854.317
  20127294.749   -21900685.44844 -17009839.45942  20127297.333    20127294.280
  24244224.441    -7029253.02543  -5462374.86542  24244226.138    24244229.818
  20221255.350    -6700653.20944  -5209572.02642  20221256.832    20221254.805
  21046372.501   -17478119.42843 -13562942.33642  21046373.943    21046373.027
  22083615.381   -15498887.74343 -11728499.08842  22083617.420    22083616.389
 03  3 25 19 16 29.9990000  0  6G24G30G17G 5G10G 6
  21845425.319     7520007.05343   5864328.76342  21845427.029    21845425.749
  20120991.685   -21933808.29244 -17035649.46542  20120994.256    20120991.259
  24227158.570    -7118933.95743  -5532255.96242  24227160.253    24227164.050
  20228918.954    -6660380.87644  -5178191.02442  20228920.433    20228918.382
  21037411.786   -17525207.94843 -13599634.62942  21037413.220    21037412.310
  22071822.894   -15560857.30743 -11776787.01642  22071825.034    22071823.983
 03  3 25 19 16 59.9990000  0  6G24G30G17G 5G10G 6
  21860028.563     7596747.36643   5924126.37542  21860030.293    21860028.981
  20114788.186   -21966407.82544 -17061051.69842  20114790.765    20114787.772
  24210120.777    -7208467.44143  -5602022.12942  24210122.455    24210126.323
  20236679.076    -6619601.35544  -5146414.80642  20236680.534    20236678.509
  21028555.334   -17571748.65543 -13635900.06342  21028556.742    21028555.855
  22060043.833   -15622756.48943 -11825020.09942  22060045.979    22060044.929
 03  3 25 19 17 29.9990000  0  6G24G30G17G 5G10G 6
  21874666.839     7673671.72243   5984067.37042  21874668.561    21874667.226
  20108688.132   -21998463.79844 -17086030.37342  20108690.705    20108687.711
  24193114.874    -7297833.56443  -5671657.88242  24193116.514    24193120.360
  20244539.075    -6578296.84044  -5114229.50642  20244540.541    20244538.527
  21019807.044   -17617720.88643 -13671722.52342  21019808.448    21019807.571
  22048281.829   -15684566.21043 -11873183.50242  22048283.959    22048282.898
 03  3 25 19 17 59.9990000  0  6G24G30G17G 5G10G 6
  21889335.764     7750757.10343   6044133.85142  21889337.472    21889336.135
  20102687.789   -22029995.79244 -17110600.75842  20102690.357    20102687.360
  24176137.034    -7387052.18143  -5741178.67542  24176138.777    24176142.543
  20252494.825    -6536489.28944  -5081652.22542  20252496.294    20252494.274
  21011163.350   -17663143.61943 -13707116.80542  21011164.771    21011163.869
  22036532.981   -15746306.76443 -11921292.99242  22036535.091    22036534.023
 03  3 25 19 18 29.9990000  0  6G24G30G17G 5G10G 6
  21904035.239     7828003.21543   6104325.58142  21904036.953    21904035.621
  20096787.901   -22060999.96944 -17134759.85742  20096790.462    20096787.453
  24159187.794    -7476120.43043  -5810582.29042  24159189.589    24159193.271
  20260546.538    -6494177.47144  -5048682.01942  20260547.986    20260545.976
  21002625.077   -17708012.49443 -13742079.51442  21002626.485    21002625.580
  22024797.783   -15807975.56943 -11969346.58342  22024799.864    22024798.789
 03  3 25 19 18 59.9990000  0  6G24G30G17G 5G10G 6
  21918764.077     7905403.64743   6164637.54442  21918765.799    21918764.490
  20090987.918   -22091479.08244 -17158509.81442  20090990.479    20090987.470
  24142266.492    -7565041.69343  -5879871.37342  24142268.381    24142272.015
  20268693.217    -6451366.44444  -5015322.82142  20268694.661    20268692.679
  20994191.760   -17752329.67443 -13776612.32542  20994193.154    20994192.274
  22013075.584   -15869576.29343 -12017347.13542  22013077.636    22013076.552
 03  3 25 19 19 29.9990000  0  6G24G30G17G 5G10G 6
  21933524.710     7982971.14243   6225079.68642  21933526.448    21933525.113
  20085290.897   -22121417.15844 -17181838.18342  20085293.455    20085290.459
  24125376.054    -7653800.71243  -5949034.02042  24125378.046    24125381.518
  20276937.430    -6408042.81044  -4981564.18542  20276938.874    20276936.926
  20985866.530   -17796078.85343 -13810702.53642  20985867.924    20985867.040
  22001369.158   -15931094.00243 -12065282.99242  22001371.205    22001370.078
 03  3 25 19 19 59.9990000  0  6G24G30G17G 5G10G 6
  21948313.032     8060684.07243   6285635.16342  21948314.749    21948313.429
  20079693.399   -22150832.13644 -17204758.94442  20079695.965    20079692.963
  24108513.012    -7742415.73443  -6018084.46042  24108515.021    24108518.460
  20285275.360    -6364226.77744  -4947421.85942  20285276.812    20285274.856
  20977646.031   -17839277.52943 -13844363.78442  20977647.428    20977646.561
  21989674.905   -15992547.50843 -12113168.81942  21989676.965    21989675.845
 03  3 25 19 20 29.9990000  0  6G24G30G17G 5G10G 6
  21963135.659     8138577.35643   6346331.17342  21963137.410    21963136.096
  20074202.730   -22179685.74944 -17227242.27442  20074205.284    20074202.334
  24091684.590    -7830848.75943  -6086993.09342  24091686.664    24091690.044
  20293713.817    -6319882.50844  -4912867.91942  20293715.279    20293713.324
  20969537.690   -17881886.94743 -13877565.87242  20969539.045    20969538.208
  21977999.961   -16053899.67943 -12160975.68642  21978002.011    21978000.893
 03  3 25 19 20 59.9990000  0  6G24G30G17G 5G10G 6
  21977988.559     8216629.64243   6407151.07842  21977990.314    21977988.993
  20068815.531   -22207995.86844 -17249302.10842  20068818.057    20068815.111
  24074887.324    -7919118.30643  -6155774.35142  24074889.411    24074892.690
  20302248.930    -6275030.38744  -4877918.24642  20302250.396    20302248.427
  20961538.139   -17923924.64743 -13910322.46942  20961539.483    20961538.642
  21966340.720   -16115169.14443 -12208718.10542  21966342.755    21966341.686
 03  3 25 19 21 29.9990000  0  6G24G30G17G 5G10G 6
  21992870.396     8294834.11543   6468089.57742  21992872.171    21992870.833
  20063531.108   -22235765.69444 -17270940.92742  20063533.663    20063530.719
  24058120.405    -8007227.96243  -6224431.03542  24058122.544    24058125.789
  20310879.607    -6229676.01644  -4842577.20942  20310881.075    20310879.113
  20953646.917   -17965393.22443 -13942635.57842  20953648.256    20953647.356
  21954696.486   -16176359.88943 -12256399.17542  21954698.528    21954697.431
 03  3 25 19 21 59.9990000  0  6G24G30G17G 5G10G 6
  22007781.655     8373192.94043   6529148.34442  22007783.419    22007782.044
  20058350.596   -22262989.48844 -17292154.27242  20058353.129    20058350.206
  24041385.000    -8095172.31943  -6292958.92742  24041387.056    24041390.250
  20319606.456    -6183816.18544  -4806842.31442  20319607.940    20319605.992
  20945865.074   -18006286.96243 -13974500.77442  20945866.412    20945865.452
  21943068.090   -16237467.37843 -12304015.37942  21943070.137    21943068.991
 03  3 25 19 22 29.9990000  0  6G24G30G17G 5G10G 6
  22022720.395     8451696.47943   6590319.87442  22022722.164    22022720.816
  20053272.813   -22289673.48244 -17312946.99242  20053275.353    20053272.396
  24024679.777    -8182958.34543  -6361363.45842  24024681.675    24024684.854
  20328427.871    -6137459.45944  -4770720.22042  20328429.361    20328427.407
  20938191.625   -18046610.87643 -14005921.95542  20938192.990    20938191.983
  21931454.282   -16298498.37943 -12351571.96942  21931456.323    21931455.110
 03  3 25 19 22 59.9990000  0  6G24G30G17G 5G10G 6
  22037687.029     8530346.49643   6651605.54042  22037688.781    22037687.441
  20048298.705   -22315812.63544 -17333315.16042  20048301.265    20048298.277
  24008005.685    -8270581.12843  -6429640.81842  24008007.481    24008010.588
  20337344.333    -6090603.35344  -4734208.99442  20337345.822    20337343.870
  20930627.658   -18086359.61943 -14036894.95242  20930628.991    20930627.981
  21919855.826   -16359448.62243 -12399065.63842  21919857.857    21919856.608
 03  3 25 19 23 29.9990000  0  6G24G30G17G 5G10G 6
  22052682.070     8609145.51843   6713007.30942  22052683.734    22052682.433
  20043429.363   -22341401.15844 -17353254.26642  20043431.933    20043428.926
  23991363.678    -8358035.36343  -6497786.85442  23991365.452    23991368.336
  20346356.458    -6043244.54844  -4697306.06142  20346357.953    20346356.015
  20923174.261   -18125527.19043 -14067415.09342  20923175.599    20923174.565
  21908273.606   -16420313.44743 -12446492.74242  21908275.647    21908274.359
 03  3 25 19 23 59.9990000  0  6G24G30G17G 5G10G 6
  22067704.350     8688087.96443   6774520.84242  22067705.983    22067704.736
  20038664.440   -22366441.11044 -17372765.91242  20038666.993    20038663.966
  23974753.194    -8445323.57943  -6565803.52942  23974754.933    23974757.617
  20355463.344    -5995387.73544  -4660015.06342  20355464.824    20355462.940
  20915831.192   -18164115.09843 -14097483.54442  20915832.526    20915831.460
  21896707.158   -16481095.48143 -12493855.33842  21896709.235    21896707.885
 03  3 25 19 24 29.9990000  0  6G24G30G17G 5G10G 6
  22082753.565     8767171.73643   6836144.49642  22082755.171    22082753.891
  20034004.061   -22390931.56244 -17391849.37642  20034006.627    20034003.578
  23958174.392    -8532444.96943  -6633690.22942  23958176.237    23958178.875
  20364664.761    -5947034.08244  -4622336.92342  20364666.260    20364664.377
  20908598.687   -18202122.01443 -14127099.28042  20908600.046    20908598.942
  21885156.493   -16541794.46143 -12541153.20242  21885158.603    21885157.229
 03  3 25 19 24 59.9990000  0  6G24G30G17G 5G10G 6
  22097829.401     8846395.67943   6897877.37742  22097831.034    22097829.751
  20029448.704   -22414870.22144 -17410502.87342  20029451.263    20029448.178
  23941627.613    -8619398.20543  -6701445.88942  23941629.385    23941632.128
  20373960.705    -5898183.73244  -4584271.74242  20373962.212    20373960.318
  20901477.256   -18239545.18643 -14156260.14842  20901478.643    20901477.509
  21873621.979   -16602408.73743 -12588385.06142  21873624.077    21873622.699
 03  3 25 19 25 29.9990000  0  6G24G30G17G 5G10G 6
  22112929.741     8925748.34743   6959710.57142  22112931.398    22112930.108
  20024996.808   -22438265.16544 -17428732.69442  20024999.360    20024996.254
  23925111.352    -8706191.31843  -6769076.79142  23925113.119    23925115.904
  20383349.153    -5848847.32944  -4545827.81942  20383350.630    20383348.740
  20894465.431   -18276392.40143 -14184972.22442  20894466.850    20894465.675
  21862101.854   -16662947.19243 -12635557.84142  21862103.973    21862102.608
 03  3 25 19 25 59.9990000  0  6G24G30G17G 5G10G 6
  22128056.125     9005237.90943   7021650.42942  22128057.830    22128056.527
  20020650.524   -22461104.94744 -17446529.92542  20020653.086    20020649.990
  23908627.678    -8792813.04143  -6836574.14142  23908629.453    23908632.209
  20392831.770    -5799015.92744  -4506998.19042  20392833.253    20392831.361
  20887565.533   -18312651.57143 -14213226.07742  20887566.946    20887565.798
  21850598.210   -16723399.06843 -12682663.15842  21850600.334    21850598.949
 03  3 25 19 26 29.9990000  0  6G24G30G17G 5G10G 6
  22143209.659     9084869.82843   7083701.21242  22143211.354    22143210.021
  20016411.492   -22483380.99244 -17463887.87842  20016414.059    20016411.017
  23892178.173    -8879255.49143  -6903931.79842  23892179.888    23892182.675
  20402409.774    -5748683.27544  -4467777.97042  20402411.249    20402409.387
  20880779.219   -18348313.96943 -14241014.91742  20880780.606    20880779.466
  21839112.525   -16783756.42143 -12729694.82042  21839114.638    21839113.286
 03  3 25 19 26 59.9990000  0  6G24G30G17G 5G10G 6
  22158388.098     9164632.95143   7145854.24942  22158389.824    22158388.486
  20012278.191   -22505101.52044 -17480812.96542  20012280.748    20012277.748
  23875761.201    -8965526.93343  -6971156.19942  23875762.865    23875765.791
  20412081.131    -5697860.00044  -4428175.44642  20412082.621    20412080.767
  20874104.983   -18383387.25243 -14268344.70942  20874106.381    20874105.210
  21827643.176   -16844028.05943 -12776659.68142  21827645.292    21827643.940
 03  3 25 19 27 29.9990000  0  6G24G30G17G 5G10G 6
  22173589.962     9244518.91143   7208102.98942  22173591.674    22173590.345
  20008249.625   -22526271.43844 -17497309.00442  20008252.191    20008249.248
  23859375.729    -9051632.82843  -7038251.60142  23859377.357    23859380.295
  20421844.474    -5646553.53544  -4388196.41242  20421845.936    20421844.107
  20867541.982   -18417875.74243 -14295218.82242  20867543.381    20867542.200
  21816189.149   -16904219.31043 -12823561.91542  21816191.240    21816189.896
 03  3 25 19 27 59.9990000  0  6G24G30G17G 5G10G 6
  22188816.632     9324535.40243   7270453.44342  22188818.329    22188817.025
  20004327.938   -22546880.05744 -17513367.66942  20004330.458    20004327.560
  23843023.789    -9137562.46243  -7105209.64542  23843025.495    23843028.323
  20431701.310    -5594755.63044  -4347834.44342  20431702.783    20431700.946
  20861092.358   -18451768.53643 -14321628.76142  20861093.740    20861092.566
  21804752.309   -16964320.08143 -12870393.64442  21804754.422    21804753.080
 03  3 25 19 28 29.9990000  0  6G24G30G17G 5G10G 6
  22204068.544     9404684.56243   7332907.28842  22204070.250    22204068.961
  20000514.128   -22566921.74744 -17528984.57542  20000516.639    20000513.751
  23826706.341    -9223310.64843  -7172026.28842  23826708.123    23826710.886
  20441652.235    -5542463.20444  -4307087.13142  20441653.699    20441651.875
  20854757.202   -18485060.04743 -14347570.17042  20854758.541    20854757.350
  21793333.643   -17024325.50443 -12917151.08342  21793335.763    21793334.395
 03  3 25 19 28 59.9990000  0  6G24G30G17G 5G10G 6
  22219345.087     9484962.91643   7395461.79142  22219346.750    22219345.485
  19996808.047   -22586397.32244 -17544160.35142  19996810.559    19996807.671
  23810423.244    -9308878.49443  -7238702.42242  23810425.120    23810427.711
  20451696.669    -5489679.46844  -4265956.98442  20451698.122    20451696.291
  20848536.366   -18517750.70343 -14373043.38842  20848537.671    20848536.488
  21781932.917   -17084236.70943 -12963835.10742  21781935.026    21781933.645
 03  3 25 19 29 29.9990000  0  6G24G30G17G 5G10G 6
  22234645.535     9565366.76543   7458114.08942  22234647.183    22234645.896
  19993209.606   -22605307.33744 -17558895.43142  19993212.126    19993209.214
  23794174.310    -9394266.56043  -7305238.45042  23794176.240    23794178.778
  20461834.038    -5436407.25244  -4224446.20242  20461835.508    20461833.693
  20842429.936   -18549840.22143 -14398048.18642  20842431.232    20842430.005
  21770549.906   -17144054.63443 -13010446.44842  21770552.023    21770550.626
 03  3 25 19 29 59.9990000  0  6G24G30G17G 5G10G 6
  22249966.520     9645878.70643   7520850.60942  22249968.171    22249966.864
  19989716.030   -22623666.29944 -17573201.12042  19989718.562    19989715.627
  23777956.766    -9479489.96243  -7371646.16842  23777958.733    23777961.211
  20472061.179    -5382663.50244  -4182567.98442  20472062.639    20472060.815
  20836435.203   -18581342.77843 -14422595.61042  20836436.500    20836435.218
  21759181.773   -17203794.41543 -13056996.90242  21759183.879    21759182.460
 03  3 25 19 30 29.9990000  0  6G24G30G17G 5G10G 6
  22265311.060     9726514.68743   7583683.79342  22265312.782    22265311.408
  19986330.902   -22641455.34044 -17587062.71642  19986333.429    19986330.454
  23761774.163    -9564529.81543  -7437910.86742  23761776.113    23761778.506
  20482381.202    -5328431.61844  -4140309.40342  20482382.656    20482380.839
  20830555.837   -18612238.96943 -14446670.54542  20830557.106    20830555.804
  21747832.062   -17263437.45143 -13103471.96642  21747834.169    21747832.688
 03  3 25 19 30 59.9990000  0  6G24G30G17G 5G10G 6
  22280677.661     9807266.22543   7646607.02442  22280679.365    22280677.954
  19983053.197   -22658679.75744 -17600484.34542  19983055.724    19983052.753
  23745625.421    -9649391.79143  -7504036.96642  23745627.321    23745629.724
  20492792.569    -5273719.58344  -4097676.68442  20492794.029    20492792.226
  20824790.818   -18642534.00343 -14470277.04642  20824792.103    20824790.828
  21736499.718   -17322989.40143 -13149876.05642  21736501.811    21736500.259
 03  3 25 19 31 29.9990000  0  6G24G30G17G 5G10G 6
  22296063.587     9888119.78043   7709609.76042  22296065.332    22296063.933
  19979880.852   -22675350.52144 -17613474.55942  19979883.383    19979880.429
  23729508.392    -9734086.92443  -7570033.05142  23729510.242    23729512.659
  20503292.794    -5218540.68644  -4054680.18042  20503294.262    20503292.461
  20819138.209   -18672238.37843 -14493423.29742  20819139.493    20819138.248
  21725182.597   -17382461.39943 -13196217.83042  21725184.690    21725183.057
 03  3 25 19 31 59.9990000  0  6G24G30G17G 5G10G 6
  22311470.936     9969085.76243   7772700.08842  22311472.682    22311471.312
  19976816.481   -22691453.98644 -17626022.71942  19976819.019    19976816.038
  23713425.682    -9818601.63243  -7635888.54942  23713427.458    23713429.967
  20513883.950    -5162883.91944  -4011311.30842  20513885.405    20513883.639
  20813600.628   -18701338.34743 -14516098.57942  20813601.912    20813600.703
  21713883.170   -17441840.35543 -13242487.11942  21713885.269    21713883.591
 03  3 25 19 32 29.9990000  0  6G24G30G17G 5G10G 6
  22326900.896    10050170.55443   7835883.00042  22326902.637    22326901.293
  19973861.783   -22706980.95444 -17638121.66542  19973864.327    19973861.367
  23697378.987    -9902927.01143  -7701596.53342  23697380.803    23697383.247
  20524567.363    -5106742.32044  -3967564.65142  20524568.798    20524567.091
  20808179.921   -18729824.22543 -14538295.35442  20808181.205    20808180.011
  21702603.130   -17501117.21743 -13288676.85642  21702605.253    21702603.520
 03  3 25 19 32 59.9990000  0  6G24G30G17G 5G10G 6
  22342352.454    10131368.76243   7899154.28142  22342354.188    22342352.851
  19971016.308   -22721933.98744 -17649773.39042  19971018.854    19971015.912
  23681367.719    -9987066.24943  -7767159.46042  23681369.486    23681371.985
  20535342.064    -5050120.96144  -3923444.15142  20535343.501    20535341.825
  20802875.630   -18757698.45843 -14560015.52242  20802876.898    20802875.737
  21691341.954   -17560295.01943 -13334789.39642  21691344.091    21691342.336
 03  3 25 19 33 29.9990000  0  6G24G30G17G 5G10G 6
  22357824.432    10212674.54543   7962509.38842  22357826.174    22357824.843
  19968279.480   -22736316.22244 -17660980.33742  19968281.989    19968279.081
  23665391.422   -10071022.17743  -7832579.57142  23665393.089    23665395.513
  20546207.061    -4993025.23244  -3878954.00942  20546208.467    20546206.818
  20797687.294   -18784963.34843 -14581260.88442  20797688.559    20797687.396
  21680099.011   -17619376.89943 -13380827.20642  21680101.133    21680099.392
 03  3 25 19 33 59.9990000  0  6G24G30G17G 5G10G 6
  22373317.022    10294088.30443   8025948.63142  22373318.721    22373317.408
  19965651.864   -22750124.46344 -17671740.01242  19965654.368    19965651.495
  23649450.502   -10154791.94243  -7897854.62142  23649452.156    23649454.572
  20557162.481    -4935454.27344  -3834093.55842  20557163.882    20557162.226
  20792615.528   -18811615.53643 -14602028.81442  20792616.789    20792615.638
  21668874.857   -17678359.95143 -13426787.99942  21668876.963    21668875.266
 03  3 25 19 34 29.9990000  0  6G24G30G17G 5G10G 6
  22388828.826    10375603.03443   8089466.56342  22388830.490    22388829.208
  19963132.688   -22763362.90344 -17682055.69042  19963135.184    19963132.324
  23633544.217   -10238379.54043  -7962987.72842  23633545.877    23633548.268
  20568207.068    -4877414.76444  -3788868.00142  20568208.464    20568206.783
  20787659.619   -18837659.05743 -14622322.45242  20787660.870    20787659.718
  21657668.661   -17737248.68143 -13472675.29042  21657670.758    21657669.065
 03  3 25 19 34 59.9990000  0  6G24G30G17G 5G10G 6
  22404360.561    10457222.87343   8153066.38742  22404362.242    22404361.024
  19960723.219   -22776024.83744 -17691922.14742  19960725.731    19960722.845
  23617673.867   -10321778.29343  -8027973.68042  23617675.549    23617677.924
  20579341.579    -4818902.41644  -3743273.99942  20579343.001    20579341.348
  20782820.923   -18863086.62243 -14642136.12642  20782822.161    20782820.985
  21646481.720   -17796036.36843 -13518483.84542  21646483.808    21646482.092
 03  3 25 19 35 29.9990000  0  6G24G30G17G 5G10G 6
  22419911.949    10538945.82243   8216746.55442  22419913.623    22419912.427
  19958423.582   -22788109.61444 -17701338.86942  19958426.080    19958423.215
  23601839.511   -10404987.96343  -8092812.29842  23601841.212    23601843.486
  20590565.771    -4759918.88544  -3697312.84042  20590567.189    20590565.596
  20778099.548   -18887897.51143 -14661469.27542  20778100.849    20778099.638
  21635314.083   -17854722.52443 -13564213.29242  21635316.179    21635314.465
 03  3 25 19 35 59.9990000  0  6G24G30G17G 5G10G 6
  22435480.718    10620760.21043   8280497.98642  22435482.379    22435481.230
  19956232.097   -22799625.99844 -17710312.68842  19956234.589    19956231.721
  23586039.429   -10488017.27143  -8157510.37142  23586041.170    23586043.483
  20601877.513    -4700475.42344  -3650993.29642  20601878.935    20601877.367
  20773493.920   -18912100.24643 -14680328.53442  20773495.232    20773494.000
  21624164.107   -17913315.92343 -13609870.45342  21624166.211    21624164.506
 03  3 25 19 36 29.9990000  0  6G24G30G17G 5G10G 6
  22451068.691    10702675.42943   8344327.96742  22451070.280    22451069.248
  19954150.995   -22810562.20744 -17718834.41942  19954153.488    19954150.649
  23570276.052   -10570854.10743  -8222058.46542  23570277.798    23570280.180
  20613278.607    -4640562.51144  -3604307.94642  20613280.020    20613278.456
  20769006.369   -18935682.58143 -14698704.36342  20769007.663    20769006.422
  21613034.014   -17971804.81843 -13655446.19242  21613036.144    21613034.427
 03  3 25 19 36 59.9990000  0  6G24G30G17G 5G10G 6
  22466675.839    10784691.54043   8408236.56642  22466677.448    22466676.381
  19952180.835   -22820915.52844 -17726901.95842  19952183.322    19952180.493
  23554549.762   -10653496.34443  -8286454.90542  23554551.525    23554553.828
  20624769.118    -4580179.75744  -3557256.49542  20624770.538    20624768.962
  20764637.447   -18958641.42943 -14716594.35342  20764638.743    20764637.484
  21601924.353   -18030186.49643 -13700938.38242  21601926.449    21601924.727
 03  3 25 19 37 29.9990000  0  6G24G30G17G 5G10G 6
  22482301.582    10866805.29743   8472221.26842  22482303.179    22482302.186
  19950321.507   -22830686.44544 -17734515.67042  19950323.980    19950321.176
  23538860.315   -10735944.40743  -8350700.03742  23538862.141    23538864.436
  20636348.495    -4519329.94944  -3509841.09842  20636349.923    20636348.352
  20760387.052   -18980977.29643 -14733998.90242  20760388.355    20760387.095
  21590834.917   -18088461.77243 -13746347.65542  21590837.025    21590835.278
 03  3 25 19 37 59.9990000  0  6G24G30G17G 5G10G 6
  22497942.000    10948996.19743   8536266.07242  22497943.596    22497942.699
  19948569.478   -22839893.49744 -17741690.00942  19948571.950    19948569.139
  23523204.378   -10818216.46643  -8414808.01442  23523206.278    23523208.540
  20648012.789    -4458033.88544  -3462077.96642  20648014.220    20648012.665
  20756251.799   -19002708.16143 -14750932.01942  20756253.102    20756251.844
  21579762.277   -18146648.79443 -13791688.16042  21579764.411    21579762.636
 03  3 25 19 38 29.9990000  0  6G24G30G17G 5G10G 6
  22513598.339    11031270.45543   8600375.81842  22513599.871    22513599.084
  19946926.472   -22848527.65644 -17748417.94042  19946928.937    19946926.124
  23507583.493   -10900303.96243  -8478772.16142  23507585.509    23507587.666
  20659763.242    -4396285.16744  -3413962.11842  20659764.670    20659763.109
  20752233.400   -19023824.83943 -14767386.55342  20752234.720    20752233.433
  21568708.134   -18204738.59843 -13836952.90842  21568710.279    21568708.503
 03  3 25 19 38 59.9990000  0  6G24G30G17G 5G10G 6
  22529275.496    11113654.08243   8664570.78442  22529276.991    22529276.297
  19945397.872   -22856560.60644 -17754677.39642  19945400.347    19945397.519
  23492003.243   -10982178.31343  -8542570.21642  23492005.253    23492007.366
  20671604.754    -4334057.71144  -3365473.23342  20671606.212    20671604.644
  20748337.365   -19044298.72143 -14783340.20642  20748338.667    20748337.346
  21557677.921   -18262702.64843 -13882119.66842  21557680.061    21557678.330
 03  3 25 19 39 29.9990000  0  6G24G30G17G 5G10G 6
  22544966.860    11196112.62343   8728824.13042  22544968.368    22544967.744
  19943977.681   -22864024.00744 -17760493.04842  19943980.142    19943977.303
  23476457.618   -11063870.74043  -8606226.50142  23476459.563    23476461.755
  20683530.913    -4271385.47344  -3316637.76842  20683532.365    20683530.807
  20744557.627   -19064161.08243 -14798817.34442  20744558.947    20744557.617
  21546665.589   -18320572.64943 -13927213.14542  21546667.696    21546666.034
 03  3 25 19 39 59.9990000  0  6G24G30G17G 5G10G 6
  22560671.860    11278642.47843   8793133.03842  22560673.308    22560672.744
  19942665.627   -22870918.92544 -17765865.72842  19942668.135    19942665.261
  23460946.318   -11145382.53043  -8669742.03342  23460948.258    23460950.390
  20695541.084    -4208271.87244  -3267458.38942  20695542.530    20695540.951
  20740894.120   -19083412.78443 -14813818.64842  20740895.430    20740894.091
  21535671.021   -18378349.39743 -13972233.96542  21535673.078    21535671.446
 03  3 25 19 40 29.9990000  0  6G24G30G17G 5G10G 6
  22576393.364    11361259.31943   8857509.72742  22576394.762    22576394.301
  19941465.129   -22877227.53744 -17770781.54242  19941467.652    19941464.782
  23445472.653   -11226696.21843  -8733103.19342  23445474.605    23445476.796
  20707638.196    -4144701.34944  -3217922.95942  20707639.639    20707638.039
  20737350.258   -19102035.80043 -14828330.06942  20737351.570    20737350.223
  21524697.648   -18436014.73043 -14017167.96742  21524699.658    21524698.081
 03  3 25 19 40 59.9990000  0  6G24G30G17G 5G10G 6
  22592130.184    11443956.99943   8921949.42042  22592131.645    22592131.234
  19940375.422   -22882954.04744 -17775243.77242  19940377.945    19940375.071
  23430036.024   -11307815.36943  -8796312.77442  23430037.927    23430040.139
  20719820.974    -4080680.66944  -3168036.75942  20719822.395    20719820.792
  20733925.255   -19120034.10143 -14842354.69642  20733926.595    20733925.240
  21513744.624   -18493572.74043 -14062018.34242  21513746.632    21513745.070
 03  3 25 19 41 29.9990000  0  6G24G30G17G 5G10G 6
  22607886.088    11526754.53543   8986466.90842  22607887.479    22607887.078
  19939400.543   -22888077.03644 -17779235.72942  19939403.066    19939400.203
  23414640.487   -11388718.78543  -8859354.25242  23414642.347    23414644.603
  20732093.038    -4016190.71644  -3117784.90042  20732094.436    20732092.849
  20730623.226   -19137386.19243 -14855875.77342  20730624.569    20730623.245
  21502816.142   -18551001.92543 -14106768.32942  21502818.136    21502816.583
 03  3 25 19 41 59.9990000  0  6G24G30G17G 5G10G 6
  22623654.549    11609618.20343   9051035.93142  22623655.905    22623655.562
  19938534.572   -22892627.78044 -17782781.77842  19938537.087    19938534.217
  23399280.125   -11469437.35643  -8922251.70042  23399281.921    23399284.253
  20744448.042    -3951264.85744  -3067193.36842  20744449.452    20744447.850
  20727438.362   -19154122.71343 -14868917.18342  20727439.690    20727438.400
  21491906.347   -18608333.21543 -14151442.03642  21491908.332    21491906.748
 03  3 25 19 42 29.9990000  0  6G24G30G17G 5G10G 6
  22639437.583    11692558.74243   9115664.85742  22639438.950    22639438.668
  19937779.949   -22896593.39044 -17785871.88242  19937782.456    19937779.605
  23383957.393   -11549958.10143  -8984995.00742  23383959.205    23383961.518
  20756888.055    -3885892.33544  -3016253.78942  20756889.443    20756887.888
  20724373.109   -19170230.61143 -14881468.75642  20724374.428    20724373.153
  21481017.676   -18665553.44643 -14196029.20542  21481019.693    21481018.069
 03  3 25 19 42 59.9990000  0  6G24G30G17G 5G10G 6
  22655236.237    11775581.07543   9180357.50942  22655237.600    22655237.366
  19937138.003   -22899966.80944 -17788500.53742  19937140.490    19937137.695
  23368673.595   -11630274.18343  -9047578.83642  23368675.430    23368677.781
  20769414.008    -3820068.27144  -2964962.35442  20769415.377    20769413.827
  20721428.817   -19185702.69543 -14893524.89042  20721430.151    20721428.857
  21470151.600   -18722654.93843 -14240523.84742  21470153.600    21470152.011
 03  3 25 19 43 29.9990000  0  6G24G30G17G 5G10G 6
  22671047.134    11858667.57543   9245100.16042  22671048.467    22671048.302
  19936605.918   -22902763.10944 -17790679.49242  19936608.389    19936605.609
  23353426.035   -11710400.38443  -9110014.72042  23353427.867    23353430.149
  20782022.525    -3753810.17644  -2913332.72242  20782023.910    20782022.373
  20718602.708   -19200553.88143 -14905097.21042  20718604.025    20718602.722
  21459305.314   -18779652.66943 -14284937.64242  21459307.277    21459305.700
 03  3 25 19 43 59.9990000  0  6G24G30G17G 5G10G 6
  22686870.902    11941821.96343   9309895.71842  22686872.282    22686872.112
  19936184.712   -22904976.63244 -17792404.33242  19936187.182    19936184.390
  23338215.755   -11790330.42443  -9172297.75242  23338217.551    23338219.822
  20794714.316    -3687114.64244  -2861362.22042  20794715.680    20794714.162
  20715895.857   -19214778.26743 -14916181.11042  20715897.168    20715895.902
  21448479.916   -18836540.49243 -14329265.78942  21448481.913    21448480.313
 03  3 25 19 44 29.9990000  0  6G24G30G17G 5G10G 6
  22702708.231    12025047.24843   9374746.51542  22702709.628    22702709.464
  19935875.345   -22906602.35844 -17793671.15042  19935877.834    19935875.043
  23323043.772   -11870059.40943  -9234424.13742  23323045.544    23323047.640
  20807489.855    -3619978.96444  -2809048.75742  20807491.226    20807489.713
  20713309.272   -19228370.66843 -14926772.56242  20713310.598    20713309.348
  21437676.519   -18893312.74643 -14373503.88242  21437678.525    21437676.896
 03  3 25 19 44 59.9990000  0  6G24G30G17G 5G10G 6
  22718558.085    12108338.60743   9439648.80242  22718559.549    22718559.372
  19935677.359   -22907642.85844 -17794481.94842  19935679.849    19935677.055
  23307909.662   -11949589.47243  -9296395.51942  23307911.409    23307913.415
  20820348.223    -3552407.93344  -2756396.05642  20820349.600    20820348.097
  20710842.516   -19241333.57443 -14936873.50042  20710843.817    20710842.582
  21426894.650   -18949971.78943 -14417653.75742  21426896.704    21426895.036
 03  3 25 19 45 29.9990000  0  6G24G30G17G 5G10G 6
  22734420.170    12191694.17243   9504601.11942  22734421.664    22734421.453
  19935590.749   -22908098.15344 -17794836.73942  19935593.240    19935590.422
  23292813.403   -12028920.47943  -9358211.79942  23292815.171    23292817.078
  20833289.052    -3484403.57644  -2703405.70042  20833290.438    20833288.934
  20708495.664   -19253666.40043 -14946483.46642  20708496.981    20708495.718
  21416134.463   -19006516.90443 -14461714.85342  21416136.558    21416134.839
 03  3 25 19 45 59.9990000  0  6G24G30G17G 5G10G 6
  22750296.675    12275125.76943   9569612.67542  22750298.241    22750298.017
  19935618.104   -22907954.48144 -17794724.80442  19935620.614    19935617.799
  23277757.682   -12108038.68243  -9419862.27142  23277759.462    23277761.294
  20846314.490    -3415954.62644  -2650068.91442  20846315.866    20846314.391
  20706271.334   -19265355.29043 -14955591.66842  20706272.655    20706271.379
  21405398.640   -19062934.12143 -14505676.29542  21405400.745    21405398.967
 03  3 25 19 46 29.9990000  0  6G24G30G17G 5G10G 6
  22766185.526    12358621.75643   9634674.40842  22766187.119    22766186.855
  19935757.594   -22907221.52244 -17794153.68442  19935760.122    19935757.292
  23262740.630   -12186953.36743  -9481354.15542  23262742.468    23262744.218
  20859422.241    -3347073.00344  -2596394.97642  20859423.614    20859422.180
  20704167.775   -19276409.66743 -14964205.44942  20704169.083    20704167.738
  21394685.438   -19119232.29043 -14549544.96442  21394687.573    21394685.764
 03  3 25 19 46 59.9990000  0  6G24G30G17G 5G10G 6
  22782086.347    12442180.63843   9699785.14842  22782087.999    22782087.659
  19936009.377   -22905898.48444 -17793122.76442  19936011.891    19936009.082
  23247762.522   -12265663.61443  -9542686.74142  23247764.381    23247766.112
  20872612.075    -3277760.05944  -2542384.94342  20872613.430    20872612.052
  20702185.094   -19286828.64743 -14972324.11242  20702186.404    20702185.031
  21383995.185   -19175409.97543 -14593319.75942  21383997.323    21383995.468
 03  3 25 19 47 29.9990000  0  6G24G30G17G 5G10G 6
  22797994.900    12525780.16343   9764927.57042  22797996.546    22797996.178
  19936369.488   -22904006.18844 -17791648.27142  19936372.017    19936369.165
  23232819.413   -12344189.85243  -9603875.95142  23232821.313    23232823.005
  20885879.597    -3208038.80243  -2488056.74142  20885880.935    20885879.602
  20700319.367   -19296633.09643 -14979963.92742  20700320.683    20700319.290
  21373323.961   -19231487.63243 -14637016.61242  21373326.095    21373324.220
 03  3 25 19 47 59.9990000  0  6G24G30G17G 5G10G 6
  22813914.561    12609437.99243   9830115.40942  22813916.238    22813915.842
  19936841.700   -22901524.87344 -17789714.79942  19936844.228    19936841.349
  23217915.243   -12422511.65343  -9664905.85942  23217917.101    23217918.775
  20899228.236    -3137891.50644  -2433396.56442  20899229.539    20899228.229
  20698574.380   -19305803.00144 -14987109.28442  20698575.680    20698574.280
  21362675.693   -19287444.64243 -14680619.45442  21362677.802    21362675.938
 03  3 25 19 48 29.9990000  0  6G24G30G17G 5G10G 6
  22829847.627    12693166.22443   9895358.11342  22829849.317    22829848.870
  19937428.653   -22898440.61044 -17787311.50242  19937431.156    19937428.289
  23203052.662   -12500614.81343  -9725765.39742  23203054.554    23203056.161
  20912660.147    -3067306.48644  -2378395.31542  20912661.470    20912660.151
  20696952.885   -19314323.88744 -14993748.91342  20696954.193    20696952.778
  21352053.148   -19343266.34543 -14724116.86242  21352055.249    21352053.396
 03  3 25 19 48 59.9990000  0  6G24G30G17G 5G10G 6
  22845790.295    12776945.03543   9960640.21342  22845791.989    22845791.554
  19938126.978   -22894771.06144 -17784452.13942  19938129.453    19938126.596
  23188228.267   -12578516.88343  -9786468.22542  23188230.236    23188231.780
  20926171.582    -2996303.50544  -2323068.38342  20926172.922    20926171.620
  20695451.509   -19322213.65643 -14999896.76342  20695452.825    20695451.368
  21341453.110   -19398969.82943 -14767522.15442  21341455.194    21341453.339
 03  3 25 19 49 29.9990000  0  6G24G30G17G 5G10G 6
  22861744.251    12860783.33943  10025968.67842  22861745.929    22861745.533
  19938938.688   -22890505.77544 -17781128.56242  19938941.168    19938938.293
  23173444.327   -12656206.80443  -9847005.76042  23173446.258    23173447.733
  20939764.156    -2924874.17744  -2267409.22642  20939765.516    20939764.230
  20694072.297   -19329461.45444 -15005544.37842  20694073.588    20694072.123
  21330877.702   -19454543.93443 -14810826.62742  21330879.765    21330877.893
 03  3 25 19 49 59.9990000  0  6G24G30G17G 5G10G 6
  22877706.237    12944663.82643  10091330.02742  22877707.893    22877707.534
  19939860.713   -22885660.74844 -17777353.24342  19939863.194    19939860.301
  23158697.791   -12733700.00043  -9907389.98742  23158699.647    23158701.151
  20953434.447    -2853036.62844  -2211431.97742  20953435.804    20953434.512
  20692812.254   -19336083.00544 -15010704.00542  20692813.561    20692812.036
  21320324.057   -19510003.62943 -14854041.95342  21320326.100    21320324.247
 03  3 25 19 50 29.9990000  0  6G24G30G17G 5G10G 6
  22893679.153    13028601.88243  10156736.23042  22893680.810    22893680.469
  19940896.387   -22880218.35144 -17773112.43742  19940898.867    19940895.982
  23143991.975   -12810979.02743  -9967607.32942  23143993.823    23143995.325
  20967185.333    -2780775.61444  -2155124.75042  20967186.684    20967185.380
  20691674.683   -19342060.84043 -15015362.03842  20691675.983    20691674.488
  21309795.646   -19565330.78843 -14897154.00242  21309797.669    21309795.816
 03  3 25 19 50 59.9990000  0  6G24G30G17G 5G10G 6
  22909661.729    13112590.58643  10222181.88442  22909663.355    22909663.058
  19942044.645   -22874184.13244 -17768410.47242  19942047.136    19942044.279
  23129326.014   -12888048.79743 -10027661.61442  23129327.822    23129329.335
  20981015.352    -2708098.75344  -2098493.49342  20981016.712    20981015.371
  20690658.550   -19347400.46743 -15019522.76642  20690659.848    20690658.360
  21299291.535   -19620530.01743 -14940166.37142  21299293.585    21299291.715
 03  3 25 19 51 29.9990000  0  6G24G30G17G 5G10G 6
  22925652.624    13196622.68643  10287661.36442  22925654.230    22925653.907
  19943304.451   -22867563.76044 -17763251.76142  19943306.927    19943304.115
  23114698.905   -12964914.39043 -10087556.78842  23114700.760    23114702.215
  20994922.991    -2635013.80244  -2041544.24742  20994924.374    20994923.025
  20689762.886   -19352106.97843 -15023190.15742  20689764.175    20689762.721
  21288810.931   -19675605.92743 -14983082.64542  21288812.986    21288811.120
 03  3 25 19 51 59.9990000  0  6G24G30G17G 5G10G 6
  22941651.503    13280696.93143  10353173.68442  22941653.096    22941652.741
  19944675.887   -22860356.84744 -17757636.00642  19944678.379    19944675.577
  23100110.849   -13041574.95443 -10147292.20342  23100112.726    23100114.079
  21008907.944    -2561522.43444  -1984278.31242  21008909.353    21008908.019
  20688987.728   -19356180.17543 -15026364.06342  20688989.003    20688987.605
  21278354.037   -19730557.29743 -15025901.87342  21278356.105    21278354.248
 03  3 25 19 52 29.9990000  0  6G24G30G17G 5G10G 6
  22957656.564    13364803.95943  10418711.54542  22957658.236    22957657.784
  19946157.437   -22852571.18944 -17751569.28342  19946159.926    19946157.179
  23085560.376   -13118037.87343 -10206873.60042  23085562.313    23085563.560
  21022968.448    -2487634.23544  -1926703.16142  21022969.847    21022968.544
  20688331.729   -19359627.40143 -15029050.19742  20688332.986    20688331.568
  21267919.601   -19785390.68043 -15068629.15642  21267921.669    21267919.810
 03  3 25 19 52 59.9990000  0  6G24G30G17G 5G10G 6
  22973672.863    13448969.76743  10484295.21442  22973674.509    22973674.055
  19947754.401   -22844179.06544 -17745029.99142  19947756.874    19947754.155
  23071052.878   -13194275.10743 -10266279.16242  23071054.797    23071055.997
  21037109.285    -2413323.92844  -1868799.09742  21037110.672    21037109.392
  20687800.122   -19362420.96143 -15031226.98842  20687801.359    20687799.940
  21257513.046   -19840077.69143 -15111242.39142  21257515.099    21257513.209
 03  3 25 19 53 29.9990000  0  6G24G30G17G 5G10G 6
  22989697.405    13533178.72043  10549912.49742  22989699.075    22989698.549
  19949464.027   -22835195.11744 -17738029.53342  19949466.498    19949463.743
  23056585.624   -13270300.54143 -10325519.67142  23056587.568    23056588.747
  21051327.320    -2338607.82543  -1810578.82042  21051328.717    21051327.472
  20687390.182   -19364575.11443 -15032905.53642  20687391.418    20687389.995
  21247131.734   -19894631.87543 -15153752.13242  21247133.793    21247131.897
 03  3 25 19 53 59.9990000  0  6G24G30G17G 5G10G 6
  23005730.348    13617431.53143  10615563.94842  23005731.999    23005731.414
  19951286.730   -22825616.83144 -17730565.96142  19951289.190    19951286.436
  23042159.243   -13346111.34843 -10384592.93642  23042161.194    23042162.352
  21065622.693    -2263485.62044  -1752042.11042  21065624.052    21065622.832
  20687102.380   -19366087.46543 -15034083.98042  20687103.610    20687102.200
  21236776.345   -19949049.76143 -15196155.65442  21236778.409    21236776.524
 03  3 25 19 54 29.9990000  0  6G24G30G17G 5G10G 6
  23021769.945    13701719.87243  10681243.08542  23021771.636    23021770.999
  19953221.260   -22815450.93844 -17722644.51142  19953223.714    19953220.961
  23027772.484   -13421713.90443 -10443503.93342  23027774.387    23027775.550
  21079993.667    -2187966.03544  -1693195.75042  21079995.022    21079993.817
  20686935.481   -19366964.49243 -15034767.37242  20686936.701    20686935.294
  21226445.802   -20003337.08843 -15238457.45142  21226447.846    21226445.968
 03  3 25 19 54 59.9990000  0  6G24G30G17G 5G10G 6
  23037813.628    13786029.99843  10746939.21742  23037815.411    23037814.751
  19955265.185   -22804710.13444 -17714275.08042  19955267.639    19955264.881
  23013423.162   -13497119.89043 -10502261.76642  23013425.050    23013426.152
  21094437.479    -2112063.79344  -1634051.21742  21094438.827    21094437.616
  20686887.062   -19367218.99243 -15034965.68342  20686888.264    20686886.829
  21216137.959   -20057505.11643 -15280666.28442  21216140.020    21216138.124
 03  3 25 19 55 29.9990000  0  6G24G30G17G 5G10G 6
  23053865.619    13870383.43443  10812669.08142  23053867.361    23053866.757
  19957422.875   -22793371.18244 -17705439.56142  19957425.378    19957422.639
  22999115.746   -13572305.81943 -10560848.12542  22999117.553    22999118.636
  21108958.141    -2035757.60144  -1574591.91342  21108959.501    21108958.273
  20686961.538   -19366827.65843 -15034660.74642  20686962.744    20686961.244
  21205857.429   -20111529.61243 -15322763.28042  21205859.474    21205857.556
 03  3 25 19 55 59.9990000  0  6G24G30G17G 5G10G 6
  23069925.277    13954777.45843  10878430.57442  23069926.986    23069926.498
  19959694.113   -22781435.80844 -17696139.29542  19959696.622    19959693.883
  22984849.995   -13647272.51943 -10619263.65942  22984851.757    22984852.789
  21123554.964    -1959051.16244  -1514820.72742  21123556.337    21123555.100
  20687158.634   -19365791.82143 -15033853.59642  20687159.846    20687158.343
  21195604.079   -20165411.12643 -15364748.85642  21195606.109    21195604.216
 03  3 25 19 56 29.9990000  0  6G24G30G17G 5G10G 6
  23085990.601    14039200.92543  10944215.00542  23085992.239    23085991.880
  19962077.035   -22768913.71744 -17686381.84842  19962079.527    19962076.761
  22970624.200   -13722029.15843 -10677515.50042  22970625.962    22970627.014
  21138225.674    -1881956.27744  -1454746.86042  21138227.063    21138225.825
  20687476.541   -19364121.15843 -15032551.77842  20687477.762    20687476.248
  21185376.345   -20219158.10943 -15406629.60542  21185378.369    21185376.501
 03  3 25 19 56 59.9990000  0  6G24G30G17G 5G10G 6
  23102061.857    14123655.75843  11010023.89542  23102063.488    23102063.175
  19964572.168   -22755801.85144 -17676164.83842  19964574.656    19964571.895
  22956439.100   -13796572.00343 -10735600.76042  22956440.814    22956441.896
  21152970.516    -1804471.87744  -1394369.47342  21152971.911    21152970.690
  20687915.874   -19361812.58444 -15030752.89242  20687917.064    20687915.556
  21175174.988   -20272766.31043 -15448402.21142  21175176.984    21175175.204
 03  3 25 19 57 29.9990000  0  6G24G30G17G 5G10G 6
  23118139.006    14208141.40243  11075856.78342  23118140.619    23118140.341
  19967179.722   -22742099.24244 -17665487.50742  19967182.207    19967179.450
  22942295.061   -13870899.44043 -10793518.18542  22942296.741    22942297.798
  21167789.333    -1726598.89444  -1333689.29642  21167790.702    21167789.502
  20688476.743   -19358865.26844 -15028456.28342  20688477.921    20688476.439
  21165000.469   -20326233.45143 -15490064.90842  21165002.468    21165000.733
 03  3 25 19 57 59.9990000  0  6G24G30G17G 5G10G 6
  23134223.051    14292663.36043  11141717.97042  23134224.725    23134224.446
  19969900.937   -22727799.30244 -17654344.72442  19969903.416    19969900.672
  22928193.300   -13945004.62943 -10851262.42342  22928194.987    22928195.962
  21182682.905    -1648332.90044  -1272702.87242  21182684.290    21182683.104
  20689160.450   -19355272.41244 -15025656.65842  20689161.645    20689160.180
  21154854.279   -20379551.74143 -15531611.60942  21154856.274    21154854.571
 03  3 25 19 58 29.9990000  0  6G24G30G17G 5G10G 6
  23150312.462    14377213.41043  11207601.04342  23150314.068    23150313.940
  19972734.479   -22712909.19644 -17642742.07242  19972736.933    19972734.200
  22914132.532   -14018894.13743 -10908838.59942  22914134.244    22914135.227
  21197649.568    -1569682.76144  -1211417.11642  21197650.977    21197649.801
  20689965.703   -19351040.95844 -15022359.42942  20689966.887    20689965.427
  21144735.311   -20432726.97443 -15573046.83542  21144737.335    21144735.621
 03  3 25 19 58 59.9990000  0  6G24G30G17G 5G10G 6
  23166404.302    14461776.40043  11273494.20242  23166405.829    23166405.803
  19975677.659   -22697442.93044 -17630690.46342  19975680.113    19975677.375
  22900110.442   -14092580.69643 -10966256.63142  22900112.129    22900113.136
  21212686.316    -1490664.38644  -1149844.41742  21212687.722    21212686.571
  20690889.812   -19346184.90344 -15018575.49742  20690890.989    20690889.555
  21134641.194   -20485771.79643 -15614380.44542  21134643.199    21134641.501
 03  3 25 19 59 29.9990000  0  6G24G30G17G 5G10G 6
  23182500.807    14546363.85343  11339406.43542  23182502.302    23182502.430
  19978732.875   -22681387.78144 -17618179.98442  19978735.351    19978732.618
  22886129.417   -14166051.08843 -11023506.22342  22886131.133    22886132.144
  21227795.224    -1411266.93643  -1087976.34142  21227796.624    21227795.468
  20691935.158   -19340691.52844 -15014294.95042  20691936.331    20691934.944
  21124574.562   -20538672.19243 -15655601.51442  21124576.568    21124574.850
 03  3 25 19 59 59.9990000  0  6G24G30G17G 5G10G 6
  23198601.681    14630974.08743  11405336.40742  23198603.098    23198603.322
  19981900.042   -22664744.44344 -17605211.17642  19981902.520    19981899.787
  22872189.673   -14239304.71243 -11080586.90742  22872191.416    22872192.404
  21242975.796    -1331492.80244  -1025814.74442  21242977.210    21242976.050
  20693101.719   -19334561.08843 -15009517.99342  20693102.881    20693101.546
  21114535.626   -20591427.17443 -15696709.27442  21114537.632    21114535.866
 03  3 25 20  0 29.9990000  0  6G24G30G17G 5G10G 6
  23214707.274    14715609.02143  11471285.61442  23214708.603    23214708.964
  19985179.632   -22647510.21344 -17591781.93742  19985182.108    19985179.362
  22858291.734   -14312338.50343 -11137496.29642  22858293.516    22858294.486
  21258228.103    -1251341.51043   -963359.25442  21258229.549    21258228.408
  20694390.009   -19327791.07443 -15004242.67442  20694391.154    20694389.829
  21104525.115   -20644032.80644 -15737700.65342  21104527.117    21104525.309
 03  3 25 20  0 59.9990000  0  6G24G30G17G 5G10G 6
  23230818.219    14800272.73043  11537257.26842  23230819.546    23230819.963
  19988572.611   -22629679.99344 -17577888.28442  19988575.087    19988572.385
  22844436.720   -14385146.82043 -11194229.98042  22844438.516    22844439.463
  21273552.823    -1170809.66343   -900607.22442  21273554.299    21273553.180
  20695800.988   -19320376.42244 -14998465.03942  20695802.133    20695800.774
  21094544.264   -20696482.46044 -15778570.49042  21094546.301    21094544.452
 03  3 25 20  1 29.9990000  0  6G24G30G17G 5G10G 6
  23246931.575    14884948.14143  11603238.01542  23246932.918    23246933.177
  19992075.955   -22611269.94044 -17563542.81642  19992078.410    19992075.755
  22830621.700   -14457745.28643 -11250800.15142  22830623.450    22830624.391
  21288946.563    -1089915.25543   -837572.68542  21288948.007    21288946.949
  20697331.653   -19312332.94644 -14992197.41042  20697332.770    20697331.390
  21084590.328   -20748790.83744 -15819330.23942  21084592.377    21084590.468
 03  3 25 20  1 59.9990000  0  6G24G30G17G 5G10G 6
  23263047.207    14969636.12643  11669228.59242  23263048.618    23263048.830
  19995690.015   -22592278.10544 -17548744.01342  19995692.477    19995689.820
  22816847.176   -14530130.67343 -11307204.28742  22816848.954    22816849.849
  21304409.362    -1008658.04243   -774255.44742  21304410.762    21304409.747
  20698982.291   -19303658.84643 -14985438.39342  20698983.421    20698982.025
  21074663.971   -20800954.27044 -15859977.04742  21074666.040    21074664.071
 03  3 25 20  2 29.9990000  0  6G24G30G17G 5G10G 6
  23279164.859    15054334.46043  11735227.21242  23279166.245    23279166.441
  19999414.540   -22572705.80044 -17533492.89842  19999417.007    19999414.321
  22803113.069   -14602303.58343 -11363442.85742  22803114.870    22803115.738
  21319940.590     -927041.33743   -710658.08142  21319941.947    21319940.947
  20700752.672   -19294355.36443 -14978188.95142  20700753.806    20700752.413
  21064765.225   -20852972.61644 -15900510.79542  21064767.307    21064765.286
 03  3 25 20  2 59.9990000  0  6G24G30G17G 5G10G 6
  23295288.542    15139065.00943  11801250.94942  23295290.065    23295290.180
  20003253.846   -22552530.22544 -17517771.69642  20003256.296    20003253.638
  22789423.925   -14674240.22543 -11419497.32942  22789425.734    22789426.629
  21335544.209     -845044.00843   -646764.12742  21335545.589    21335544.582
  20702647.229   -19284399.61544 -14970431.24442  20702648.353    20702646.907
  21054898.730   -20904821.43344 -15940912.43942  21054900.834    21054898.768
 03  3 25 20  3 29.9990000  0  6G24G30G17G 5G10G 6
  23311413.914    15223804.14243  11867281.34842  23311415.507    23311415.584
  20007203.573   -22531774.33444 -17501598.30142  20007206.033    20007203.378
  22775775.569   -14745962.74143 -11475384.93642  22775777.344    22775778.266
  21351215.599     -762690.71943   -582592.80342  21351216.961    21351215.943
  20704661.516   -19273814.63644 -14962183.22542  20704662.644    20704661.150
  21045060.434   -20956522.04944 -15981198.61242  21045062.521    21045060.438
 03  3 25 20  3 59.9990000  0  6G24G30G17G 5G10G 6
  23327540.437    15308549.09743  11933316.29142  23327542.048    23327542.086
  20011263.345   -22510440.28744 -17484974.39742  20011265.789    20011263.156
  22762167.644   -14817472.71243 -11531106.93742  22762169.396    22762170.359
  21366953.918     -679985.57043   -518147.30242  21366955.303    21366954.272
  20706795.132   -19262602.52344 -14953446.53142  20706796.281    20706794.767
  21035250.239   -21008074.91244 -16021369.64942  21035252.333    21035250.235
 03  3 25 20  4 29.9990000  0  6G24G30G17G 5G10G 6
  23343669.444    15393307.37643  11999361.63442  23343671.119    23343671.059
  20015434.695   -22488519.77544 -17467893.51142  20015437.152    20015434.513
  22748601.913   -14888760.80043 -11586656.03742  22748603.673    22748604.673
  21382760.477     -596921.82343   -453422.38042  21382761.861    21382760.854
  20709049.728   -19250754.67044 -14944214.45142  20709050.894    20709049.389
  21025470.067   -21059469.92044 -16061417.68442  21025472.161    21025470.071
 03  3 25 20  4 59.9990000  0  6G24G30G17G 5G10G 6
  23359802.573    15478087.17843  12065423.71642  23359804.228    23359804.191
  20019719.351   -22466003.70244 -17450348.54742  20019721.825    20019719.210
  22735080.272   -14959817.25443 -11642024.63642  22735082.047    22735083.065
  21398636.667     -513492.16343   -388412.32342  21398638.039    21398637.079
  20711427.023   -19238262.11544 -14934480.00242  20711428.216    20711426.688
  21015721.986   -21110696.40244 -16101334.40142  21015724.073    21015721.986
 03  3 25 20  5 29.9990000  0  6G24G30G17G 5G10G 6
  23375934.642    15562861.10343  12131481.25842  23375936.197    23375936.197
  20024112.228   -22442919.01244 -17432360.49542  20024114.698    20024112.077
  22721597.851   -15030667.53443 -11697232.58642  22721599.603    22721600.654
  21414577.040     -429725.13043   -323139.39142  21414578.406    21414577.484
  20713921.903   -19225151.61344 -14924264.03542  20713923.124    20713921.543
  21006001.210   -21161779.21944 -16141139.16842  21006003.297    21006001.239
 03  3 25 20  5 59.9990000  0  6G24G30G17G 5G10G 6
  23392071.002    15647657.97143  12197556.63642  23392072.511    23392072.554
  20028619.017   -22419235.89944 -17413906.15042  20028621.473    20028618.840
  22708160.561   -15101280.96843 -11752255.98042  22708162.280    22708163.336
  21430586.983     -345592.64343   -257581.68542  21430588.348    21430587.425
  20716540.026   -19211393.30844 -14913543.28242  20716541.250    20716539.654
  20996313.776   -21212686.95444 -16180807.50942  20996315.845    20996313.791
 03  3 25 20  6 29.9990000  0  6G24G30G17G 5G10G 6
  23408208.364    15732460.31843  12263636.29342  23408209.962    23408209.991
  20033236.389   -22394971.53344 -17394998.87842  20033238.843    20033236.228
  22694765.172   -15171673.98743 -11807107.61042  22694766.916    22694767.942
  21446662.897     -261113.60843   -191753.94242  21446664.235    21446663.320
  20719278.113   -19197004.57844 -14902331.28642  20719279.332    20719277.727
  20986656.755   -21263434.92744 -16220351.36342  20986658.821    20986656.759
 03  3 25 20  6 59.9990000  0  6G24G30G17G 5G10G 6
  23424344.938    15817258.19443  12329712.47642  23424346.546    23424346.536
  20037962.610   -22370135.24144 -17375645.95542  20037965.061    20037962.427
  22681410.159   -15241854.96843 -11861794.01142  22681411.887    22681412.890
  21462802.609     -176299.03443   -125664.74742  21462803.940    21462803.067
  20722134.390   -19181994.64844 -14890635.24042  20722135.619    20722134.022
  20977028.725   -21314030.49244 -16259776.46542  20977030.786    20977028.741
 03  3 25 20  7 29.9990000  0  6G24G30G17G 5G10G 6
  23440483.364    15902065.91343  12395796.31542  23440484.960    23440485.004
  20042800.514   -22344712.06144 -17355835.71342  20042802.948    20042800.334
  22668098.538   -15311807.60443 -11916302.49142  22668100.293    22668101.297
  21479008.650      -91135.76543    -59303.83742  21479009.983    21479009.155
  20725111.726   -19166348.61244 -14878443.52242  20725112.967    20725111.338
  20967432.874   -21364456.89944 -16299069.75242  20967434.946    20967432.908
 03  3 25 20  7 59.9990000  0  6G24G30G17G 5G10G 6
  23456622.357    15986876.79543  12461882.63642  23456623.940    23456624.083
  20047748.923   -22318708.23744 -17335573.02042  20047751.362    20047748.708
  22654829.368   -15381537.40743 -11970637.33842  22654831.137    22654832.036
  21495279.567       -5631.74743      7322.58442  21495280.873    21495280.110
  20728208.920   -19150072.68144 -14865760.97442  20728210.160    20728208.528
  20957868.374   -21414718.56044 -16338234.66142  20957870.449    20957868.432
 03  3 25 20  8 29.9990000  0  6G24G30G17G 5G10G 6
  23472760.850    16071684.80643  12527966.71542  23472762.465    23472762.508
  20052806.774   -22292129.23444 -17314862.13842  20052809.218    20052806.531
  22641601.724   -15451048.81343 -12024801.99742  22641603.502    22641604.328
  21511614.003       80206.08943     74209.13242  21511615.298    21511614.625
  20731424.934   -19133172.38543 -14852591.91242  20731426.148    20731424.576
  20948334.577   -21464818.76544 -16377273.76542  20948336.643    20948334.667
 03  3 25 20  8 59.9990000  0  6G24G30G17G 5G10G 6
  23488897.300    16156481.97343  12594042.33842  23488898.935    23488898.920
  20057972.647   -22264982.63544 -17293708.97242  20057975.078    20057972.348
  22628414.409   -15520348.45343 -12078801.64742  22628416.169    22628416.880
  21528010.279      166368.66843    141348.72042  21528011.561    21528010.919
  20734758.299   -19115655.26244 -14838942.20642  20734759.519    20734757.999
  20938830.417   -21514763.34944 -16416191.60442  20938832.465    20938830.474
 03  3 25 20  9 29.9990000  0  6G24G30G17G 5G10G 6
  23505033.497    16241277.95143  12660117.03742  23505035.118    23505035.230
  20063248.385   -22237258.63144 -17272105.88042  20063250.823    20063248.074
  22615269.502   -15589425.14043 -12132627.57342  22615271.262    22615271.872
  21544469.952      252864.46843    208747.96842  21544471.248    21544470.624
  20738210.975   -19097511.33943 -14824804.08642  20738212.199    20738210.733
  20929358.198   -21564540.18444 -16454978.73542  20929360.209    20929358.210
 03  3 25 20  9 59.9990000  0  6G24G30G17G 5G10G 6
  23521169.506    16326072.56243  12726190.65842  23521171.124    23521171.245
  20068634.029   -22208956.87944 -17250052.59942  20068636.481    20068633.728
  22602167.175   -15658277.89243 -12186279.00142  22602168.962    22602169.505
  21560992.767      339692.03743    276405.72042  21560994.051    21560993.456
  20741782.963   -19078740.34743 -14810177.34442  20741784.202    20741782.737
  20919918.324   -21614147.00344 -16493633.38642  20919920.333    20919918.285
 03  3 25 20 10 29.9990000  0  6G24G30G17G 5G10G 6
  23537307.311    16410876.93943  12792271.91742  23537308.985    23537309.054
  20074131.797   -22180066.12244 -17227540.35242  20074134.236    20074131.483
  22589109.948   -15726893.81643 -12239745.89142  22589111.717    22589112.221
  21577580.517      426861.08843    344329.56942  21577581.849    21577581.268
  20745476.429   -19059331.04144 -14795053.21542  20745477.680    20745476.225
  20910513.318   -21663570.43444 -16532145.13742  20910515.340    20910513.285
 03  3 25 20 10 59.9990000  0  6G24G30G17G 5G10G 6
  23553446.099    16495686.23743  12858356.99742  23553447.839    23553447.802
  20079740.805   -22150590.77044 -17204572.57342  20079743.241    20079740.504
  22576097.136   -15795276.48343 -12293031.01742  22576098.880    22576099.336
  21594232.159      514365.57343    412514.79242  21594233.478    21594232.904
  20749290.537   -19039287.90444 -14779435.19342  20749291.742    20749290.304
  20901142.800   -21712812.76844 -16570515.77042  20901144.789    20901142.752
 03  3 25 20 11 29.9990000  0  6G24G30G17G 5G10G 6
  23569579.675    16580468.10043  12924420.70042  23569581.447    23569581.364
  20085454.970   -22120562.75544 -17181174.15242  20085457.410    20085454.698
  22563122.739   -15863457.00343 -12346158.62542  22563124.492    22563124.951
  21610941.249      602171.94243    480935.25342  21610942.566    21610941.979
  20753219.163   -19018642.91044 -14763348.19142  20753220.353    20753218.927
  20891801.047   -21761903.95444 -16608768.62642  20891803.034    20891801.001
 03  3 25 20 11 59.9990000  0  6G24G30G17G 5G10G 6
  23585713.878    16665253.21443  12990486.93442  23585715.647    23585715.524
  20091280.079   -22089951.65644 -17157321.37742  20091282.525    20091279.829
  22550192.937   -15931403.29043 -12399103.73642  22550194.697    22550195.184
  21627713.316      690309.26043    549613.59042  21627714.637    21627714.027
  20757268.157   -18997365.36944 -14746768.30242  20757269.323    20757267.919
  20882494.318   -21810811.25944 -16646878.20542  20882496.301    20882494.241
 03  3 25 20 12 29.9990000  0  6G24G30G17G 5G10G 6
  23601847.346    16750034.64143  13056550.29142  23601849.066    23601848.977
  20097214.969   -22058763.69144 -17133019.10142  20097217.394    20097214.712
  22537306.669   -15999120.83243 -12451870.59842  22537308.434    22537308.932
  21644546.893      778769.72143    618543.73342  21644548.193    21644547.572
  20761436.269   -18975461.72344 -14729700.54242  20761437.465    20761436.040
  20873221.779   -21859538.82044 -16684847.72342  20873223.753    20873221.694
 03  3 25 20 12 59.9990000  0  6G24G30G17G 5G10G 6
  23617977.015    16834796.49043  13122598.39942  23617978.718    23617978.701
  20103256.757   -22027014.14844 -17108279.22742  20103259.182    20103256.433
  22524461.234   -16066623.72843 -12504470.20442  22524463.034    22524463.546
  21661438.737      867536.40543    687712.49942  21661440.041    21661439.392
  20765720.579   -18952947.46244 -14712156.97642  20765721.768    20765720.366
  20863980.939   -21908099.67444 -16722687.33642  20863982.926    20863980.871
 03  3 25 20 13 29.9990000  0  6G24G30G17G 5G10G 6
  23634106.273    16919556.02043  13188644.68942  23634107.906    23634108.005
  20109408.498   -21994686.55444 -17083088.92442  20109410.948    20109408.201
  22511660.173   -16133893.61443 -12556888.25042  22511661.953    22511662.508
  21678391.722      956624.46043    757131.68242  21678393.026    21678392.367
  20770124.246   -18929806.02444 -14694124.70642  20770125.424    20770124.042
  20854775.420   -21956474.93344 -16760382.32742  20854777.403    20854775.377
 03  3 25 20 13 59.9990000  0  6G24G30G17G 5G10G 6
  23650233.470    17004304.36843  13254682.26942  23650234.987    23650235.190
  20115668.642   -21961789.45944 -17057454.85242  20115671.092    20115668.362
  22498901.934   -16200938.51243 -12609130.97942  22498903.716    22498904.234
  21695403.941     1046023.92143    826793.51142  21695405.259    21695404.601
  20774645.700   -18906045.67544 -14675610.16342  20774646.888    20774645.523
  20845604.053   -22004670.70944 -16797937.45642  20845606.017    20845604.024
 03  3 25 20 14 29.9990000  0  6G24G30G17G 5G10G 6
  23666358.036    17089039.09843  13320709.24342  23666359.484    23666359.808
  20122036.761   -21928324.97644 -17031378.66342  20122039.223    20122036.494
  22486186.365   -16267759.13243 -12661198.94742  22486188.148    22486188.630
  21712474.734     1135731.12443    896695.13742  21712476.038    21712475.388
  20779284.503   -18881668.69944 -14656615.13442  20779285.689    20779284.357
  20836466.783   -22052687.16344 -16835352.86242  20836468.752    20836466.789
 03  3 25 20 14 59.9990000  0  6G24G30G17G 5G10G 6
  23682479.499    17173757.55643  13386723.54942  23682480.906    23682481.280
  20128512.331   -21894295.83144 -17004862.47542  20128514.784    20128512.071
  22473513.182   -16334356.93743 -12713093.29242  22473514.960    22473515.405
  21729603.311     1225742.06643    966833.45042  21729604.604    21729603.973
  20784040.151   -18856677.88444 -14637141.78642  20784041.329    20784039.984
  20827363.633   -22100524.55044 -16872628.72742  20827365.603    20827363.608
 03  3 25 20 15 29.9990000  0  6G24G30G17G 5G10G 6
  23698600.003    17258470.72043  13452733.70142  23698601.309    23698601.809
  20135097.390   -21859691.17344 -16977897.83842  20135099.853    20135097.158
  22460884.673   -16400719.90543 -12764804.65242  22460886.450    22460886.887
  21746791.492     1316066.19443   1037215.79642  21746792.798    21746792.158
  20788914.685   -18831062.37344 -14617181.66442  20788915.862    20788914.470
  20818297.095   -22148169.50044 -16909754.64342  20818299.090    20818297.067
 03  3 25 20 15 59.9990000  0  6G24G30G17G 5G10G 6
  23714717.210    17343166.44643  13518730.29342  23714718.506    23714718.992
  20141789.726   -21824523.00044 -16950494.10242  20141792.151    20141789.493
  22448298.901   -16466858.34643 -12816341.04942  22448300.650    22448301.105
  21764036.738     1406690.17743   1107831.79542  21764038.032    21764037.418
  20793905.722   -18804834.39544 -14596744.29542  20793906.922    20793905.488
  20809265.334   -22195631.65944 -16946738.12642  20809267.348    20809265.255
 03  3 25 20 16 29.9990000  0  6G24G30G17G 5G10G 6
  23730831.327    17427846.04343  13584714.28842  23730832.623    23730833.038
  20148589.486   -21788790.09344 -16922650.31242  20148591.917    20148589.274
  22435756.276   -16532770.12443 -12867700.83042  22435758.027    22435758.481
  21781339.019     1497613.95343   1178681.39942  21781340.323    21781339.741
  20799013.565   -18777992.68044 -14575828.68642  20799014.782    20799013.279
  20800269.056   -22242907.39944 -16983576.34142  20800271.074    20800268.926
 03  3 25 20 16 59.9990000  0  6G24G30G17G 5G10G 6
  23746942.183    17512509.07543  13650685.40042  23746943.611    23746943.899
  20155496.527   -21752493.29944 -16894367.13142  20155498.970    20155496.345
  22423256.813   -16598455.05243 -12918883.84142  22423258.556    22423259.014
  21798697.944     1588835.29443   1249762.87642  21798699.248    21798698.673
  20804238.012   -18750538.01444 -14554435.45142  20804239.244    20804237.738
  20791308.557   -22289995.04244 -17020267.98942  20791310.578    20791308.397
 03  3 25 20 17 29.9990000  0  6G24G30G17G 5G10G 6
  23763047.122    17597140.62843  13716631.98942  23763048.568    23763048.915
  20162508.086   -21715647.24544 -16865655.95342  20162510.560    20162507.948
  22410798.099   -16663925.73843 -12969899.90142  22410799.875    22410800.336
  21816110.434     1680338.27543   1321063.81242  21816111.751    21816111.184
  20809576.339   -18722484.98344 -14532575.95642  20809577.561    20809576.043
  20782381.522   -22336906.67844 -17056822.48942  20782383.553    20782381.393
 03  3 25 20 17 59.9990000  0  6G24G30G17G 5G10G 6
  23779148.284    17681752.41843  13782563.16542  23779149.799    23779150.120
  20169626.404   -21678240.42744 -16836507.81842  20169628.861    20169626.269
  22398382.628   -16729169.43143 -13020739.08842  22398384.360    22398384.859
  21833578.462     1772133.12043   1392592.17842  21833579.782    21833579.258
  20815030.641   -18693822.43944 -14510241.51342  20815031.863    20815030.338
  20773490.643   -22383628.51244 -17093229.09242  20773492.659    20773490.496
 03  3 25 20 18 29.9990000  0  6G24G30G17G 5G10G 6
  23795247.652    17766354.62443  13848486.87042  23795249.192    23795249.512
  20176853.255   -21640263.05344 -16806915.09142  20176855.732    20176853.171
  22386012.357   -16794175.45843 -13071393.07742  22386014.076    22386014.618
  21851103.660     1864228.14343   1464354.45242  21851104.957    21851104.467
  20820602.803   -18664540.51844 -14487424.43542  20820604.023    20820602.497
  20764638.233   -22430148.12344 -17129478.10842  20764640.274    20764638.074
 03  3 25 20 18 59.9990000  0  6G24G30G17G 5G10G 6
  23811342.913    17850935.43743  13914393.89442  23811344.429    23811344.872
  20184186.408   -21601727.22944 -16776887.21042  20184188.877    20184186.339
  22373685.284   -16858954.22443 -13121869.98042  22373687.048    22373687.557
  21868683.449     1956609.99643   1536340.22342  21868684.731    21868684.251
  20826290.528   -18634651.29944 -14464134.13642  20826291.727    20826290.236
  20755822.519   -22476474.97644 -17165576.93342  20755824.554    20755822.356
 03  3 25 20 19 29.9990000  0  6G24G30G17G 5G10G 6
  23827434.722    17935498.39043  13980287.00442  23827436.258    23827436.791
  20191626.506   -21562629.41544 -16746421.41842  20191628.949    20191626.453
  22361402.418   -16923500.95843 -13172166.07542  22361404.152    22361404.636
  21886318.262     2049281.07143   1608551.35442  21886319.552    21886319.085
  20832094.477   -18604151.30744 -14440367.91042  20832095.679    20832094.203
  20747044.633   -22522602.85044 -17201520.70442  20747046.694    20747044.500
 03  3 25 20 19 59.9990000  0  6G24G30G17G 5G10G 6
  23843526.440    18020060.43743  14046179.40942  23843527.884    23843528.418
  20199176.689   -21522953.19544 -16715504.92142  20199179.133    20199176.642
  22349167.104   -16987797.77743 -13222267.44142  22349168.813    22349169.266
  21904010.999     2142256.28843   1680999.48042  21904012.242    21904011.793
  20838017.786   -18573024.13844 -14416112.97242  20838019.007    20838017.478
  20738308.255   -22568512.73344 -17237294.62142  20738310.320    20738308.150
 03  3 25 20 20 29.9990000  0  6G24G30G17G 5G10G 6
  23859609.487    18104576.86443  14112036.28142  23859610.953    23859611.481
  20206828.375   -21482743.39844 -16684172.65442  20206830.821    20206828.361
  22336971.105   -17051887.87143 -13272207.71042  22336972.814    22336973.241
  21921752.793     2235489.60243   1753648.72442  21921754.026    21921753.585
  20844051.886   -18541314.71544 -14391404.32742  20844053.123    20844051.557
  20729605.319   -22614246.94544 -17272931.65042  20729607.387    20729605.222
 03  3 25 20 20 59.9990000  0  6G24G30G17G 5G10G 6
  23875683.498    18189046.27343  14177856.51042  23875684.953    23875685.542
  20214581.311   -21442001.76644 -16652425.97142  20214583.728    20214581.262
  22324814.358   -17115771.68843 -13321987.25242  22324816.091    22324816.478
  21939543.125     2328978.28643   1826496.95142  21939544.407    21939543.983
  20850196.467   -18509024.75644 -14366243.31642  20850197.700    20850196.128
  20720936.100   -22659804.12544 -17308430.72942  20720938.142    20720935.972
 03  3 25 20 21 29.9990000  0  6G24G30G17G 5G10G 6
  23891753.266    18273493.32143  14243659.30342  23891754.700    23891755.322
  20222440.010   -21400704.19344 -16620246.08942  20222442.438    20222439.964
  22312701.728   -17179423.74743 -13371586.20442  22312703.469    22312703.815
  21957386.412     2422745.22743   1899562.00542  21957387.669    21957387.312
  20856456.020   -18476130.40944 -14340611.35842  20856457.273    20856455.726
  20712305.591   -22705157.81244 -17343771.24442  20712307.639    20712305.436
 03  3 25 20 21 59.9990000  0  6G24G30G17G 5G10G 6
  23907818.795    18357917.98543  14309444.66742  23907820.323    23907820.841
  20230404.391   -21358851.16244 -16587633.37942  20230406.837    20230404.375
  22300633.429   -17242843.10843 -13421003.82842  22300635.147    22300635.458
  21975282.331     2516788.80143   1972842.60842  21975283.606    21975283.272
  20862830.499   -18442632.22343 -14314508.86942  20862831.730    20862830.257
  20703714.241   -22750305.77944 -17378951.46242  20703716.267    20703714.050
 03  3 25 20 22 29.9990000  0  6G24G30G17G 5G10G 6
  23923878.358    18442311.51043  14375205.75642  23923879.958    23923880.392
  20238472.755   -21316451.86744 -16554595.00642  20238475.180    20238472.737
  22288607.927   -17306037.23243 -13470245.93842  22288609.687    22288609.938
  21993228.944     2611098.65043   2046330.70442  21993230.219    21993229.914
  20869318.190   -18408539.03743 -14287942.75142  20869319.431    20869317.983
  20695160.825   -22795254.17844 -17413976.17742  20695162.855    20695160.663
 03  3 25 20 22 59.9990000  0  6G24G30G17G 5G10G 6
  23939931.560    18526671.51143  14440940.72842  23939933.202    23939933.574
  20246644.515   -21273509.07544 -16521133.12642  20246646.948    20246644.519
  22276625.002   -17369007.74343 -13519313.81142  22276626.759    22276626.984
  22011225.465     2705670.83443   2120023.21442  22011226.760    22011226.501
  20875918.530   -18373854.14743 -14260915.56642  20875919.745    20875918.305
  20686645.358   -22840003.31044 -17448845.61742  20686647.366    20686645.186
 03  3 25 20 23 29.9990000  0  6G24G30G17G 5G10G 6
  23955978.032    18610996.11243  14506648.13442  23955979.754    23955980.135
  20254919.233   -21230025.11344 -16487249.55642  20254921.694    20254919.259
  22264684.546   -17431755.10843 -13568207.79442  22264686.302    22264686.515
  22029271.296     2800501.97343   2193917.50342  22029272.583    22029272.347
  20882631.114   -18338579.60644 -14233428.91542  20882632.295    20882630.845
  20678167.923   -22884552.50044 -17483559.25542  20678169.926    20678167.737
 03  3 25 20 23 59.9990000  0  6G24G30G17G 5G10G 6
  23972022.407    18695309.70543  14572346.94242  23972024.176    23972024.595
  20263301.463   -21185976.29044 -16452925.83442  20263303.906    20263301.490
  22252791.305   -17494254.41243 -13616908.48742  22252793.066    22252793.243
  22047370.634     2895614.54843   2268031.09142  22047371.993    22047371.769
  20889460.322   -18302692.16243 -14205464.68042  20889461.499    20889459.981
  20669733.582   -22928875.31044 -17518096.49942  20669735.566    20669733.382
 03  3 25 20 24 29.9990000  0  6G24G30G17G 5G10G 6
  23988060.655    18779591.46443  14638020.93942  23988062.373    23988062.990
  20271787.132   -21141383.98744 -16418178.62042  20271789.562    20271787.161
  22240941.556   -17556525.24143 -13665431.15842  22240943.302    22240943.434
  22065519.233     2990986.14243   2342346.51942  22065520.639    22065520.476
  20896402.041   -18266213.28044 -14177039.58942  20896403.228    20896401.715
  20661338.821   -22972990.07644 -17552471.63542  20661340.800    20661338.583
 03  3 25 20 24 59.9990000  0  6G24G30G17G 5G10G 6
  24004093.409    18863844.11043  14703672.24442  24004095.097    24004095.902
  20280376.684   -21096245.75644 -16383006.00442  20280379.126    20280376.720
  22229135.954   -17618563.90843 -13713772.91942  22229137.682    22229137.834
  22083717.392     3086617.97843   2416864.72442  22083718.800    22083718.717
  20903456.797   -18229140.36644 -14148151.61542  20903457.981    20903456.463
  20652984.634   -23016891.54344 -17586680.55642  20652986.623    20652984.397
 03  3 25 20 25 29.9990000  0  6G24G30G17G 5G10G 6
  24020119.044    18948059.13843  14769294.25842  24020120.574    24020121.733
  20289068.299   -21050571.22644 -16347415.49642  20289070.725    20289068.335
  22217373.020   -17680378.23343 -13761939.86642  22217374.740    22217374.963
  22101963.056     3182499.46743   2491577.45942  22101964.465    22101964.451
  20910622.718   -18191483.17343 -14118808.36542  20910623.910    20910622.382
  20644669.782   -23060586.28044 -17620728.39542  20644671.790    20644669.533
 03  3 25 20 25 59.9990000  0  6G24G30G17G 5G10G 6
  24036135.772    19032227.00143  14834879.52442  24036137.102    24036138.499
  20297860.060   -21004370.51944 -16311414.98042  20297862.475    20297860.068
  22205651.205   -17741976.42843 -13809938.39842  22205652.945    22205653.201
  22120254.127     3278619.36243   2566475.96742  22120255.518    22120255.585
  20917897.887   -18153251.84043 -14089017.73142  20917899.062    20917897.537
  20636392.870   -23104081.48844 -17654620.75142  20636394.884    20636392.643
 03  3 25 20 26 29.9990000  0  6G24G30G17G 5G10G 6
  24052147.814    19116370.17743  14900445.54242  24052149.117    24052150.569
  20306756.107   -20957621.76144 -16274987.41842  20306758.531    20306756.117
  22193974.992   -17803334.92343 -13857750.14942  22193976.717    22193977.029
  22138594.607     3374998.69043   2641576.63242  22138595.943    22138596.125
  20925286.435   -18114424.59743 -14058762.75742  20925287.613    20925286.098
  20628158.693   -23147352.31544 -17688338.26642  20628160.692    20628158.480
 03  3 25 20 26 59.9990000  0  6G24G30G17G 5G10G 6
  24068155.405    19200490.20043  14965993.51542  24068156.720    24068158.194
  20315756.604   -20910324.08044 -16238132.12342  20315759.036    20315756.606
  22182344.779   -17864451.69043 -13905373.54142  22182346.497    22182346.861
  22156984.418     3471637.35943   2716879.37542  22156985.763    22156985.993
  20932788.528   -18075000.66743 -14028042.83742  20932789.696    20932788.224
  20619967.946   -23190394.87044 -17721877.90642  20619969.938    20619967.740
 03  3 25 20 27 29.9990000  0  6G24G30G17G 5G10G 6
  24084155.669    19284571.48143  15031511.30742  24084157.035    24084158.456
  20324858.430   -20862493.94544 -16200861.93442  20324860.844    20324858.439
  22170757.722   -17925341.68743 -13952820.23942  22170759.435    22170759.846
  22175420.255     3568517.87343   2792370.56642  22175421.599    22175421.821
  20940401.061   -18034996.57143 -13996870.83742  20940402.196    20940400.742
  20611818.059   -23233222.66544 -17755250.19742  20611820.060    20611817.866
 03  3 25 20 27 59.9990000  0  6G24G30G17G 5G10G 6
  24100145.073    19368595.66743  15096984.61242  24100146.401    24100147.820
  20334057.941   -20814150.28944 -16163191.59642  20334060.374    20334057.984
  22159210.664   -17986021.90943 -14000103.47542  22159212.328    22159212.724
  22193898.381     3665620.50343   2868034.84542  22193899.709    22193899.935
  20948120.413   -17994431.22943 -13965261.50242  20948121.545    20948120.115
  20603706.016   -23275851.51344 -17788467.46442  20603708.014    20603705.862
 03  3 25 20 28 29.9990000  0  6G24G30G17G 5G10G 6
  24116125.871    19452575.00943  15162422.97242  24116127.166    24116128.716
  20343357.318   -20765281.85244 -16125112.33242  20343359.768    20343357.378
  22147705.985   -18046479.40543 -14047213.15842  22147707.649    22147707.994
  22212420.650     3762955.29443   2943880.02542  22212421.983    22212422.266
  20955948.702   -17953293.61543 -13933206.24442  20955949.794    20955948.382
  20595634.551   -23318267.18644 -17821518.62642  20595636.552    20595634.400
 03  3 25 20 28 59.9990000  0  6G24G30G17G 5G10G 6
  24132101.688    19536527.80743  15227840.64742  24132103.137    24132104.558
  20352759.869   -20715871.17844 -16086610.55442  20352762.335    20352759.935
  22136247.295   -18106694.92343 -14094134.29542  22136249.022    22136249.323
  22230990.270     3860538.85343   3019919.04442  22230991.598    22230991.934
  20963889.211   -17911566.18743 -13900691.38742  20963890.324    20963888.917
  20587607.660   -23360448.85144 -17854387.44442  20587609.653    20587607.498
 03  3 25 20 29 29.9990000  0  6G24G30G17G 5G10G 6
  24148070.093    19620442.16143  15293228.37542  24148071.656    24148072.995
  20362263.135   -20665931.17544 -16047696.30742  20362265.624    20362263.228
  22124832.545   -18166679.59243 -14140875.54342  22124834.264    22124834.581
  22249604.593     3958357.24343   3096141.05242  22249605.917    22249606.251
  20971939.468   -17869261.85443 -13867726.99242  20971940.599    20971939.173
  20579623.438   -23402406.27344 -17887081.52542  20579625.430    20579623.280
 03  3 25 20 29 59.9990000  0  7G24G30G17G 5G10G 6G23
  24164025.027    19704285.95243  15358561.11042  24164026.637    24164028.036
  20371860.949   -20615494.57244 -16008395.09742  20371863.409    20371861.027
  22113455.751   -18226464.73943 -14187461.31942  22113457.480    22113457.780
  22268257.145     4056376.61743   3172519.67042  22268258.465    22268258.800
  20980093.182   -17826413.83543 -13834338.95042  20980094.310    20980092.890
  20571676.201   -23444169.30544 -17919624.13842  20571678.170    20571676.047
  24167798.861    -2355919.48653  -1333682.98652  24167801.274    24167807.345
 03  3 25 20 30 29.9990000  0  7G24G30G17G 5G10G 6G23
  24179976.399    19788110.64943  15423878.97742  24179977.977    24179979.347
  20381562.836   -20564511.02144 -15968667.69842  20381565.263    20381562.899
  22102126.835   -18285998.39843 -14233851.13042  22102128.522    22102128.839
  22286957.441     4154646.87243   3249093.77142  22286958.769    22286959.127
  20988359.933   -17782971.73143 -13800487.98542  20988361.069    20988359.615
  20563776.116   -23485684.34944 -17951973.51442  20563778.094    20563775.989
  24147081.046    -2464790.79843  -1418517.41242  24147083.571    24147089.620
 03  3 25 20 30 59.9990000  0  7G24G30G17G 5G10G 6G23
  24195920.266    19871895.99743  15489166.16842  24195921.810    24195923.230
  20391364.753   -20513001.75644 -15928530.65742  20391367.197    20391364.809
  22090842.083   -18345300.07443 -14280060.16842  22090843.721    22090844.053
  22305701.295     4253145.69543   3325845.98442  22305702.553    22305702.936
  20996735.664   -17738956.91743 -13766190.74242  20996736.803    20996735.355
  20555919.818   -23526969.47644 -17984143.73342  20555921.779    20555919.678
  24126375.878    -2573595.33543  -1503299.79442  24126378.538    24126384.452
 03  3 25 20 31 29.9990000  0  7G24G30G17G 5G10G 6G23
  24211855.480    19955635.76643  15554417.84242  24211857.133    24211858.509
  20401265.408   -20460973.61044 -15887989.28742  20401267.857    20401265.452
  22079600.531   -18404374.49343 -14326092.12742  22079602.158    22079602.520
  22324487.163     4351865.38243   3402770.29842  22324488.408    22324488.807
  21005219.122   -17694376.05743 -13731452.42842  21005220.265    21005218.800
  20548106.619   -23568028.09444 -18016137.45542  20548108.581    20548106.474
  24105683.005    -2682335.77843  -1588032.26542  24105685.785    24105691.562
 03  3 25 20 31 59.9990000  0  7G24G30G17G 5G10G 6G23
  24227783.872    20039339.73443  15619641.61442  24227785.675    24227786.940
  20411266.383   -20408418.35744 -15847037.18742  20411268.799    20411266.395
  22068404.179   -18463211.50143 -14371939.09042  22068405.794    22068406.164
  22343316.510     4450813.51443   3479872.61642  22343317.721    22343318.161
  21013811.854   -17649221.15943 -13696266.81242  21013812.995    21013811.470
  20540338.672   -23608848.79844 -18047945.79342  20540340.651    20540338.548
  24085004.795    -2790999.58043  -1672704.99942  24085007.412    24085013.069
 03  3 25 20 32 29.9990000  0  7G24G30G17G 5G10G 6G23
  24243702.862    20122994.28243  15684826.88942  24243704.603    24243706.068
  20421364.866   -20355350.52444 -15805685.66742  20421367.284    20421364.874
  22057250.458   -18521824.53643 -14417611.52442  22057252.089    22057252.390
  22362186.331     4549974.59743   3557140.87442  22362187.571    22362187.995
  21022511.014   -17603506.85143 -13660645.29842  21022512.164    21022510.660
  20532613.879   -23649442.83644 -18079577.50442  20532615.865    20532613.762
  24064339.124    -2899596.93243  -1757325.97942  24064341.721    24064347.293
 03  3 25 20 32 59.9990000  0  7G24G30G17G 5G10G 6G23
  24259614.819    20206612.02043  15749983.46642  24259616.578    24259618.103
  20431563.104   -20301758.44544 -15763925.65142  20431565.530    20431563.132
  22046141.974   -18580199.86243 -14463098.73942  22046143.616    22046143.898
  22381098.785     4649359.51043   3634583.53742  22381100.045    22381100.428
  21031318.815   -17557221.60443 -13624578.89742  21031319.961    21031318.506
  20524935.073   -23689795.12744 -18111020.84642  20524937.059    20524934.968
  24043689.237    -3008111.85843  -1841882.73542  24043691.755    24043697.178
 03  3 25 20 33 29.9990000  0  7G24G30G17G 5G10G 6G23
  24275515.443    20290170.38043  15815093.78742  24275517.172    24275518.916
  20441856.651   -20247665.52744 -15721775.36542  20441859.075    20441856.719
  22035074.565   -18638359.25243 -14508417.68342  22035076.254    22035076.472
  22400049.223     4748944.06543   3712181.77442  22400050.487    22400050.841
  21040230.802   -17510388.91143 -13588085.91142  21040231.915    21040230.549
  20517298.424   -23729925.91244 -18142291.58242  20517300.406    20517298.339
  24023051.366    -3116563.42443  -1926390.11442  24023053.870    24023059.246
 03  3 25 20 33 59.9990000  0  7G24G30G17G 5G10G 6G23
  24291405.150    20373670.66943  15880158.86242  24291406.847    24291408.464
  20452245.521   -20193071.86844 -15679234.89642  20452247.921    20452245.620
  22024048.682   -18696300.47943 -14553566.63342  22024050.382    22024050.581
  22419037.469     4848727.19443   3789934.73642  22419038.705    22419039.030
  21049246.913   -17463008.94343 -13551166.48042  21049248.053    21049246.736
  20509704.557   -23769831.95144 -18173387.19742  20509706.510    20509704.458
  24002426.396    -3224947.20043  -2010844.68042  24002428.788    24002434.163
 03  3 25 20 34 29.9990000  0  7G24G30G17G 5G10G 6G23
  24307289.403    20457142.87643  15945202.03642  24307291.099    24307292.811
  20462735.092   -20137948.92144 -15636281.99842  20462737.480    20462735.257
  22013070.012   -18753993.38243 -14598522.08442  22013071.742    22013071.973
  22438068.783     4948737.06543   3867864.39142  22438070.045    22438070.342
  21058372.684   -17415052.93443 -13513798.19542  21058373.781    21058372.537
  20502159.505   -23809481.24044 -18204282.73942  20502161.481    20502159.459
  23981820.527    -3333230.19943  -2095220.71542  23981822.993    23981828.115
 03  3 25 20 34 59.9990000  0  7G24G30G17G 5G10G 6G23
  24323169.220    20540591.16643  16010226.57742  24323170.830    24323172.518
  20473326.013   -20082293.35544 -15592914.07042  20473328.414    20473326.237
  22002139.642   -18811432.69343 -14643279.93142  22002141.359    22002141.648
  22457143.741     5048976.17943   3945972.67242  22457144.968    22457145.288
  21067608.624   -17366517.84043 -13475978.67342  21067609.741    21067608.530
  20494664.593   -23848867.18144 -18234973.07642  20494666.571    20494664.581
  23961235.356    -3441404.75743  -2179512.25942  23961237.828    23961242.794
 03  3 25 20 35 29.9990000  0  7G24G30G17G 5G10G 6G23
  24339035.582    20623968.94243  16075196.19042  24339037.295    24339038.897
  20484009.164   -20026153.19044 -15549168.53342  20484011.587    20484009.430
  21991248.725   -18868664.66543 -14687876.21842  21991250.429    21991250.714
  22476253.023     5149395.75043   4024221.56942  22476254.259    22476254.559
  21076945.552   -17317452.05843 -13437745.63042  21076946.682    21076945.505
  20487211.328   -23888034.42144 -18265492.99342  20487213.281    20487211.292
  23940662.506    -3549514.53443  -2263753.33942  23940665.070    23940669.783
 03  3 25 20 35 59.9990000  0  8G24G30G17G29G 5G10G 6G23
  24354892.795    20707298.85943  16140128.50442  24354894.451    24354896.004
  20494788.590   -19969507.07444 -15505028.74542  20494791.023    20494788.892
  21980401.575   -18925666.47043 -14732293.15142  21980403.257    21980403.584
  24132929.646
  22495400.562     5250016.47643   4102627.21442  22495401.836    22495402.133
  21086387.636   -17267833.70243 -13399082.00542  21086388.766    21086387.638
  20479804.416   -23926957.95444 -18295823.00742  20479806.375    20479804.357
  23920106.929    -3657533.53243  -2347923.68742  23920109.395    23920114.085
 03  3 25 20 36 29.9990000  0  7G24G30G17G 5G10G 6G23
  24370736.651    20790558.05543  16205005.70442  24370738.299    24370739.828
  20505659.768   -19912378.95144 -15460513.36742  20505662.189    20505660.048
  21969594.105   -18982459.76543 -14776547.60442  21969595.766    21969596.134
  22514581.705     5350813.65643   4181170.34242  22514582.962    22514583.343
  21095930.198   -17217687.35343 -13360006.95942  21095931.325    21095930.205
  20472439.941   -23965658.49144 -18325979.25542  20472441.916    20472439.839
  23899564.859    -3765481.53143  -2432038.71342  23899567.229    23899571.850
 03  3 25 20 36 59.9990000  0  8G24G30G17G29G 5G10G 6G23
  24386571.077    20873767.99343  16269844.52342  24386572.630    24386573.950
  20516626.509   -19854748.66544 -15415606.69842  20516628.917    20516626.756
  21958830.496   -19039022.73543 -14820622.59842  21958832.150    21958832.501
  24106891.000
  22533800.186     5451806.80743   4259866.17042  22533801.419    22533801.845
  21105577.056   -17166992.99043 -13320504.88542  21105578.194    21105577.049
  20465122.434   -24004112.32544 -18355943.27042  20465124.402    20465122.277
  23879041.050    -3873333.91943  -2516079.26942  23879043.320    23879048.030
 03  3 25 20 37 29.9990000  0  8G24G30G17G29G 5G10G 6G23
  24402394.334    20956919.40143  16334637.75142  24402395.783    24402397.220
  20527686.778   -19796626.70944 -15370316.90942  20527689.188    20527687.035
  21948109.174   -19095363.55843 -14864524.47942  21948110.843    21948111.143
  24093910.934    -1772168.59753  -1210001.72152  24093913.038    24093917.140
  22553053.838     5552984.87843   4338706.08242  22553055.058    22553055.530
  21115326.269   -17115760.77343 -13280583.69842  21115327.414    21115326.248
  20457850.555   -24042326.29944 -18385720.37842  20457852.539    20457850.382
  23858534.344    -3981096.42643  -2600049.78042  23858536.467    23858541.143
 03  3 25 20 37 59.9990000  0  8G24G30G17G29G 5G10G 6G23
  24418208.508    21040023.57943  16399394.14442  24418210.092    24418211.383
  20538842.462   -19738003.30244 -15324636.38442  20538844.882    20538842.748
  21937432.285   -19151470.59043 -14908244.18142  21937433.987    21937434.263
  24080958.139    -1840234.83143  -1263040.12342  24080959.317    24080963.109
  22572344.412     5654357.10043   4417697.28842  22572345.634    22572346.165
  21125179.619   -17063981.23143 -13240236.02742  21125180.771    21125179.600
  20450626.849   -24080287.22744 -18415300.30442  20450628.824    20450626.658
  23838047.453    -4088754.87343  -2683939.22242  23838049.487    23838054.200
 03  3 25 20 38 29.9990000  0  8G24G30G17G29G 5G10G 6G23
  24434014.976    21123086.46943  16464118.38342  24434016.578    24434017.594
  20550094.439   -19678873.87544 -15278561.56442  20550096.834    20550094.731
  21926801.059   -19207337.67143 -14951776.91442  21926802.788    21926803.042
  24068033.847    -1908148.68243  -1315959.83142  24068035.703    24068039.088
  22591672.673     5755927.37843   4496842.81542  22591673.902    22591674.534
  21135137.998   -17011649.71143 -13199458.23942  21135139.145    21135137.977
  20443452.771   -24117987.17744 -18444676.88242  20443454.749    20443452.569
  23817582.025    -4196300.45243  -2767740.73242  23817584.109    23817588.584
 03  3 25 20 38 59.9990000  0  8G24G30G17G29G 5G10G 6G23
  24449810.316    21206091.14243  16528797.25042  24449811.833    24449812.985
  20561439.213   -19619256.86544 -15232106.80442  20561441.584    20561439.497
  21916212.414   -19262981.27843 -14995135.51642  21916214.139    21916214.314
  24055136.499    -1975923.91743  -1368771.54442  24055138.661    24055141.656
  22611034.913     5857676.38043   4576127.60442  22611036.162    22611036.905
  21145197.824   -16958784.95943 -13158264.94442  21145198.978    21145197.839
  20436325.562   -24155440.98044 -18473861.64642  20436327.541    20436325.331
  23797135.518    -4303746.54543  -2851464.72542  23797137.585    23797141.915
 03  3 25 20 39 29.9990000  0  8G24G30G17G29G 5G10G 6G23
  24465596.977    21289049.98343  16593440.41442  24465598.327    24465599.667
  20572878.957   -19559140.95044 -15185263.29242  20572881.324    20572879.198
  21905668.956   -19318387.50643 -15038309.14442  21905670.667    21905670.790
  24042268.705    -2043543.91243  -1421462.31542  24042270.977    24042273.841
  22630433.247     5959614.89543   4655560.07642  22630434.514    22630435.312
  21155361.243   -16905375.92343 -13116647.53442  21155362.378    21155361.268
  20429248.048   -24192633.66044 -18502842.94342  20429250.023    20429247.768
  23776710.929    -4411077.47143  -2935099.00542  23776712.943    23776717.293
 03  3 25 20 39 59.9990000  0  8G24G30G17G29G 5G10G 6G23
  24481371.634    21371946.32243  16658034.87642  24481373.023    24481374.401
  20584410.116   -19498544.75644 -15138045.53142  20584412.473    20584410.299
  21895167.401   -19373573.53243 -15081311.19342  21895169.117    21895169.178
  24029427.780    -2111022.52843  -1474042.89442  24029430.080    24029433.082
  22649864.048     6061723.86143   4735125.34742  22649865.258    22649866.139
  21165624.668   -16851441.23243 -13074620.51442  21165625.793    21165624.709
  20422217.363   -24229580.14444 -18531632.39542  20422219.353    20422217.058
  23756305.596    -4518307.15443  -3018654.38442  23756307.650    23756311.957
 03  3 25 20 40 29.9990000  0  8G24G30G17G29G 5G10G 6G23
  24497137.098    21454794.26343  16722591.61842  24497138.450    24497140.094
  20596035.115   -19437455.41144 -15090443.50142  20596037.453    20596035.259
  21884710.504   -19428524.60043 -15124130.15642  21884712.240    21884712.303
  24016617.382    -2178341.38143  -1526499.01742  24016619.631    24016622.571
  22669329.618     6164015.63043   4814833.07142  22669330.808    22669331.722
  21175990.618   -16796967.82343 -13032173.71442  21175991.747    21175990.667
  20415236.641   -24266264.01744 -18560217.21842  20415238.646    20415236.377
  23735922.890    -4625418.18943  -3102117.32342  23735924.930    23735929.216
 03  3 25 20 40 59.9990000  0  8G24G30G17G29G 5G10G 6G23
  24512889.013    21537571.29143  16787093.10642  24512890.438    24512892.183
  20607749.440   -19375896.66044 -15042475.70242  20607751.759    20607749.541
  21874294.235   -19483262.18843 -15166782.78042  21874295.978    21874296.012
  24003833.635    -2245519.54043  -1578845.48642  24003835.929    24003838.846
  22688825.322     6266465.81143   4894664.23942  22688826.511    22688827.491
  21186454.476   -16741979.95743 -12989326.03442  21186455.587    21186454.516
  20408302.046   -24302705.48244 -18588613.14742  20408304.053    20408301.801
  23715559.140    -4732429.72043  -3185502.74742  23715561.107    23715565.346
 03  3 25 20 41 29.9990000  0  8G24G30G17G29G 5G10G 6G23
  24528632.625    21620304.81343  16851560.69442  24528634.221    24528636.038
  20619557.878   -19313843.24544 -14994122.44742  20619560.213    20619557.967
  21863923.835   -19537758.97043 -15209247.77142  21863925.539    21863925.534
  23991082.499    -2312526.47843  -1631058.54642  23991084.801    23991087.599
  22708355.905     6369099.10743   4974638.08242  22708357.046    22708358.076
  21197021.108   -16686452.05343 -12946057.54042  21197022.228    21197021.132
  20401419.140   -24338875.45944 -18616797.53142  20401421.135    20401418.883
  23695219.991    -4839311.76943  -3268787.25342  23695221.946    23695226.186
 03  3 25 20 41 59.9990000  0  8G24G30G17G29G 5G10G 6G23
  24544365.110    21702979.63943  16915982.54842  24544366.739    24544368.707
  20631457.351   -19251311.40444 -14945396.39242  20631459.696    20631457.426
  21853596.477   -19592029.51143 -15251536.46542  21853598.146    21853598.123
  23978361.766    -2379373.17943  -1683146.76642  23978364.114    23978366.763
  22727918.114     6471898.79843   5054741.59242  22727919.218    22727920.349
  21207687.347   -16630400.49843 -12902381.00542  21207688.536    21207687.422
  20394585.495   -24374786.48844 -18644780.13742  20394587.474    20394585.223
  23674903.302    -4946075.84343  -3351979.81242  23674905.273    23674909.502
 03  3 25 20 42 29.9990000  0  8G24G30G17G29G 5G10G 6G23
  24560081.058    21785567.56543  16980336.70142  24560082.706    24560084.442
  20643442.205   -19188330.77344 -14896320.63142  20643444.555    20643442.292
  21843306.927   -19646101.37743 -15293670.34342  21843308.591    21843308.541
  23965666.929    -2446084.55543  -1735129.51242  23965669.117    23965672.005
  22747506.295     6574834.79643   5134951.32142  22747507.410    22747508.552
  21218447.590   -16573855.13543 -12858319.68342  21218448.778    21218447.659
  20387796.106   -24410464.76044 -18672581.37842  20387798.085    20387795.870
  23654604.197    -5052747.38943  -3435100.30842  23654606.130    23654610.397
 03  3 25 20 42 59.9990000  0  8G24G30G17G29G 5G10G 6G23
  24575786.932    21868102.58743  17044649.60642  24575788.594    24575790.493
  20655518.556   -19124869.21444 -14846870.12442  20655520.895    20655518.707
  21833061.762   -19699939.83143 -15335622.34542  21833063.424    21833063.365
  23953005.000    -2512622.87943  -1786977.40042  23953007.207    23953010.056
  22767126.507     6677938.81043   5215291.96542  22767127.550    22767128.716
  21229307.885   -16516783.91443 -12813848.59742  21229309.111    21229307.908
  20381057.872   -24445874.25144 -18700173.17942  20381059.862    20381057.683
  23634329.768    -5159289.32243  -3518119.76842  23634331.696    23634335.966
 03  3 25 20 43 29.9990000  0  8G24G30G17G29G 5G10G 6G23
  24591484.946    21950595.57043  17108929.76642  24591486.641    24591488.427
  20667688.151   -19060917.77044 -14797037.88542  20667690.481    20667688.372
  21822863.042   -19753534.33143 -15377384.24642  21822864.644    21822864.610
  23940378.541    -2578974.32143  -1838679.65142  23940380.791    23940383.413
  22786780.297     6781219.28743   5295770.11242  22786781.322    22786782.529
  21240269.935   -16459177.95143 -12768960.82842  21240271.175    21240269.904
  20374373.187   -24481002.38244 -18727545.74042  20374375.182    20374373.005
  23614082.564    -5265688.08543  -3601027.67042  23614084.524    23614088.778
 03  3 25 20 43 59.9990000  0  7G30G17G29G 5G10G 6G23
  20679953.183   -18996464.84444 -14746814.88642  20679955.507    20679953.460
  21812713.273   -19806871.53443 -15418945.65142  21812714.852    21812714.813
  23927790.915    -2645122.04143  -1890223.15542  23927793.064    23927795.489
  22806469.778     6884687.47443   5376394.51842  22806470.758    22806472.046
  21251335.937   -16401025.54143 -12723647.26642  21251337.180    21251335.897
  20367744.989   -24515833.78444 -18754687.08342  20367746.975    20367744.809
  23593865.750    -5371927.10843  -3683811.10042  23593867.712    23593872.017
 03  3 25 20 44 29.9990000  0  7G30G17G29G 5G10G 6G23
  20692310.256   -18931528.31644 -14696215.05242  20692312.577    20692310.557
  21802609.458   -19859967.12143 -15460318.78542  21802611.066    21802610.990
  23915239.592    -2711078.77643  -1941617.82642  23915241.857    23915244.270
  22826191.510     6988324.98443   5457150.86942  22826192.429    22826193.746
  21262502.475   -16342344.76543 -12677921.98342  21262503.730    21262502.458
  20361170.594   -24550382.51944 -18781608.16442  20361172.576    20361170.365
  23573676.833    -5478019.83343  -3766480.51442  23573678.807    23573683.022
 03  3 25 20 44 59.9990000  0  8G30G17G29G 5G10G 6G15G23
  20704750.955   -18866152.32044 -14645272.77342  20704753.256    20704751.277
  21792543.709   -19912862.79343 -15501536.15142  21792545.303    21792545.220
  23902717.147    -2776883.53643  -1992894.08742  23902719.412    23902721.697
  22845936.866     7092087.27443   5538004.45342  22845937.862    22845939.197
  21273761.107   -16283180.10743 -12631819.65142  21273762.348    21273761.106
  20354642.262   -24584689.05644 -18808340.52542  20354644.251    20354642.046
  24471768.865
  23553508.254    -5584005.52743  -3849066.50942  23553510.248    23553514.487
 03  3 25 20 45 29.9990000  0  8G30G17G29G 5G10G 6G15G23
  20717280.163   -18800311.10244 -14593967.98642  20717282.484    20717280.503
  21782521.269   -19965530.70143 -15542576.02742  21782522.865    21782522.793
  23890229.610    -2842505.17243  -2044027.65942  23890231.787    23890233.988
  22865710.854     7195999.77543   5618975.07742  22865711.841    22865713.220
  21285116.781   -16223505.74843 -12585320.16142  21285117.971    21285116.737
  20348165.663   -24618723.80544 -18834861.10242  20348167.632    20348165.444
  24455393.036    -1930314.45753  -1039489.85252  24455393.423    24455399.878
  23533365.820    -5689853.70443  -3931545.34842  23533367.813    23533372.050
 03  3 25 20 45 59.9990000  0  8G30G17G29G 5G10G 6G15G23
  20729888.245   -18734055.53544 -14542340.33442  20729890.554    20729888.602
  21772532.904   -20018019.59343 -15583476.41142  21772534.498    21772534.455
  23877768.211    -2907989.54243  -2095054.24742  23877770.500    23877772.654
  22885503.676     7300011.18943   5700022.77642  22885504.687    22885506.065
  21296559.704   -16163372.84943 -12538463.36642  21296560.884    21296559.626
  20341731.847   -24652533.71744 -18861206.48742  20341733.827    20341731.637
  24439031.159    -2016296.22443  -1106488.39042  24439032.354    24439037.355
  23513240.758    -5795610.35043  -4013952.85742  23513242.807    23513247.007
 03  3 25 20 46 29.9990000  0  8G30G17G29G 5G10G 6G15G23
  20742588.269   -18667316.76144 -14490336.15342  20742590.591    20742588.624
  21762592.102   -20070258.98443 -15624182.38042  21762593.649    21762593.579
  23865347.090    -2973262.52043  -2145916.12642  23865349.234    23865351.512
  22905328.337     7404189.92843   5781200.86442  22905329.343    22905330.804
  21308102.998   -16102712.34943 -12491195.45642  21308104.180    21308102.932
  20335354.597   -24686046.27744 -18887320.16742  20335356.607    20335354.402
  24422696.441    -2102133.77343  -1173374.60642  24422698.169    24422703.017
  23493147.041    -5901201.96243  -4096231.74742  23493149.197    23493153.352
 03  3 25 20 46 59.9990000  0  8G30G17G29G 5G10G 6G15G23
  20755377.247   -18600110.57044 -14437967.75142  20755379.581    20755377.593
  21752696.307   -20122261.76143 -15664703.97242  21752697.833    21752697.714
  23852964.333    -3038334.50943  -2196621.40542  23852966.358    23852968.569
  22925181.776     7508519.91143   5862496.79942  22925182.754    22925184.306
  21319743.710   -16041540.14443 -12443528.82242  21319744.866    21319743.649
  20329031.726   -24719273.24344 -18913211.30642  20329033.744    20329031.531
  24406386.868    -2187840.09443  -1240158.54942  24406388.815    24406393.694
  23473082.701    -6006639.51243  -4178390.57242  23473084.867    23473088.993
 03  3 25 20 47 29.9990000  0  8G30G17G29G 5G10G 6G15G23
  20768250.691   -18532460.45444 -14385253.43442  20768253.028    20768251.038
  21742841.407   -20174049.54743 -15705058.04142  21742842.986    21742842.765
  23840616.080    -3103223.99743  -2247184.48042  23840618.295    23840620.458
  22945059.444     7612977.23143   5943891.96042  22945060.354    22945062.007
  21331477.296   -15979880.05343 -12395482.02142  21331478.429    21331477.212
  20322759.431   -24752234.38544 -18938895.31542  20322761.451    20322759.219
  24390098.354    -2273436.01443  -1306856.47642  24390100.280    24390105.136
  23453044.110    -6111941.76243  -4260443.95742  23453046.327    23453050.465
 03  3 25 20 47 59.9990000  0  8G30G17G29G 5G10G 6G15G23
  20781210.271   -18464357.56144 -14332186.30842  20781212.622    20781210.648
  21733029.539   -20225611.35143 -15745236.01542  21733031.112    21733030.774
  23828305.298    -3167916.51743  -2297594.05142  23828307.640    23828309.739
  22964962.997     7717570.57343   6025393.10442  22964963.939    22964965.586
  21343305.488   -15917722.72843 -12347047.76742  21343306.617    21343305.423
  20316540.172   -24784916.87144 -18964362.19042  20316542.197    20316539.946
  24373832.956    -2358909.77743  -1373459.24242  24373834.884    24373839.846
  23433033.828    -6217094.95343  -4342381.19442  23433036.077    23433040.232
 03  3 25 20 48 29.9990000  0  9G30G17G29G 5G10G 6G15G26G23
  20794254.280   -18395810.82244 -14278773.32542  20794256.658    20794254.714
  21723259.241   -20276954.41143 -15785243.53742  21723260.823    21723260.416
  23816031.270    -3232415.95343  -2347853.19242  23816033.808    23816035.702
  22984890.646     7822290.61343   6106992.98242  22984891.576    22984893.275
  21355226.505   -15855077.59543 -12298233.40942  21355227.625    21355226.458
  20310372.933   -24817325.85244 -18989615.94642  20310374.956    20310372.734
  24357589.729    -2444267.70043  -1439971.70642  24357591.660    24357596.469
  23968040.006    -4089268.91653  -2938223.65052  23968042.505    23968047.850
  23413051.157    -6322103.27543  -4424205.55842  23413053.475    23413057.552
 03  3 25 20 48 59.9990000  0  9G30G17G29G 5G10G 6G15G26G23
  20807383.019   -18326818.95444 -14225013.49342  20807385.393    20807383.489
  21713531.334   -20328074.64643 -15825077.43642  21713532.924    21713532.507
  23803795.247    -3296715.63143  -2397956.65642  23803797.757    23803799.893
  23004842.564     7927138.46043   6188692.44042  23004843.549    23004845.264
  21367240.559   -15791943.23043 -12249037.83442  21367241.695    21367240.576
  20304258.742   -24849456.05544 -19014652.47542  20304260.748    20304258.537
  24341369.275    -2529505.69043  -1506390.74342  24341371.305    24341376.143
  23951138.919    -4178083.83843  -3007429.88242  23951141.485    23951146.775
  23393097.207    -6426960.56043  -4505912.19942  23393099.602    23393103.575
 03  3 25 20 49 29.9990000  0  9G30G17G29G 5G10G 6G15G26G23
  20820598.730   -18257370.19743 -14170897.64642  20820601.079    20820599.214
  21703848.339   -20378958.75043 -15864727.32342  21703849.937    21703849.578
  23791600.448    -3360798.63843  -2447891.30342  23791602.973    23791605.175
  23024820.959     8032125.38343   6270500.28442  23024821.955    23024823.718
  21379349.904   -15728308.16043 -12199452.09142  21379351.086    21379349.983
  20298200.589   -24881291.91544 -19039459.64542  20298202.575    20298200.380
  24325174.516    -2614609.22143  -1572705.00842  24325176.322    24325181.502
  23934246.897    -4266851.07243  -3076598.93742  23934249.485    23934254.624
  23373175.174    -6531650.38343  -4587488.37042  23373177.486    23373181.457
 03  3 25 20 49 59.9990000  0  9G30G17G29G 5G10G 6G15G26G23
  20833899.219   -18187475.74844 -14116434.50042  20833901.567    20833899.740
  21694208.666   -20429615.22343 -15904199.83742  21694210.273    21694209.972
  23779445.853    -3424670.69043  -2497661.54742  23779448.294    23779450.541
  23044823.754     8137240.04343   6352407.65342  23044824.733    23044826.525
  21391552.458   -15664183.64943 -12149484.97342  21391553.607    21391552.508
  20292197.084   -24912840.61944 -19064043.05642  20292199.062    20292196.868
  24309003.666    -2699586.80043  -1638921.12242  24309005.339    24309010.646
  23917362.853    -4355576.03743  -3145735.05042  23917365.595    23917370.789
  23353283.855    -6636178.89443  -4668938.84642  23353286.178    23353290.063
 03  3 25 20 50 29.9990000  0  9G30G17G29G 5G10G 6G15G26G23
  20847283.229   -18117142.51843 -14061629.45242  20847285.560    20847283.794
  21684611.362   -20480049.00243 -15943498.82042  21684612.976    21684612.727
  23767331.160    -3488333.60743  -2547268.85342  23767333.572    23767335.688
  23064849.469     8242475.14943   6434408.86942  23064850.421    23064852.191
  21403846.765   -15599576.91043 -12099142.09742  21403847.922    21403846.791
  20286247.694   -24944104.97744 -19088404.90242  20286249.648    20286247.472
  24292855.854    -2784442.75243  -1705042.46942  24292857.698    24292862.964
  23900486.778    -4444259.96843  -3214839.19042  23900489.644    23900494.695
  23333422.837    -6740548.24443  -4750265.32842  23333425.136    23333428.945
 03  3 25 20 50 59.9990000  0  9G30G17G29G 5G10G 6G15G26G23
  20860750.562   -18046371.30143 -14006483.11342  20860752.906    20860751.199
  21675056.726   -20530258.59443 -15982623.12042  21675058.340    21675058.115
  23755257.159    -3551782.46043  -2596709.34342  23755259.562    23755261.687
  23084897.959     8347829.80743   6516503.24142  23084898.903    23084900.650
  21416232.754   -15534488.48843 -12048423.88942  21416233.899    21416232.729
  20280352.994   -24975081.83144 -19112542.71542  20280354.936    20280352.773
  24276731.688    -2869174.95843  -1771067.33742  24276733.449    24276738.666
  23883619.404    -4532897.80343  -3283907.39542  23883622.263    23883627.285
  23313592.874    -6844754.14543  -4831464.44242  23313595.238    23313598.904
 03  3 25 20 51 29.9990000  0  9G30G17G29G 5G10G 6G15G26G23
  20874304.897   -17975143.13443 -13950980.71442  20874307.241    20874305.573
  21665548.733   -20580223.22543 -16021556.54542  21665550.354    21665550.127
  23743228.455    -3614993.19043  -2645964.29342  23743230.827    23743232.928
  23104972.670     8453322.66443   6598705.29842  23104973.629    23104975.480
  21428713.982   -15468899.45343 -11997315.58042  21428715.128    21428713.911
  20274517.322   -25005748.44044 -19136438.77442  20274519.286    20274517.097
  24260635.025    -2953761.77743  -1836978.93642  24260636.969    24260642.277
  23866765.440    -4621465.03343  -3352920.60342  23866768.490    23866773.158
  23293798.555    -6948772.95243  -4912517.79842  23293800.981    23293804.422
 03  3 25 20 51 59.9990000  0  9G30G17G29G 5G10G 6G15G26G23
  20887939.497   -17903493.21943 -13895149.68342  20887941.817    20887940.204
  21656081.194   -20629975.35243 -16060324.37542  21656082.790    21656082.571
  23731239.316    -3677995.62243  -2695056.93642  23731241.786    23731243.852
  23125066.972     8558918.41943   6680987.53942  23125067.964    23125069.878
  21441283.665   -15402845.23943 -11945844.80542  21441284.823    21441283.603
  20268734.742   -25036136.07844 -19160117.45242  20268736.699    20268734.515
  24244559.832    -3038235.61743  -1902802.47142  24244561.800    24244567.226
  23849919.287    -4709990.94643  -3421901.59342  23849922.222    23849927.155
  23274034.127    -7052635.04543  -4993449.06342  23274036.485    23274039.829
 03  3 25 20 52 29.9990000  0  9G30G17G29G 5G10G 6G15G26G23
  20901654.822   -17831418.86943 -13838987.91942  20901657.130    20901655.574
  21646654.980   -20679510.11443 -16098922.83542  21646656.594    21646656.331
  23719291.351    -3740781.61443  -2743980.91442  23719293.832    23719295.968
  23145181.365     8664619.53143   6763351.87442  23145182.343    23145184.300
  21453942.412   -15336323.13543 -11894009.44342  21453943.560    21453942.343
  20263006.557   -25066237.89244 -19183573.41142  20263008.517    20263006.322
  24228507.371    -3122590.78643  -1968533.55842  24228509.174    24228514.712
  23833082.624    -4798467.09243  -3490843.80542  23833085.564    23833090.533
  23254300.937    -7156332.75243  -5074252.23742  23254303.199    23254306.505
 03  3 25 20 52 59.9990000  0  9G30G17G29G 5G10G 6G15G26G23
  20915452.284   -17758912.91943 -13782489.84242  20915454.587    20915453.079
  21637271.873   -20728818.29343 -16137344.73642  21637273.509    21637273.193
  23707386.902    -3803338.85543  -2792726.63142  23707389.418    23707391.600
  23165317.091     8770432.82643   6845803.61842  23165317.927    23165320.081
  21466691.511   -15269326.18043 -11841804.05942  21466692.684    21466691.451
  20257334.905   -25096042.73444 -19206797.96142  20257336.884    20257334.649
  24212479.386    -3206817.29943  -2034164.34442  24212481.234    24212486.712
  23816257.949    -4886880.55543  -3559737.15942  23816260.894    23816265.583
  23234601.344    -7259854.26643  -5154918.13842  23234603.581    23234606.710
 03  3 25 20 53 29.9990000  0  9G30G17G29G 5G10G 6G15G26G23
  20929331.950   -17685975.01143 -13725655.17142  20929334.269    20929332.760
  21627932.529   -20777896.74543 -16175587.63242  21627934.157    21627933.795
  23695527.289    -3865661.43743  -2841289.51342  23695529.763    23695531.875
  23185474.252     8876358.78643   6928343.14742  23185475.048    23185477.322
  21479531.159   -15201853.78243 -11789228.21242  21479532.314    21479531.023
  20251720.602   -25125546.17144 -19229787.64842  20251722.594    20251720.330
  24196476.340    -3290911.96943  -2099692.41542  24196478.428    24196483.676
  23799446.382    -4975224.91143  -3628576.64242  23799449.425    23799454.128
  23214936.367    -7363193.92543  -5235442.36142  23214938.514    23214941.536
 03  3 25 20 53 59.9990000  0  9G30G17G29G 5G10G 6G15G26G23
  20943290.502   -17612622.56943 -13668497.48742  20943292.852    20943291.334
  21618633.926   -20826761.20943 -16213663.80042  21618635.537    21618635.108
  23683709.996    -3927761.42743  -2889678.94242  23683712.361    23683714.471
  23205649.505     8982379.58043   7010956.57642  23205650.242    23205652.576
  21492457.823   -15133923.90443 -11736295.88142  21492459.001    21492457.673
  20246161.083   -25154761.69244 -19252552.99042  20246163.056    20246160.787
  24180495.761    -3374889.50543  -2165129.21842  24180497.661    24180503.026
  23782645.827    -5063511.98953  -3697371.50652  23782648.778    23782653.519
  23195303.600    -7466364.25643  -5315834.64442  23195305.672    23195308.605
 03  3 25 20 54 29.9990000  0 10G30G17G29G 5G10G 6G15G26G23G18
  20957328.500   -17538852.65643 -13611014.50142  20957330.861    20957329.350
  21609376.995   -20875406.67743 -16251569.31742  21609378.634    21609378.143
  23671936.686    -3989630.38843  -2937888.33742  23671939.044    23671941.111
  23225843.504     9088498.31043   7093646.31742  23225844.148    23225846.495
  21505472.136   -15065533.28643 -11683004.53042  21505473.335    21505472.003
  20240657.675   -25183682.29444 -19275088.51542  20240659.655    20240657.368
  24164538.625    -3458744.05643  -2230470.20842  24164540.736    24164545.625
  23765857.709    -5151732.63243  -3766114.61242  23765860.919    23765865.333
  23175704.529    -7569357.32943  -5396088.82042  23175706.566    23175709.490
  24468673.163    -3252095.81053  -2467122.40552  24468675.841    24468680.789
 03  3 25 20 54 59.9990000  0 10G30G17G29G 5G10G 6G15G26G23G18
  20971444.998   -17464670.17743 -13553210.03742  20971447.379    20971445.876
  21600161.290   -20923835.31843 -16289305.87242  21600162.990    21600162.447
  23660207.349    -4051268.09343  -2985917.53842  23660209.754    23660211.751
  23246055.015     9194709.76843   7176408.31342  23246055.741    23246058.037
  21518573.117   -14996687.28943 -11629358.34642  21518574.304    21518573.010
  20235210.219   -25212308.97444 -19297395.01642  20235212.185    20235209.915
  24148604.498    -3542477.82243  -2295717.03942  24148606.642    24148611.294
  23749082.459    -5239886.22343  -3834805.45342  23749085.666    23749090.003
  23156139.126    -7672173.36743  -5476205.06242  23156141.167    23156144.035
  24447464.856    -3363544.83943  -2553965.50542  24447467.596    24447472.457
 03  3 25 20 55 29.9990000  0 10G30G17G29G 5G10G 6G15G26G23G18
  20985641.143   -17390069.23843 -13495079.50142  20985643.517    20985642.015
  21590988.469   -20972038.73243 -16326866.92842  21590990.159    21590989.573
  23648524.216    -4112663.00543  -3033757.56542  23648526.669    23648528.468
  23266285.354     9301019.81343   7259247.13442  23266286.066    23266288.373
  21531761.977   -14927379.57143 -11575352.37342  21531763.145    21531761.847
  20229820.626   -25240631.45644 -19319464.48142  20229822.591    20229820.335
  24132694.947    -3626081.96543  -2360862.91442  24132697.101    24132701.685
  23732322.249    -5327960.78443  -3903434.71542  23732325.477    23732329.576
  23136609.531    -7774801.24043  -5556174.69142  23136611.607    23136614.389
  24426265.065    -3474948.83943  -2640773.47042  24426267.808    24426272.667
 03  3 25 20 55 59.9990000  0 10G30G17G29G 5G10G 6G15G26G23G18
  20999916.795   -17315050.38943 -13436623.32342  20999919.179    20999917.677
  21581858.665   -21020015.90443 -16364251.69242  21581860.396    21581859.763
  23636888.135    -4173810.31143  -3081404.64742  23636890.631    23636892.333
  23286534.227     9407427.50643   7342162.02442  23286535.022    23286537.327
  21545038.498   -14857611.18743 -11520987.43342  21545039.671    21545038.351
  20224489.568   -25268646.34544 -19341294.26242  20224491.567    20224489.283
  24116810.487    -3709554.41743  -2425906.16242  24116812.876    24116817.199
  23715578.221    -5415951.01643  -3971998.28742  23715581.225    23715585.262
  23117116.595    -7877236.63643  -5635994.34542  23117118.643    23117121.399
  24405074.637    -3586303.66943  -2727543.12942  24405077.367    24405082.301
 03  3 25 20 56 29.9990000  0 10G30G17G29G 5G10G 6G15G26G23G18
  21014275.805   -17239593.69143 -13377825.96642  21014278.168    21014276.677
  21572776.280   -21067744.19543 -16401442.53342  21572777.988    21572777.282
  23625304.043    -4234684.57743  -3128839.00142  23625306.537    23625308.081
  23306805.565     9513953.07043   7425168.77242  23306806.441    23306808.641
  21558406.537   -14787361.79643 -11466247.68742  21558407.712    21558406.394
  20219221.629   -25296329.52744 -19362865.56442  20219223.635    20219221.367
  24100955.588    -3792872.26043  -2490828.95342  24100957.912    24100962.123
  23698855.064    -5503830.95943  -4040475.91042  23698857.995    23698862.137
  23097665.016    -7979454.66743  -5715644.63642  23097667.043    23097669.764
  24383898.401    -3697584.36643  -2814255.01042  24383901.108    24383906.054
 03  3 25 20 56 59.9990000  0 10G30G17G29G 5G10G 6G15G26G23G18
  21028710.736   -17163738.01743 -13318717.72342  21028713.094    21028711.585
  21563734.197   -21115260.46343 -16438468.16042  21563735.914    21563735.176
  23613765.307    -4295319.44543  -3176086.80042  23613767.886    23613769.484
  23327091.871     9620557.35743   7508236.86742  23327092.769    23327094.916
  21571858.606   -14716670.90843 -11411163.91242  21571859.791    21571858.418
  20214010.138   -25323716.02644 -19384205.69142  20214012.163    20214009.898
  24085123.209    -3876071.50643  -2555659.34642  24085125.563    24085129.621
  23682146.469    -5591633.53143  -4108893.24642  23682149.491    23682153.702
  23078248.402    -8081489.39243  -5795152.08442  23078250.369    23078252.999
  24362729.806    -3808825.10443  -2900935.75942  24362732.519    24362737.252
 03  3 25 20 57 29.9990000  0 10G30G17G29G 5G10G 6G15G26G23G18
  21043221.971   -17087481.07243 -13259296.80242  21043224.352    21043222.831
  21554733.466   -21162559.48743 -16475324.50742  21554735.157    21554734.440
  23602273.782    -4355706.91343  -3223141.83642  23602276.228    23602277.963
  23347393.608     9727242.82543   7591368.20842  23347394.530    23347396.587
  21585395.197   -14645535.69443 -11355733.90642  21585396.412    21585395.040
  20208856.401   -25350799.18344 -19405309.44542  20208858.396    20208856.160
  24069314.320    -3959146.84843  -2620393.19342  24069316.811    24069320.898
  23665454.333    -5679350.49043  -4177243.86242  23665457.383    23665461.138
  23058868.101    -8183333.21243  -5874510.79142  23058870.069    23058872.627
  24341570.041    -3920018.84643  -2987579.88842  24341572.884    24341577.515
 03  3 25 20 57 59.9990000  0 10G30G17G29G 5G10G 6G15G26G23G18
  21057808.790   -17010826.96043 -13199566.39942  21057811.174    21057809.665
  21545773.684   -21209643.27843 -16512013.13942  21545775.335    21545774.686
  23590829.630    -4415845.93643  -3270003.29742  23590831.976    23590833.708
  23367709.951     9834005.25843   7674559.52642  23367710.972    23367712.997
  21599015.504   -14573960.64443 -11299961.17342  21599016.706    21599015.352
  20203760.375   -25377579.06844 -19426176.87942  20203762.382    20203760.099
  24053528.790    -4042099.67143  -2685031.56842  24053531.316    24053535.231
  23648778.966    -5766979.77643  -4245526.18342  23648781.917    23648785.211
  23039524.282    -8284985.33643  -5953720.12042  23039526.207    23039528.723
  24320419.389    -4031164.73643  -3074186.72542  24320422.309    24320426.789
 03  3 25 20 58 29.9990000  0 10G30G17G29G 5G10G 6G15G26G23G18
  21072470.712   -16933778.19543 -13139528.46842  21072473.084    21072471.601
  21536854.789   -21256512.28343 -16548534.40442  21536856.404    21536855.787
  23579433.324    -4475733.25343  -3316668.63442  23579435.661    23579437.301
  23388040.543     9940842.21843   7757808.90542  23388041.588    23388043.577
  21612719.036   -14501948.22543 -11243847.62642  21612720.234    21612718.868
  20198722.369   -25404053.96944 -19446806.66242  20198724.374    20198722.072
  24037766.621    -4124929.38143  -2749574.00642  24037769.271    24037773.161
  23632120.871    -5854517.95643  -4313737.51242  23632123.495    23632126.704
  23020217.488    -8386443.19343  -6032778.07842  23020219.364    23020221.795
  24299278.200    -4142260.39143  -3160754.41342  24299281.300    24299285.586
 03  3 25 20 58 59.9990000  0 10G30G17G29G 5G10G 6G15G26G23G18
  21087207.694   -16856334.97543 -13079183.17742  21087210.067    21087208.624
  21527977.200   -21303164.14543 -16584886.47042  21527978.783    21527978.238
  23568086.026    -4535363.94643  -3363134.01742  23568088.223    23568089.775
  23408385.171    10047753.27443   7841116.02642  23408386.247    23408388.223
  21626505.753   -14429498.80143 -11187393.56442  21626506.930    21626505.530
  20193743.154   -25430220.05244 -19467195.80842  20193745.138    20193742.814
  24022028.422    -4207633.51743  -2814018.61542  24022031.094    24022034.755
  23615481.216    -5941959.40443  -4381873.44542  23615483.786    23615486.981
  23000948.491    -8487702.12443  -6111681.02842  23000950.369    23000952.706
  24278147.566    -4253301.33143  -3247279.47542  24278150.650    24278154.822
 03  3 25 20 59 29.9990000  0 10G30G17G29G 5G10G 6G15G26G23G18
  21102021.504   -16778488.07543 -13018523.32342  21102023.883    21102022.474
  21519143.097   -21349587.58043 -16621060.54142  21519144.662    21519144.151
  23556790.347    -4594723.18843  -3409387.89442  23556792.472    23556793.931
  23428745.749    10154747.74543   7924488.14342  23428746.790    23428748.869
  21640377.363   -14356603.14443 -11130591.78842  21640378.536    21640377.137
  20188825.220   -25456063.81144 -19487333.79442  20188827.229    20188824.911
  24006316.595    -4290199.83043  -2878355.82942  24006319.169    24006322.709
  23598862.818    -6029288.72743  -4449922.02542  23598865.541    23598868.465
  22981720.013    -8588747.79143  -6190417.79942  22981721.974    22981724.210
  24257030.076    -4364273.32443  -3333750.81342  24257033.094    24257037.056
 03  3 25 20 59 59.9990000  0 10G30G17G29G 5G10G 6G15G26G23G18
  21116910.174   -16700247.77443 -12957556.92742  21116912.536    21116911.205
  21510350.961   -21395790.43843 -16657062.73742  21510352.547    21510352.030
  23545545.372    -4653815.71743  -3455433.94142  23545547.506    23545548.800
  23449120.230    10261815.36943   8007917.26242  23449121.216    23449123.361
  21654331.942   -14283271.39243 -11073450.20142  21654333.104    21654331.729
  20183967.406   -25481591.57644 -19507225.54742  20183969.409    20183967.096
  23990629.572    -4372635.54743  -2942591.28242  23990632.082    23990635.590
  23582264.942    -6116510.20843  -4517886.56142  23582267.634    23582270.453
  22962531.172    -8689585.62843  -6268992.62442  22962533.109    22962535.255
  24235924.679    -4475181.59543  -3420172.49042  24235927.687    24235931.635
 03  3 25 21  0 29.9990000  0 10G30G17G29G 5G10G 6G15G26G23G18
  21131870.822   -16621629.21543 -12896295.78942  21131873.160    21131871.898
  21501598.419   -21441785.37743 -16692902.91342  21501599.994    21501599.459
  23534349.304    -4712651.24043  -3501279.73342  23534351.451    23534352.647
  23469505.702    10368940.95443   8091391.54542  23469506.689    23469508.875
  21668366.558   -14209518.85343 -11015980.72942  21668367.739    21668366.408
  20179167.671   -25506814.34244 -19526879.64842  20179169.645    20179167.314
  23974965.047    -4454953.17243  -3006734.72142  23974967.429    23974970.874
  23565685.867    -6203632.80743  -4585774.03142  23565688.546    23565691.417
  22943379.929    -8790225.62943  -6347413.28642  22943381.866    22943383.927
  24214829.428    -4586036.50443  -3506552.59742  24214832.515    24214836.287
 03  3 25 21  0 59.9990000  0 10G30G17G29G 5G10G 6G15G26G23G18
  21146905.326   -16542622.57143 -12834732.24042  21146907.660    21146906.439
  21492887.823   -21487559.74643 -16728571.21542  21492889.404    21492888.830
  23523205.058    -4771214.56643  -3546913.43042  23523207.185    23523208.326
  23489904.083    10476134.34043   8174918.65242  23489905.081    23489907.313
  21682483.169   -14135335.58543 -10958175.62542  21682484.334    21682483.058
  20174428.668   -25531717.88444 -19546284.99742  20174430.622    20174428.309
  23959325.279    -4537139.97143  -3070776.20142  23959327.605    23959330.876
  23549128.668    -6290640.62743  -4653572.07442  23549131.348    23549134.222
  22924269.184    -8890652.93743  -6425668.22242  22924271.183    22924273.061
  24193747.288    -4696823.19743  -3592879.55642  24193750.272    24193753.995
 03  3 25 21  1 29.9990000  0 10G30G17G29G 5G10G 6G15G26G23G18
  21162011.762   -16463238.11143 -12772874.29742  21162014.067    21162012.882
  21484217.536   -21533122.19543 -16764074.38942  21484219.114    21484218.527
  23512111.667    -4829510.33643  -3592338.63842  23512113.832    23512114.994
  23510313.453    10583385.55643   8258490.83042  23510314.428    23510316.779
  21696679.792   -14060732.16343 -10900043.13042  21696680.883    21696679.700
  20169749.267   -25556308.16044 -19565446.24842  20169751.223    20169748.933
  23943709.050    -4619203.12243  -3134721.34942  23943711.448    23943714.698
  23532592.482    -6377537.89443  -4721283.97742  23532595.091    23532598.056
  22905197.935    -8990872.64943  -6503761.39042  22905199.877    22905201.732
  24172676.995    -4807547.02443  -3679157.51142  24172680.034    24172683.720
 03  3 25 21  1 59.9990000  0 10G30G17G29G 5G10G 6G15G26G23G18
  21177193.809   -16383456.27743 -12710706.71042  21177196.117    21177194.939
  21475591.896   -21578450.10743 -16799394.80342  21475593.457    21475592.870
  23501073.928    -4887513.67043  -3637535.96342  23501076.114    23501077.311
  23530737.559    10690713.95643   8342123.15442  23530738.497    23530740.840
  21710960.082   -13985688.80543 -10841567.82942  21710961.177    21710960.054
  20165133.986   -25580561.56144 -19584344.99842  20165135.958    20165133.674
  23928120.698    -4701120.08143  -3198552.57142  23928123.019    23928126.339
  23516082.288    -6464298.75543  -4788889.58842  23516085.047    23516087.842
  22886170.813    -9090860.21143  -6581673.64842  22886172.772    22886174.638
  24151623.341    -4918183.58143  -3765367.49142  24151626.424    24151629.901
 03  3 25 21  2 29.9990000  0 10G30G17G29G 5G10G 6G15G26G23G18
  21192446.904   -16303301.15643 -12648248.25142  21192449.216    21192448.019
  21467006.684   -21623565.59343 -16834549.68942  21467008.225    21467007.631
  23490088.370    -4945243.03043  -3682519.82542  23490090.548    23490091.747
  23551171.702    10798095.49043   8425796.86342  23551172.657    23551175.047
  21725319.523   -13910229.83143 -10782768.67042  21725320.594    21725319.494
  20160579.033   -25604498.07244 -19602996.82242  20160581.002    20160578.697
  23912556.030    -4782912.20643  -3262286.50842  23912558.312    23912561.611
  23499594.493    -6550941.39543  -4856403.08042  23499597.346    23499599.884
  22867184.185    -9190634.85643  -6659419.99042  22867186.167    22867188.011
  24130582.515    -5028752.10643  -3851524.43642  24130585.714    24130589.081
 03  3 25 21  2 59.9990000  0 10G30G17G29G 5G10G 6G15G26G23G18
  21207773.605   -16222759.26743 -12585488.41442  21207775.916    21207774.717
  21458464.842   -21668453.04443 -16869526.88042  21458466.408    21458465.808
  23479158.519    -5002679.48343  -3727275.43342  23479160.710    23479161.906
  23571618.524    10905543.60743   8509522.46242  23571619.488    23571621.980
  21739760.559   -13834341.92743 -10723635.28342  21739761.641    21739760.564
  20156087.761   -25628099.93344 -19621387.87542  20156089.733    20156087.405
  23897018.224    -4864562.93243  -3325910.25842  23897020.601    23897023.879
  23483133.025    -6637446.02943  -4923809.04542  23483135.944    23483138.495
  22848241.608    -9290178.06643  -6736985.99942  22848243.588    22848245.484
  24109558.335    -5139233.69843  -3937613.67542  24109561.534    24109564.766
 03  3 25 21  3 29.9990000  0 10G30G17G29G 5G10G 6G15G26G23G18
  21223170.703   -16141847.21543 -12522440.13542  21223173.044    21223171.863
  21449963.843   -21713125.86743 -16904336.82842  21449965.424    21449964.846
  23468282.325    -5059834.20543  -3771811.52242  23468284.510    23468285.657
  23592074.924    11013042.01443   8593287.23042  23592075.912    23592078.530
  21754280.073   -13758041.52343 -10664180.46142  21754281.164    21754280.107
  20151657.777   -25651379.65644 -19639527.91942  20151659.789    20151657.415
  23881504.725    -4946085.86943  -3389434.43842  23881506.978    23881510.590
  23466695.868    -6723823.19643  -4991115.69042  23466698.631    23466701.329
  22829340.892    -9389501.25943  -6814380.56042  22829342.912    22829344.781
  24088548.431    -5249640.36843  -4023644.54542  24088551.515    24088554.789
 03  3 25 21  3 59.9990000  0 10G30G17G29G 5G10G 6G15G26G23G18
  21238639.184   -16060560.31043 -12459099.76242  21238641.515    21238640.323
  21441504.980   -21757577.44443 -16938974.37342  21441506.580    21441505.975
  23457461.632    -5116697.08543  -3816120.17942  23457463.838    23457464.904
  23612541.806    11120595.54543   8677094.96642  23612542.847    23612545.519
  21768879.017   -13681323.77343 -10604400.42742  21768880.106    21768879.035
  20147290.836   -25674328.21244 -19657409.90742  20147292.828    20147290.441
  23866017.022    -5027473.46143  -3452853.14442  23866019.222    23866022.775
  23450285.081    -6810061.96343  -5058314.51842  23450287.682    23450290.410
  22810483.888    -9488594.86543  -6891596.20742  22810485.863    22810487.802
  24067554.536    -5359962.66343  -4109609.64742  24067557.546    24067560.840
 03  3 25 21  4 29.9990000  0 10G30G17G29G 5G10G 6G15G26G23G18
  21254177.971   -15978903.89043 -12395471.45642  21254180.272    21254179.070
  21433087.564   -21801811.05343 -16973442.07642  21433089.192    21433088.595
  23446696.582    -5173267.70043  -3860201.10942  23446698.739    23446699.781
  23633018.163    11228198.84443   8760941.47442  23633019.152    23633021.950
  21783556.298   -13604194.32343 -10544299.60242  21783557.368    21783556.334
  20142986.654   -25696946.72844 -19675034.72342  20142988.689    20142986.271
  23850554.681    -5108728.05243  -3516168.21742  23850556.739    23850560.370
  23433900.555    -6896161.70443  -5125405.00742  23433903.202    23433906.082
  22791670.495    -9587459.00143  -6968633.06242  22791672.399    22791674.486
  24046576.729    -5470200.67643  -4195509.11942  24046579.662    24046582.850
 03  3 25 21  4 59.9990000  0 10G30G17G29G 5G10G 6G15G26G23G18
  21269786.485   -15896880.94143 -12331557.54542  21269788.795    21269787.548
  21424711.640   -21845826.71643 -17007739.94742  21424713.252    21424712.678
  23435987.471    -5229543.61943  -3904052.39042  23435989.668    23435990.752
  23653503.559    11335849.17743   8844824.62342  23653504.547    23653507.343
  21798311.352   -13526656.02443 -10483880.18542  21798312.433    21798311.425
  20138745.548   -25719233.88644 -19692401.33542  20138747.579    20138745.150
  23835117.652    -5189849.36143  -3579379.43342  23835119.624    23835123.325
  23417543.240    -6982118.80743  -5192384.35542  23417545.977    23417548.813
  22772901.230    -9686091.47243  -7045489.40642  22772903.094    22772905.263
  24025615.345    -5580352.42643  -4281341.37442  24025618.279    24025621.367
 03  3 25 21  5 29.9990000  0 10G30G17G29G 5G10G 6G15G26G23G18
  21285466.520   -15814482.03343 -12267350.67842  21285468.822    21285467.591
  21416379.372   -21889612.85443 -17041858.97742  21416380.995    21416380.436
  23425337.270    -5285509.99343  -3947662.46442  23425339.506    23425340.597
  23673999.687    11443556.18043   8928751.93442  23674000.649    23674003.573
  21813146.000   -13448699.45743 -10423134.83842  21813147.117    21813146.125
  20134570.073   -25741176.21744 -19709499.25242  20134572.076    20134569.641
  23819708.235    -5270825.25743  -3642477.35142  23819710.285    23819713.980
  23401216.115    -7067917.82243  -5259240.53242  23401218.726    23401221.632
  22754178.806    -9784477.90443  -7122154.01442  22754180.616    22754182.866
  24004673.162    -5690403.33543  -4367095.06142  24004676.041    24004679.037
 03  3 25 21  5 59.9990000  0 10G30G17G29G 5G10G 6G15G26G23G18
  21301215.112   -15731722.97043 -12202863.17542  21301217.392    21301216.204
  21408088.311   -21933182.54343 -17075809.34442  21408089.909    21408089.347
  23414744.078    -5341177.15143  -3991039.38442  23414746.318    23414747.425
  23694503.674    11551304.34843   9012711.31442  23694504.537    23694507.613
  21828057.164   -13370340.73843 -10362076.12242  21828058.326    21828057.323
  20130458.008   -25762785.17944 -19726337.40042  20130460.009    20130457.607
  23804324.022    -5351668.93843  -3705472.22542  23804326.033    23804329.775
  23384917.303    -7153568.51343  -5325981.14342  23384919.824    23384922.808
  22735501.143    -9882629.12143  -7198635.34842  22735502.891    22735505.198
  23983748.034    -5800364.40343  -4452778.77142  23983750.926    23983753.810
